[[{"header":{"parameterUnit":"m.s-1","parameterCategory":1,"la1":30.6,"la2":29.2853,"lo1":-89.7004,"lo2":-87.6739,"dy":0.0162,"dx":0.0183,"nx":112,"ny":82,"refTime":"2023-05-22T12:00:00:Z","depth":0,"parameterNumber":2,"parameterNumberName":"U-component_of_WINDS"},"data":[0.0,0.0,0.0,0.0,0.0,0.0,0.0,0.0,0.0,0.0,0.0,0.0,0.0,0.0,0.0,0.0,0.0,0.0,0.0,0.0,0.0,0.0,0.0,0.0,0.0,0.0,0.0,0.0,0.0,0.0,0.0,0.0,0.0,0.0,0.0,0.0,0.0,0.0,0.0,0.0,0.0,0.0,0.0,0.0,0.0,0.0,0.0,0.0,0.0,0.0,0.0,0.0,0.0,0.0,0.0,0.0,0.0,0.0,0.0,0.0,0.0,0.0,0.0,0.0,0.0,0.0,0.0,0.0,0.0,0.0,0.0,0.0,0.0,0.0,0.0,0.0,0.0,0.0,0.0,0.0,0.0,0.0,0.0,0.0,0.0,0.0,0.0,0.0,0.0,0.0,0.4651,0.3471,0.3482,0.3575,0.3657,0.3736,0.3834,0.3944,0.0,0.0,0.0,0.0,0.0,0.0,0.0,0.0,0.0,0.0,0.0,0.0,0.0,0.0,0.0,0.0,0.0,0.0,0.0,0.0,0.0,0.0,0.0,0.0,0.0,0.0,0.0,0.0,0.0,0.0,0.0,0.0,0.0,0.0,0.0,0.0,0.0,0.0,0.0,0.0,0.0,0.0,0.0,0.0,0.0,0.0,0.0,0.0,0.0,0.0,0.0,0.0,0.0,0.0,0.0,0.0,0.0,0.0,0.0,0.0,0.0,0.0,0.0,0.0,0.0,0.0,0.0,0.0,0.0,0.0,0.0,0.0,0.0,0.0,0.0,0.0,0.0,0.0,0.0,0.0,0.0,0.0,0.0,0.0,0.0,0.0,0.0,0.0,0.0,0.0,0.0,0.0,0.0,0.0,0.0,0.0,0.0,0.0,0.0,0.0,0.0,0.0,0.0,0.0,0.8262,0.7345,0.7282,0.6994,0.6299,0.6054,0.5817,0.5579,0.0,0.0,0.0,0.0,0.0,0.0,0.0,0.0,0.0,0.0,0.0,0.0,0.0,0.0,0.0,0.0,0.0,0.0,0.0,0.0,0.0,0.0,0.0,0.0,0.0,0.0,0.0,0.0,0.0,0.0,0.0,0.0,0.0,0.0,0.0,0.0,0.0,0.0,0.0,0.0,0.0,0.0,0.0,0.0,0.0,0.0,0.0,0.0,0.0,0.0,0.0,0.0,0.0,0.0,0.0,0.0,0.0,0.0,0.0,0.0,0.0,0.0,0.0,0.0,0.0,0.0,0.0,0.0,0.0,0.0,0.0,0.0,0.0,0.0,0.0,0.0,0.0,0.0,0.0,0.0,0.0,0.0,0.0,0.0,0.0,0.0,0.0,0.0,0.0,0.0,0.0,0.0,0.0,0.0,0.0,0.0,0.0,0.0,0.0,0.0,0.0,0.0,0.0,1.2576,1.204,1.1123,1.0986,1.0336,0.8717,0.8283,0.7669,0.6716,0.6466,0.0,0.0,0.0,0.0,0.0,0.0,0.0,0.0,0.0,0.0,0.0,0.0,0.0,0.0,0.0,0.0,0.0,0.0,0.0,0.0,0.0,0.0,0.0,0.0,0.0,0.0,0.0,0.0,0.0,0.0,0.0,0.0,0.0,0.0,0.0,0.0,0.0,0.0,0.0,0.0,0.0,0.0,0.0,0.0,0.0,0.0,0.0,0.0,0.0,0.0,0.0,0.0,0.0,0.0,0.0,0.0,0.0,0.0,0.0,0.0,0.0,0.0,0.0,0.0,0.0,0.0,0.0,0.0,0.0,0.0,0.0,0.0,0.0,0.0,0.0,0.0,0.0,0.0,0.0,0.0,0.0,0.0,0.0,0.0,0.0,0.0,0.0,0.0,0.0,0.0,0.0,0.0,0.0,0.0,0.0,0.0,0.0,0.0,0.0,0.0,0.0,0.0,1.5344,1.4663,1.3983,1.3348,1.2296,1.0639,0.9734,0.8759,0.761,0.7098,0.0,0.0,0.0,0.0,0.0,0.0,0.0,0.0,0.0,0.0,0.0,0.0,0.0,0.0,0.0,0.0,0.0,0.0,0.0,0.0,0.0,0.0,0.0,0.0,0.0,0.0,0.0,0.0,0.0,0.0,0.0,0.0,0.0,0.0,0.0,0.0,0.0,0.0,0.0,0.0,0.0,0.0,0.0,0.0,0.0,0.0,0.0,0.0,0.0,0.0,0.0,0.0,0.0,0.0,0.0,0.0,0.0,0.0,0.0,0.0,0.0,0.0,0.0,0.0,0.0,0.0,0.0,0.0,0.0,0.0,0.0,0.0,0.0,0.0,0.0,0.0,0.0,0.0,0.0,0.0,0.0,0.0,0.0,0.0,0.0,0.0,0.0,0.0,0.0,0.0,0.0,0.0,0.0,0.0,0.0,0.0,0.0,0.0,0.0,0.0,0.0,0.0,1.5765,1.4973,1.5141,1.3109,1.1706,1.1676,0.9777,0.8476,0.8252,0.74,0.0,0.0,0.0,0.0,0.0,0.0,0.0,0.0,0.0,0.0,0.0,0.0,0.0,0.0,0.0,0.0,0.0,0.0,0.0,0.0,0.0,0.0,0.0,0.0,0.0,0.0,0.0,0.0,0.0,0.0,0.0,0.0,0.0,0.0,0.0,0.0,0.0,0.0,0.0,0.0,0.0,0.0,0.0,0.0,0.0,0.0,0.0,0.0,0.0,0.0,0.0,0.0,0.0,0.0,0.0,0.0,0.0,0.0,0.0,0.0,0.0,0.0,0.0,0.0,0.0,0.0,0.0,0.0,0.0,0.0,0.0,0.0,0.0,0.0,0.0,0.0,0.0,0.0,0.0,0.0,0.0,0.0,0.0,0.0,0.0,0.0,0.0,0.0,0.0,0.0,0.0,0.0,0.0,0.0,0.0,0.0,0.0,0.0,0.0,0.0,0.0,0.0,1.637,1.5698,1.4314,1.3579,1.2457,1.0697,0.9756,0.8705,0.745,0.0,0.0,0.0,0.0,0.0,0.0,0.0,0.0,0.0,0.0,0.0,0.0,0.0,0.0,0.0,0.0,0.0,0.0,0.0,0.0,0.0,0.0,0.0,0.0,0.0,0.0,0.0,0.0,0.0,0.0,0.0,0.0,0.0,0.0,0.0,0.0,0.0,0.0,0.0,0.0,0.0,0.0,0.0,0.0,0.0,0.0,0.0,0.0,0.0,0.0,0.0,0.0,0.0,0.0,0.0,0.0,0.0,0.0,0.0,0.0,0.0,0.0,0.0,0.0,0.0,0.0,0.0,0.0,0.0,0.0,0.0,0.0,0.0,0.0,0.0,0.0,0.0,0.0,0.0,0.0,0.0,0.0,0.0,0.0,0.0,0.0,0.0,0.0,0.0,0.0,0.0,0.0,0.0,0.0,0.0,0.0,0.0,0.0,0.0,0.0,0.0,0.0,1.5907,1.5927,1.5327,1.3684,1.3147,1.2146,1.028,0.9572,0.8576,0.7068,0.0,0.0,0.0,0.0,0.0,0.0,0.0,0.0,0.0,0.0,0.0,0.0,0.0,0.0,0.0,0.0,0.0,0.0,0.0,0.0,0.0,0.0,0.0,0.0,0.0,0.0,0.0,0.0,0.0,0.0,0.0,0.0,0.0,0.0,0.0,0.0,0.0,0.0,0.0,0.0,0.0,0.0,0.0,0.0,0.0,0.0,0.0,0.0,0.0,0.0,0.0,0.0,0.0,0.0,0.0,0.0,0.0,0.0,0.0,0.0,0.0,0.0,0.0,0.0,0.0,0.0,0.0,0.0,0.0,0.0,0.0,0.0,0.0,0.0,0.0,0.0,0.0,0.0,0.0,0.0,0.0,0.0,0.0,0.0,0.0,0.0,0.0,0.0,0.0,0.0,0.0,0.0,0.0,0.0,0.0,0.0,0.0,0.0,0.0,0.0,0.0,0.0,1.4979,1.4254,1.3625,1.3461,1.1542,1.0406,1.0733,0.9185,0.7915,0.0,0.0,0.0,0.0,0.0,0.0,0.0,0.0,0.0,0.0,0.0,0.0,0.0,0.0,0.0,0.0,0.0,0.0,0.0,0.0,0.0,0.0,0.0,0.0,0.0,0.0,0.0,0.0,0.0,0.0,0.0,0.0,0.0,0.0,0.0,0.0,0.0,0.0,0.0,0.0,0.0,0.0,0.0,0.0,0.0,0.0,0.0,0.0,0.0,0.0,0.0,0.0,0.0,0.0,0.0,0.0,0.0,0.0,0.0,0.0,0.0,0.0,0.0,0.0,0.0,0.0,0.0,0.0,0.0,0.0,0.0,0.0,0.0,0.0,0.0,0.0,0.0,0.0,0.0,0.0,0.0,0.0,0.0,0.0,0.0,0.0,0.0,0.0,0.0,0.0,0.0,0.0,0.0,0.0,0.0,0.0,0.0,0.0,0.0,0.0,0.0,0.0,0.0,1.2264,1.2409,1.1937,1.0289,0.9686,0.9055,0.8269,0.7371,0.6543,0.5788,0.0,0.0,0.0,0.0,0.0,0.0,0.0,0.0,0.0,0.0,0.0,0.0,0.0,0.0,0.0,0.0,0.0,0.0,0.0,0.0,0.0,0.0,0.0,0.0,0.0,0.0,0.0,0.0,0.0,0.0,0.0,0.0,0.0,0.0,0.0,0.0,0.0,0.0,0.0,0.0,0.0,0.0,0.0,0.0,0.0,0.0,0.0,0.0,0.0,0.0,0.0,0.0,0.0,0.0,0.0,0.0,0.0,0.0,0.0,0.0,0.0,0.0,0.0,0.0,0.0,0.0,0.0,0.0,0.0,0.0,0.0,0.0,0.0,0.0,0.0,0.0,0.0,0.0,0.0,0.0,0.0,0.0,0.0,0.0,0.0,0.0,0.0,0.0,0.0,0.0,0.0,0.0,0.0,0.0,0.0,0.0,0.0,0.0,0.0,0.0,0.0,0.0,1.0128,1.0525,1.0242,0.8697,0.8332,0.7864,0.7012,0.6348,0.5613,0.4719,0.0,0.0,0.0,0.0,0.0,0.0,0.0,0.0,0.0,0.0,0.0,0.0,0.0,0.0,0.0,0.0,0.0,0.0,0.0,0.0,0.0,0.0,0.0,0.0,0.0,0.0,0.0,0.0,0.0,0.0,0.0,0.0,0.0,0.0,0.0,0.0,0.0,0.0,0.0,0.0,0.0,0.0,0.0,0.0,0.0,0.0,0.0,0.0,0.0,0.0,0.0,0.0,0.0,0.0,0.0,0.0,0.0,0.0,0.0,0.0,0.0,0.0,0.0,0.0,0.0,0.0,0.0,0.0,0.0,0.0,0.0,0.0,0.0,0.0,0.0,0.0,0.0,0.0,0.0,0.0,0.0,0.0,0.0,0.0,0.0,0.0,0.0,0.0,0.0,0.0,0.0,0.0,0.0,0.0,0.0,0.0,0.0,0.0,0.0,0.0,0.0,0.0,0.8322,0.8536,0.8476,0.8048,0.7286,0.6745,0.6553,0.5794,0.4903,0.3914,0.0,0.0,0.0,0.0,0.0,0.0,0.0,0.0,0.0,0.0,0.0,0.0,0.0,0.0,0.0,0.0,0.0,0.0,0.0,0.0,0.0,0.0,0.0,0.0,0.0,0.0,0.0,0.0,0.0,0.0,0.0,0.0,0.0,0.0,0.0,0.0,0.0,0.0,0.0,0.0,0.0,0.0,0.0,0.0,0.0,0.0,0.0,0.0,0.0,0.0,0.0,0.0,0.0,0.0,0.0,0.0,0.0,0.0,0.0,0.0,-1.7195,-1.636,0.0,0.0,0.0,0.0,0.0,0.0,0.0,0.0,0.0,0.0,0.0,0.0,0.0,0.0,0.0,0.0,0.0,0.0,0.0,0.0,0.0,0.0,0.0,0.0,0.0,0.0,0.0,0.0,0.0,0.0,0.0,0.0,0.0,0.0,0.0,0.0,0.0,0.0,0.0,0.0,0.5751,0.6417,0.6565,0.5788,0.5548,0.539,0.5286,0.4548,0.369,0.2807,0.1778,0.0,0.0,0.0,0.0,0.0,0.0,0.0,0.0,0.0,0.0,0.0,0.0,0.0,0.0,0.0,0.0,0.0,0.0,0.0,0.0,0.0,0.0,0.0,0.0,0.0,0.0,0.0,0.0,0.0,0.0,0.0,0.0,0.0,0.0,0.0,0.0,0.0,0.0,0.0,0.0,0.0,0.0,0.0,0.0,0.0,0.0,0.0,0.0,0.0,0.0,0.0,0.0,0.0,0.0,0.0,0.0,0.0,0.0,0.0,-1.6203,-1.5757,0.0,0.0,0.0,0.0,0.0,0.0,0.0,0.0,0.0,0.0,0.0,0.0,0.0,0.0,0.0,0.0,0.0,0.0,0.0,0.0,0.0,0.0,0.0,0.0,0.0,0.0,0.0,0.0,0.0,0.0,0.0,0.0,0.0,0.0,0.0,0.0,0.0,0.0,0.0,0.0,0.3114,0.4051,0.456,0.4401,0.4289,0.4257,0.4329,0.3466,0.2579,0.1772,0.0554,0.0,0.0,0.0,0.0,0.0,0.0,0.0,0.0,0.0,0.0,0.0,0.0,0.0,0.0,0.0,0.0,0.0,0.0,0.0,0.0,0.0,0.0,0.0,0.0,0.0,0.0,0.0,0.0,0.0,0.0,0.0,0.0,0.0,0.0,0.0,0.0,0.0,0.0,0.0,0.0,0.0,0.0,0.0,0.0,0.0,0.0,0.0,0.0,0.0,0.0,0.0,0.0,0.0,-1.1698,-1.2862,-1.3328,-1.5609,-1.5658,-1.4004,-1.4379,-1.4479,-1.4158,-1.1784,0.0,0.0,0.0,0.0,0.0,0.0,0.0,0.0,0.0,0.0,0.0,0.0,0.0,0.0,0.0,0.0,0.0,0.0,0.0,0.0,0.0,0.0,-2.7809,-2.7513,-2.8067,-2.8331,-2.7328,0.0,0.0,0.0,0.0,0.0,0.0,0.0,0.0,0.0,0.0,0.0,0.0469,0.1676,0.2567,0.299,0.3081,0.315,0.3193,0.2402,0.1577,0.083,-0.0669,-0.2443,0.0,0.0,0.0,0.0,0.0,0.0,0.0,0.0,0.0,0.0,0.0,0.0,0.0,0.0,0.0,0.0,0.0,0.0,0.0,0.0,0.0,0.0,0.0,0.0,0.0,0.0,0.0,0.0,0.0,0.0,0.0,0.0,0.7995,0.6785,0.0,0.0,0.0,0.0,0.0,0.0,0.0,0.0,0.0,0.0,0.0,0.0,0.0,-0.9968,-0.9458,-0.9392,-0.9919,-1.0968,-1.1676,-1.211,-1.2314,-1.3178,-1.2696,-1.1165,-1.1682,0.0,-1.3241,-1.1508,0.0,0.0,0.0,0.0,0.0,0.0,0.0,0.0,0.0,0.0,0.0,0.0,0.0,0.0,0.0,0.0,0.0,0.0,0.0,0.0,0.0,0.0,-2.9363,-2.927,-2.9574,-2.9861,-2.9876,-2.7431,-2.4958,-2.4093,-2.1854,-1.9394,0.0,0.0,0.0,0.0,0.0,0.0,-0.212,-0.033,0.0696,0.0432,0.1366,0.1776,0.1229,0.1161,0.078,-0.0075,-0.152,-0.3238,-0.5267,-0.7048,0.0,0.0,0.0,0.0,0.0,0.0,0.0,0.0,0.0,0.0,0.0,0.0,0.0,0.0,0.0,0.0,0.0,0.0,0.0,0.0,0.0,0.0,0.0,0.0,0.0,0.0,0.0,0.0,0.0,0.8828,0.8629,0.6757,0.5135,0.2977,0.0,0.0,0.0,0.0,0.0,0.0,0.0,0.0,0.0,-1.329,-1.1853,-1.0621,-0.96,-0.9671,-0.9776,-0.9918,-1.0464,-1.0752,-1.0833,-1.1517,-1.1206,-1.0163,-1.0079,-0.9986,-0.9859,-0.9778,-0.9707,-0.96,0.0,0.0,0.0,0.0,-0.647,-0.5413,-0.4569,-0.4086,-0.3832,-0.3781,0.0,0.0,0.0,0.0,0.0,0.0,0.0,-2.5861,-2.7271,-2.8276,-2.9045,-2.9589,-2.9859,-2.9916,-2.9679,-2.8099,-2.6696,-2.6529,-2.4014,-2.1439,-2.0014,-1.7044,0.0,0.0,0.0,-0.6037,-0.4061,-0.2271,-0.1069,-0.0754,0.0049,0.0542,0.0469,0.0131,-0.0319,-0.0946,-0.2399,-0.4009,-0.5765,-0.7734,-0.9606,0.0,0.0,0.0,0.0,0.0,0.0,0.0,0.0,0.0,0.0,0.0,0.0,0.0,0.0,0.0,0.0,0.0,0.0,0.0,0.0,0.0,0.0,0.0,0.0,0.0,0.0,0.0,0.0,0.9105,0.8592,0.6729,0.5035,0.2913,0.0,0.0,0.0,0.0,0.0,0.0,-1.5436,-1.5529,-1.4883,-1.3447,-1.223,-1.0884,-0.9385,-0.9349,-0.9011,-0.8394,-0.8782,-0.8906,-0.8813,-0.9131,-0.8873,-0.8188,-0.7675,-0.7124,-0.6715,-0.8008,-0.8646,-0.878,-0.8717,-0.834,-0.7712,-0.7109,-0.5845,-0.4258,-0.3217,-0.2784,-0.2688,-0.2635,-0.4692,-0.7516,-0.9405,0.0,0.0,0.0,0.0,-2.5371,-2.6688,-2.7579,-2.8291,-2.9022,-2.9255,-2.919,-2.8758,-2.7877,-2.7239,-2.7466,-2.5074,-2.2624,-2.1466,-1.8661,0.0,-1.2859,-1.0271,-0.7835,-0.5621,-0.3774,-0.2517,-0.2089,-0.1292,-0.0734,-0.0625,-0.0995,-0.1362,-0.1654,-0.3179,-0.4678,-0.6066,-0.8158,-1.0116,-1.1837,0.0,0.0,0.0,0.0,0.0,0.0,0.0,0.0,0.0,0.0,0.0,0.0,0.0,0.0,0.0,0.0,0.0,0.0,0.0,0.0,0.0,0.0,0.0,0.0,0.0,0.0,0.0,0.0,0.0,0.6614,0.4137,0.0,0.0,0.0,0.0,-0.8778,-1.0735,-1.2502,-1.4123,-1.4783,-1.4432,-1.2886,-1.2222,-1.0971,-0.9048,-0.8409,-0.7714,-0.6994,-0.6783,-0.647,-0.6074,-0.5208,-0.4492,-0.3884,-0.342,-0.3793,-0.4885,-0.6842,-0.7728,-0.7889,-0.8147,-0.7702,-0.6976,-0.7058,-0.5502,-0.3178,-0.1785,-0.1318,-0.1336,-0.153,-0.5047,-0.973,-1.2367,-1.6017,0.0,0.0,-2.3331,-2.5457,-2.6161,-2.6939,-2.7551,-2.7521,-2.7618,-2.7722,-2.7759,-2.6542,-2.5476,-2.5608,-2.4219,-2.2433,-2.0667,0.0,-1.667,-1.3853,-1.1196,-0.8809,-0.6783,-0.4551,-0.346,-0.425,-0.2838,-0.2094,-0.2783,-0.2407,-0.2152,-0.2169,-0.3798,-0.5192,-0.6166,-0.8206,-1.0164,-1.2038,-1.3507,0.0,0.0,0.0,0.0,0.0,0.0,0.0,0.0,0.0,0.0,0.0,0.0,0.0,0.0,0.0,0.0,0.0,0.0,0.0,0.0,0.0,0.0,0.0,0.0,0.0,0.0,0.0,0.0,0.669,0.4535,0.0,0.0461,-0.2417,-0.5049,-0.723,-0.934,-1.093,-1.1851,-1.2351,-1.1976,-1.0648,-1.0078,-0.9348,-0.8433,-0.7928,-0.7289,-0.65,-0.5665,-0.5007,-0.4459,-0.3558,-0.2873,-0.2351,-0.1787,-0.2119,-0.3103,-0.3679,-0.5136,-0.6938,-0.6782,-0.6578,-0.6212,-0.4753,-0.3178,-0.1616,-0.0193,0.0365,0.0066,-0.2323,-0.5227,-0.838,-1.1486,-1.4592,-1.7555,-2.0034,-2.2188,-2.4041,-2.534,-2.6216,-2.6905,-2.7366,-2.7504,-2.7409,-2.6906,-2.5939,-2.4873,-2.3888,-2.2832,-2.174,-2.0566,-1.878,-1.6567,-1.3797,-1.189,-0.9859,-0.7314,-0.5833,-0.4901,-0.4653,-0.3616,-0.3032,-0.3302,-0.3104,-0.2876,-0.2666,-0.3835,-0.4695,-0.5031,-0.7029,-0.8799,-1.0198,-1.2278,-1.4349,0.0,0.0,0.0,0.0,0.0,0.0,0.0,0.0,0.0,0.0,0.0,0.0,0.0,0.0,0.0,0.0,0.0,0.0,0.0,0.0,0.0,0.0,0.0,0.0,0.0,0.7015,0.6894,0.6242,0.4613,0.281,0.0974,-0.1572,-0.3821,-0.5501,-0.753,-0.8899,-0.9404,-0.9855,-0.9556,-0.8359,-0.7931,-0.7374,-0.665,-0.5845,-0.5084,-0.4373,-0.3064,-0.2164,-0.1621,-0.0807,-0.0276,0.0046,0.0486,-0.0067,-0.1301,-0.1444,-0.3074,-0.5477,-0.5347,-0.5201,-0.4826,-0.2876,-0.1469,-0.0412,0.0649,0.0958,0.032,-0.3192,-0.5469,-0.74,-1.0612,-1.3341,-1.5907,-1.8651,-2.0695,-2.2426,-2.4069,-2.5043,-2.5776,-2.6548,-2.6727,-2.6504,-2.5658,-2.4866,-2.3892,-2.2546,-2.1683,-2.081,-1.969,-1.8133,-1.613,-1.3368,-1.1983,-1.0273,-0.7514,-0.6459,-0.5651,-0.4817,-0.4296,-0.3938,-0.379,-0.3793,-0.3672,-0.3384,-0.4207,-0.4861,-0.5217,-0.6771,-0.8253,-0.9563,-1.2482,-1.518,-1.7665,0.0,0.0,0.0,0.0,0.0,0.0,0.0,0.0,0.0,0.0,0.0,0.0,0.0,0.0,0.0,0.0,0.0,0.0,0.0,0.0,0.0,0.0,0.0,0.4632,0.5878,0.6178,0.5224,0.4218,0.3023,0.1557,-0.0484,-0.2307,-0.3723,-0.5286,-0.6357,-0.6751,-0.7372,-0.7229,-0.6086,-0.5901,-0.5135,-0.3719,-0.214,-0.1085,-0.0544,0.105,0.2042,0.2453,0.3141,0.3454,0.3473,0.3616,0.2496,0.0527,-0.0282,-0.1728,-0.3493,-0.3892,-0.3604,-0.2837,-0.1697,-0.0582,0.0395,0.0771,0.045,-0.0664,-0.3894,-0.5701,-0.7158,-1.0077,-1.2581,-1.4866,-1.7083,-1.8999,-2.0787,-2.2424,-2.3408,-2.4168,-2.4945,-2.5122,-2.4885,-2.4033,-2.3233,-2.2432,-2.1653,-2.0812,-1.9699,-1.7997,-1.6957,-1.5445,-1.2721,-1.1539,0.0,-0.7452,-0.6409,-0.5633,-0.4883,-0.4922,-0.4822,-0.4367,-0.4507,-0.4532,-0.4317,-0.4941,-0.5761,-0.685,-0.7533,-0.8699,-1.041,-1.4204,-1.7725,-2.1068,0.0,0.0,0.0,0.0,0.0,0.0,0.0,0.0,0.0,0.0,0.0,0.0,0.0,0.0,0.0,0.0,0.0,0.0,0.0,0.0,0.0,-0.0139,0.1488,0.3997,0.4726,0.5064,0.5227,0.4309,0.3211,0.2021,0.0549,-0.0824,-0.1924,-0.3145,-0.3801,-0.3712,-0.3978,-0.3713,-0.2829,-0.2339,-0.1917,-0.1563,-0.0583,0.0071,0.0421,0.1658,0.2564,0.322,0.4049,0.4593,0.4943,0.5222,0.4222,0.2334,0.1675,-0.0105,-0.2457,-0.2917,-0.2808,-0.2275,-0.1032,0.0098,0.101,0.0813,-0.0058,-0.1395,-0.3084,-0.5166,-0.7444,-0.9687,-1.2245,-1.4856,-1.7074,-1.9005,-2.0657,-2.1745,-2.2621,-2.3253,-2.3424,-2.3419,-2.3323,-2.3073,-2.2354,-2.1704,-2.1526,-1.9872,-1.8333,-1.7857,-1.6528,-1.4843,-1.2823,-1.1236,-0.9575,-0.7642,-0.6603,-0.5751,-0.496,-0.5118,-0.5174,-0.4904,-0.502,-0.4982,-0.4672,-0.4973,-0.5556,-0.6422,-0.729,-0.9106,-1.1934,-1.4757,-1.7396,0.0,0.0,0.0,0.0,0.0,0.0,0.0,0.0,0.0,0.0,0.0,0.0,0.0,0.0,0.0,0.0,0.0,0.0,0.0,0.0,0.0,0.0,-0.0611,0.0838,0.2963,0.3866,0.4373,0.453,0.4005,0.3185,0.2117,0.1089,0.0133,-0.0723,-0.16,-0.1934,-0.1527,-0.1657,-0.1269,-0.0234,0.0209,0.0607,0.0969,0.205,0.2702,0.2956,0.4171,0.4902,0.5185,0.558,0.5804,0.5872,0.578,0.483,0.3218,0.2119,0.0364,-0.1663,0.0,0.0,0.0,0.0,0.0097,0.0615,-0.0,-0.0919,-0.2049,-0.3405,-0.5531,-0.7896,-0.9872,-1.2111,-1.4428,-1.657,-1.823,-1.9648,-2.0879,-2.1789,-2.2481,-2.2774,-2.278,-2.2651,-2.2315,-2.152,-2.0811,-2.0512,-1.8725,0.0,-1.7291,-1.5874,-1.4269,-1.285,-1.1462,-0.9847,-0.7812,-0.707,-0.6381,-0.5451,-0.5365,-0.5414,-0.5541,-0.5318,0.0,0.0,0.0,-0.6095,-0.7458,-0.8841,0.0,0.0,0.0,-1.7843,-2.0639,-2.3057,0.0,0.0,-3.0117,-3.0943,0.0,0.0,0.0,0.0,0.0,0.0,0.0,0.0,0.0,0.0,0.0,0.0,0.0,0.0,0.0,0.0,-0.0691,0.0408,0.1875,0.321,0.3901,0.3513,0.3439,0.3,0.2007,0.1363,0.0705,0.0,-0.0491,-0.0543,0.0,-0.0027,0.0,0.0,0.0,0.2771,0.3639,0.5064,0.5906,0.6125,0.7369,0.7826,0.7539,0.7311,0.6953,0.6497,0.5878,0.4899,0.3574,0.1805,0.0191,-0.1204,-0.1521,-0.1871,-0.2073,-0.0951,-0.0435,-0.0414,-0.1258,0.0,0.0,-0.4424,-0.6475,-0.8636,-1.0518,-1.2314,-1.4087,-1.5908,-1.7201,-1.8398,-1.9957,-2.0963,-2.172,-2.234,-2.2508,-2.2277,-2.1371,-2.0597,-1.9838,-1.902,-1.7595,-1.6521,-1.6596,-1.5131,-1.3664,-1.2834,-1.1725,-1.0158,-0.789,-0.7422,-0.6963,-0.6077,-0.5634,0.0,-0.6177,-0.5588,-0.5518,-0.629,-0.6457,-0.7389,-0.9379,-1.1336,-1.3108,-1.4625,-1.6114,-1.8574,-2.2014,-2.3288,-2.5222,-2.7763,-2.9637,-3.0871,0.0,0.0,0.0,0.0,0.0,0.0,0.0,0.0,0.0,0.0,0.0,0.0,0.0,0.0,0.0,-0.0529,0.016,0.0872,0.1875,0.2677,0.3174,0.3254,0.2965,0.2574,0.2033,0.1723,0.1194,0.0364,0.0558,0.0706,0.0786,0.1633,0.2562,0.3569,0.4557,0.529,0.5811,0.657,0.7103,0.7361,0.7577,0.0,0.7918,0.7842,0.7637,0.7273,0.7043,0.5965,0.4298,0.2746,0.0645,-0.1644,-0.2294,-0.2183,-0.1628,-0.1432,-0.1451,-0.158,-0.1822,-0.2746,-0.4004,-0.5051,-0.7459,-1.0151,-1.123,-1.3476,0.0,-1.6396,-1.7713,-1.9036,-1.9428,-2.0124,-2.0581,-2.0055,-2.0399,-2.0443,-1.8877,-1.8943,-1.907,-1.8271,-1.7284,-1.6603,-1.6676,-1.4669,-1.2991,-1.2803,-1.023,-0.8164,-0.7672,-0.6382,-0.5607,-0.5884,-0.5941,-0.6061,-0.6336,-0.6366,-0.6447,-0.6606,-0.8512,-1.0049,-1.1022,-1.2961,-1.4513,-1.5521,-1.6736,-1.825,-2.0124,-2.1926,-2.3498,-2.4854,-2.7782,-2.9401,0.0,0.0,0.0,0.0,0.0,0.0,0.0,0.0,0.0,0.0,0.0,-0.2476,-0.1897,0.0,-0.0642,0.043,0.1104,0.1716,0.2321,0.2597,0.2723,0.2646,0.2498,0.2159,0.1519,0.1201,0.0875,0.0424,0.0627,0.099,0.1507,0.2182,0.3151,0.4501,0.5225,0.6062,0.7036,0.7516,0.8108,0.8794,0.8585,0.8546,0.8645,0.8335,0.7899,0.7332,0.7141,0.5941,0.3972,0.1655,-0.0325,-0.1972,-0.2792,-0.265,-0.2037,-0.2298,-0.2448,-0.2555,-0.2961,-0.3939,-0.5142,-0.6018,-0.844,-1.1134,-1.1809,-1.3731,-1.5738,-1.5947,-1.6943,-1.8061,-1.8533,-1.8911,-1.9205,-1.9202,-1.9177,-1.8904,-1.8037,-1.7842,-1.773,-1.7334,-1.6561,-1.6003,-1.5992,-1.4218,-1.2787,-1.2768,-1.0531,-0.8667,-0.8174,-0.6988,-0.6397,-0.6893,-0.6227,-0.6076,-0.6876,-0.6789,-0.6836,-0.719,-0.8985,-1.0428,-1.1317,-1.3163,-1.4675,-1.5659,-1.6738,-1.8059,-1.9614,-2.0615,-2.1698,-2.2948,-2.4477,-2.5986,0.0,0.0,0.0,0.0,0.0,0.0,0.0,-0.2933,-0.2725,-0.2465,-0.2095,-0.1628,-0.1031,-0.0299,0.0467,0.1298,0.1966,0.2518,0.2861,0.2874,0.268,0.2321,0.2093,0.1687,0.0973,0.0592,0.0378,0.0307,0.0416,0.0938,0.1958,0.226,0.3224,0.4947,0.5324,0.6218,0.7655,0.8084,0.876,0.9722,0.9446,0.9272,0.9197,0.8695,0.7984,0.7088,0.6405,0.4941,0.2899,0.0202,-0.1389,-0.2179,-0.2941,-0.3008,-0.2724,-0.3203,-0.326,-0.3242,-0.4122,-0.5104,-0.612,-0.703,-0.9313,-1.1807,-1.2236,-1.3695,-1.5237,-1.5377,-1.6034,-1.6851,-1.7578,-1.7828,-1.8093,-1.8802,-1.8423,-1.7866,-1.7705,-1.7123,-1.6564,-1.6403,-1.5832,-1.5332,-1.5117,-1.3804,-1.2762,-1.2683,-1.1047,-0.9475,-0.8479,-0.7614,-0.7212,-0.7502,-0.6331,-0.6052,-0.7344,-0.7061,-0.7082,-0.7631,-0.8839,-1.0007,-1.1071,-1.2706,-1.4156,-1.5402,-1.623,-1.744,-1.9092,-1.9139,-1.9797,-2.1017,-2.0917,-2.2303,-0.2065,-0.293,-0.318,-0.3184,-0.272,-0.2348,0.0,-0.2338,-0.1605,-0.1035,-0.0904,-0.0569,0.0301,0.0735,0.1236,0.2037,0.2537,0.2942,0.3289,0.3508,0.3479,0.2974,0.1905,0.1145,0.0923,0.059,0.0275,-0.0031,0.0515,0.1092,0.1632,0.218,0.3261,0.4957,0.5618,0.6484,0.7607,0.8252,0.8742,0.91,0.9056,0.8983,0.8859,0.8787,0.8075,0.6795,0.4502,0.257,0.094,-0.0175,-0.1209,-0.2135,-0.2526,-0.2941,-0.3351,-0.3832,-0.3662,-0.3396,-0.4778,-0.585,-0.6778,-0.7817,-0.9969,-1.2186,-1.2488,-1.3837,-1.5294,-1.5377,-1.6036,-1.6728,-1.6815,-1.7402,-1.8008,-1.8105,-1.8005,-1.7708,-1.6986,-1.6751,-1.6457,-1.5677,-1.5469,-1.5147,-1.4375,-1.3392,-1.2699,-1.262,-1.0475,-0.8517,-0.7571,-0.6635,-0.6016,-0.588,-0.5962,-0.6341,-0.7173,-0.7276,-0.7379,-0.752,-0.8594,-0.9728,-1.0804,-1.183,-1.3142,-1.4763,-1.4977,-1.5779,-1.7197,-1.7152,-1.7498,-1.8256,-1.8225,-1.9878,-0.0241,-0.1037,-0.1134,-0.2087,-0.2124,-0.1819,-0.1524,-0.0967,-0.0367,0.0133,0.0467,0.081,0.122,0.1571,0.1926,0.2304,0.2764,0.3143,0.3321,0.3648,0.3616,0.2947,0.2387,0.1832,0.1283,0.0807,0.0471,0.0358,0.065,0.1076,0.1573,0.2199,0.3097,0.4307,0.5109,0.6115,0.7371,0.7796,0.8462,0.9292,0.894,0.879,0.8847,0.829,0.7446,0.6301,0.3807,0.2276,0.1384,-0.018,-0.12,-0.1836,-0.2626,-0.2967,-0.3061,-0.356,-0.3837,-0.4032,-0.4566,-0.5759,-0.7141,-0.7659,-0.9603,-1.1851,-1.2464,-1.3571,-1.471,-1.5257,-1.567,-1.606,-1.6573,-1.6593,-1.6611,-1.7123,-1.6832,-1.6344,-1.6014,-1.5936,-1.5817,-1.5425,-1.5348,-1.5065,-1.4183,-1.326,-1.2454,-1.1858,-1.0364,-0.8935,-0.7952,-0.7073,-0.6258,-0.5508,-0.5684,-0.6103,-0.6686,-0.6584,-0.6807,-0.7572,-0.8021,-0.8869,-1.0226,-1.1071,-1.2084,-1.3337,-1.3771,-1.4308,-1.4981,-1.5182,-1.5609,-1.6162,-1.6416,-1.7413,0.119,0.0451,0.0127,-0.1037,-0.1228,-0.0939,-0.0226,0.0325,0.0848,0.1359,0.1816,0.2099,0.2121,0.2237,0.2299,0.2205,0.2545,0.2895,0.2993,0.3454,0.3573,0.2914,0.2736,0.2428,0.1897,0.131,0.0988,0.1021,0.1164,0.1459,0.1894,0.2424,0.3093,0.4007,0.4728,0.5701,0.6919,0.7327,0.8047,0.9151,0.8716,0.8519,0.854,0.7367,0.6257,0.518,0.3288,0.2077,0.1381,-0.0232,-0.1162,-0.167,-0.2605,-0.2912,-0.2848,-0.3246,-0.3787,-0.4346,-0.4673,-0.5856,-0.7279,-0.7713,-0.9451,-1.1499,-1.2164,-1.3001,-1.3915,-1.4797,-1.5047,-1.5236,-1.6112,-1.5869,-1.5587,-1.6469,-1.6013,-1.5446,-1.5676,-1.5539,-1.5358,-1.5314,-1.53,-1.495,-1.3833,-1.3065,-1.2208,-1.1015,-1.0001,-0.9017,-0.8026,-0.6882,-0.5923,-0.5263,-0.5302,-0.5629,-0.6284,-0.6041,-0.6301,-0.7356,-0.7379,-0.7946,-0.9238,-0.9829,-1.0671,-1.1893,-1.2359,-1.2825,-1.3315,-1.3515,-1.3884,-1.429,-1.4644,-1.5057,0.1895,0.0723,-0.0561,-0.0609,-0.0149,0.0414,0.0706,0.1242,0.1912,0.2769,0.2992,0.3075,0.3128,0.2735,0.2245,0.1709,0.1784,0.2045,0.23,0.3005,0.3379,0.3033,0.2714,0.2578,0.2744,0.2198,0.1866,0.1864,0.2171,0.2482,0.2754,0.2834,0.3337,0.4371,0.4719,0.5351,0.6217,0.697,0.7612,0.8259,0.8211,0.8023,0.7686,0.5964,0.4484,0.3259,0.2594,0.1464,0.0031,-0.0428,-0.1088,-0.1838,-0.2252,-0.2707,-0.3086,-0.3103,-0.3418,-0.4029,-0.5534,-0.6459,-0.7201,-0.8372,-0.9917,-1.1323,-1.1483,-1.2148,-1.3025,-1.3882,-1.4149,-1.4334,-1.5214,-1.5368,-1.5516,-1.6405,-1.5946,-1.5524,-1.6386,-1.5896,-1.5297,-1.529,-1.5303,-1.4747,-1.303,-1.2666,-1.1989,-1.0207,-0.9143,-0.8199,-0.7256,-0.5355,-0.4302,-0.4845,-0.4689,-0.4988,-0.6118,-0.607,-0.6214,-0.6705,-0.6736,-0.7039,-0.7731,-0.7846,-0.8765,-1.0608,-1.061,-1.1225,-1.2538,-1.2354,-1.2352,-1.2493,-1.276,-1.2899,0.1643,0.1036,0.0723,0.0987,0.139,0.1968,0.2924,0.3518,0.4106,0.4826,0.4878,0.4532,0.384,0.2971,0.2041,0.1089,0.098,0.1023,0.0906,0.1533,0.1927,0.1758,0.2084,0.2333,0.2321,0.2099,0.2136,0.2578,0.2768,0.2939,0.3046,0.345,0.3911,0.44,0.4837,0.5366,0.5918,0.6162,0.6713,0.7558,0.7558,0.6982,0.5919,0.4924,0.3797,0.262,0.1593,0.0694,-0.0181,-0.1011,-0.1599,-0.2037,-0.2529,-0.2689,-0.2698,-0.3134,-0.3265,-0.3397,-0.4806,-0.5731,-0.6516,-0.7943,-0.8957,-0.9872,-1.1077,-1.169,-1.2187,-1.3005,-1.3232,-1.3432,-1.4259,-1.4457,-1.4631,-1.5413,-1.538,-1.5247,-1.5476,-1.4882,-1.4294,-1.4304,-1.3875,-1.3147,-1.1974,-1.1719,-1.1232,-0.9968,-0.8557,-0.7227,-0.6126,-0.4859,-0.408,-0.4093,-0.3905,-0.4012,-0.463,-0.475,-0.5125,-0.5859,-0.5959,-0.6408,-0.7401,-0.7279,-0.7872,-0.9302,-0.9315,-0.9705,-1.0503,-1.0853,-1.103,-1.1083,-1.167,-1.1949,0.2125,0.2274,0.2751,0.3247,0.3663,0.4235,0.525,0.5873,0.6348,0.6839,0.6576,0.5912,0.464,0.3297,0.1957,0.0562,0.0257,0.0126,-0.0084,0.0482,0.09,0.0834,0.1329,0.1779,0.206,0.2021,0.2385,0.3278,0.3356,0.3486,0.3659,0.3989,0.424,0.4345,0.4611,0.489,0.5281,0.5315,0.5787,0.6683,0.6628,0.607,0.4957,0.4252,0.3252,0.2044,0.1129,0.0286,-0.0468,-0.1325,-0.1774,-0.1992,-0.2405,-0.2469,-0.2353,-0.2786,-0.29,-0.3031,-0.4296,-0.527,-0.6145,-0.7186,-0.802,-0.8857,-1.0117,-1.0584,-1.0976,-1.2397,-1.2771,-1.3017,-1.4105,-1.4352,-1.4442,-1.4908,-1.4992,-1.4886,-1.4599,-1.4137,-1.3684,-1.3428,-1.293,-1.2282,-1.1403,-1.0996,-1.0433,-0.9463,-0.8118,-0.6916,-0.6039,-0.4805,-0.3918,-0.3728,-0.3482,-0.3439,-0.3729,-0.3896,-0.4348,-0.5161,-0.5309,-0.5785,-0.6644,-0.6614,-0.7023,-0.7933,-0.7957,-0.8205,-0.875,-0.9131,-0.9363,-0.9401,-1.0107,-1.0448,0.3395,0.4326,0.5265,0.5942,0.6526,0.7067,0.7615,0.8146,0.8572,0.8662,0.8099,0.7058,0.5439,0.375,0.2016,0.0235,-0.0286,-0.0525,-0.0668,-0.0048,0.0382,0.0333,0.062,0.1143,0.1942,0.206,0.2597,0.3936,0.3931,0.4085,0.4489,0.4382,0.4341,0.433,0.4062,0.4066,0.4313,0.4525,0.4971,0.5636,0.5615,0.5265,0.4714,0.3917,0.2832,0.1551,0.1093,0.0246,-0.0831,-0.1335,-0.1562,-0.1677,-0.1879,-0.196,-0.2001,-0.2047,-0.2355,-0.2886,-0.3992,-0.507,-0.601,-0.6238,-0.718,-0.8326,-0.8767,-0.8965,-0.957,-1.1992,-1.262,-1.2916,-1.4478,-1.483,-1.4763,-1.481,-1.4719,-1.4448,-1.3815,-1.3622,-1.3353,-1.2666,-1.2431,-1.2097,-1.1251,-1.048,-0.9692,-0.8787,-0.7879,-0.7181,-0.6865,-0.5052,-0.3773,-0.3661,-0.3362,-0.3245,-0.3405,-0.348,-0.3825,-0.4541,-0.4776,-0.5055,-0.5489,-0.5738,-0.6078,-0.6517,-0.6549,-0.6814,-0.7348,-0.7371,-0.744,-0.7577,-0.8168,-0.8487,0.5345,0.6169,0.6859,0.7479,0.8166,0.8836,0.946,0.9953,1.0221,1.01,0.9189,0.787,0.615,0.3991,0.2045,0.0768,0.0239,-0.0149,-0.0545,-0.0101,0.0456,0.0767,0.1073,0.155,0.2284,0.2633,0.3228,0.4139,0.4146,0.421,0.44,0.4541,0.4633,0.4726,0.4538,0.4513,0.4685,0.4981,0.5096,0.5019,0.5265,0.4739,0.3609,0.3208,0.235,0.1232,0.088,0.0263,-0.0517,-0.0483,-0.0659,-0.0952,-0.1127,-0.1014,-0.0853,-0.1481,-0.1778,-0.2019,-0.3351,-0.4065,-0.4609,-0.5939,-0.6876,-0.7642,-0.8493,-0.9252,-0.9959,-1.0666,-1.0787,-1.0914,-1.1935,-1.2549,-1.3008,-1.3512,-1.361,-1.3534,-1.3362,-1.2454,-1.1648,-1.1515,-1.0936,-1.0395,-1.0068,-0.9924,-0.9757,-0.9456,-0.8215,-0.693,-0.5918,-0.4712,-0.3716,-0.31,-0.2861,-0.2656,-0.2405,-0.2399,-0.2599,-0.3026,-0.3156,-0.3492,-0.4079,-0.4221,-0.4638,-0.5392,-0.5752,-0.6156,-0.6585,-0.7034,-0.7244,-0.7233,-0.7588,-0.7888,0.7383,0.8336,0.9146,0.9753,1.0369,1.0923,1.1268,1.1659,1.1755,1.1024,0.9854,0.8413,0.6625,0.4548,0.2758,0.1679,0.119,0.0738,0.021,0.0589,0.1015,0.1388,0.1795,0.2325,0.3053,0.334,0.3772,0.4486,0.4378,0.4497,0.4873,0.4843,0.4905,0.506,0.4666,0.4483,0.4583,0.484,0.4879,0.4709,0.4705,0.4268,0.3483,0.2946,0.2188,0.1386,0.1074,0.067,0.0178,0.0166,0.0079,-0.0039,-0.0143,-0.0165,-0.0183,-0.0772,-0.117,-0.1614,-0.3099,-0.3869,-0.4425,-0.5844,-0.6899,-0.7726,-0.8398,-0.9065,-0.9726,-1.0472,-1.0848,-1.1173,-1.1918,-1.2595,-1.3154,-1.3437,-1.3257,-1.2943,-1.2608,-1.1632,-1.0746,-1.0495,-0.9987,-0.9531,-0.9224,-0.9301,-0.926,-0.8803,-0.7737,-0.6545,-0.5293,-0.4449,-0.3738,-0.3166,-0.2771,-0.2396,-0.199,-0.1774,-0.1713,-0.1881,-0.2036,-0.2406,-0.3047,-0.3245,-0.3611,-0.4146,-0.4807,-0.5242,-0.5461,-0.6106,-0.6404,-0.6404,-0.6605,-0.6845,0.9355,1.0449,1.1497,1.2132,1.2616,1.2925,1.2854,1.3076,1.2874,1.1514,1.0204,0.8763,0.7001,0.5352,0.3913,0.2933,0.2433,0.2003,0.1502,0.1781,0.2057,0.227,0.2746,0.3321,0.404,0.4126,0.44,0.4905,0.484,0.4989,0.5464,0.5257,0.5154,0.5335,0.4709,0.4405,0.4479,0.4525,0.46,0.4609,0.4196,0.3924,0.3836,0.2993,0.2368,0.1919,0.1611,0.1336,0.11,0.0926,0.0924,0.1034,0.0949,0.0675,0.0275,-0.0057,-0.0639,-0.152,-0.3063,-0.4159,-0.5016,-0.5916,-0.7076,-0.8196,-0.8432,-0.8753,-0.9342,-1.0737,-1.1591,-1.2247,-1.2788,-1.3436,-1.3886,-1.3616,-1.3049,-1.2388,-1.1676,-1.0962,-1.0294,-0.97,-0.9446,-0.9161,-0.8658,-0.8557,-0.821,-0.7192,-0.6364,-0.5395,-0.4133,-0.3849,-0.3583,-0.3157,-0.249,-0.1898,-0.1481,-0.1067,-0.0823,-0.0795,-0.1012,-0.1408,-0.2025,-0.2302,-0.2576,-0.2829,-0.3682,-0.4188,-0.4303,-0.4981,-0.5363,-0.5492,-0.5603,-0.5734,1.0783,1.1595,1.2281,1.3059,1.3482,1.3701,1.3686,1.3463,1.2874,1.1617,1.0315,0.9046,0.7866,0.6409,0.525,0.4883,0.4485,0.3993,0.339,0.3729,0.3969,0.3856,0.4243,0.4647,0.501,0.5384,0.5672,0.579,0.6027,0.5962,0.5594,0.558,0.5549,0.5542,0.5384,0.531,0.5351,0.5069,0.4843,0.4671,0.4479,0.4144,0.3653,0.335,0.2996,0.2551,0.237,0.2275,0.2312,0.2492,0.2449,0.2291,0.2207,0.1918,0.1371,0.0342,-0.0528,-0.1456,-0.3114,-0.4595,-0.5832,-0.6174,-0.7218,-0.8361,-0.8474,-0.9145,-0.9932,-1.0094,-1.0621,-1.1117,-1.0931,-1.1799,-1.2537,-1.1837,-1.1569,-1.13,-1.0685,-1.0138,-0.9721,-0.9559,-0.9179,-0.8812,-0.8492,-0.7503,-0.6269,-0.4827,-0.3105,-0.1418,0.0122,-0.1612,-0.2485,-0.1161,-0.0315,0.0355,0.086,0.1035,0.1023,0.0816,0.0811,0.0496,-0.0226,-0.0139,-0.0526,-0.1426,-0.2306,-0.3065,-0.373,-0.4465,-0.5021,-0.5407,-0.5446,-0.5558,1.1779,1.2501,1.3109,1.3669,1.4006,1.4154,1.391,1.3634,1.3008,1.1595,1.0515,0.9487,0.8363,0.75,0.6838,0.6557,0.6492,0.6173,0.5183,0.5475,0.5558,0.5004,0.537,0.5708,0.5873,0.6277,0.6534,0.6368,0.6646,0.6542,0.5986,0.6173,0.6141,0.5888,0.6013,0.6008,0.579,0.5441,0.5238,0.5232,0.4763,0.4447,0.4224,0.3921,0.3697,0.3514,0.3385,0.343,0.3522,0.3527,0.3395,0.3177,0.3054,0.2755,0.2186,0.0692,0.0074,-0.0384,-0.2698,-0.3931,-0.4679,-0.579,-0.7378,-0.8891,-0.8949,-0.9514,-1.0196,-1.0412,-1.0644,-1.0956,-1.1376,-1.1668,-1.1806,-1.1688,-1.1144,-1.048,-0.9897,-0.9541,-0.9267,-0.9019,-0.7742,-0.6514,-0.586,-0.4121,-0.2406,-0.117,-0.0039,0.1119,0.2386,0.1547,0.0944,0.119,0.163,0.2012,0.2302,0.2485,0.2535,0.2401,0.249,0.2301,0.1727,0.1801,0.1338,0.0218,-0.079,-0.1915,-0.3134,-0.3835,-0.4545,-0.5243,-0.5127,-0.5137,1.2404,1.3021,1.3619,1.4011,1.4295,1.4368,1.3975,1.3722,1.3156,1.1723,1.0881,1.0087,0.9042,0.8694,0.8508,0.8245,0.837,0.8095,0.6876,0.6977,0.6827,0.5941,0.6218,0.649,0.649,0.6813,0.6949,0.6638,0.6804,0.6781,0.6504,0.6747,0.6764,0.6425,0.658,0.6526,0.6221,0.5818,0.5687,0.5821,0.5178,0.4923,0.5019,0.4657,0.4561,0.4596,0.4431,0.4479,0.4604,0.4356,0.418,0.4015,0.3848,0.3523,0.2973,0.1496,0.1016,0.0758,-0.1608,-0.2626,-0.3146,-0.4863,-0.6995,-0.8946,-0.9249,-0.9718,-1.025,-1.0845,-1.1023,-1.1204,-1.1973,-1.1837,-1.1514,-1.1627,-1.0754,-0.9789,-0.9439,-0.8876,-0.8277,-0.7793,-0.5606,-0.3517,-0.2491,-0.0436,0.1425,0.251,0.3076,0.3761,0.4788,0.5211,0.5106,0.4325,0.3931,0.375,0.381,0.3936,0.4008,0.3978,0.4039,0.3919,0.3547,0.3547,0.2976,0.1788,0.0714,-0.0646,-0.23,-0.3027,-0.3856,-0.4738,-0.4686,-0.4664,1.2582,1.2914,1.3376,1.3961,1.4264,1.4375,1.4208,1.3786,1.3169,1.229,1.1584,1.0936,1.0413,1.025,1.0177,1.0148,0.9744,0.9198,0.841,0.7888,0.7379,0.6701,0.6647,0.6647,0.6647,0.6799,0.6759,0.6391,0.6267,0.6482,0.7182,0.7242,0.7282,0.7382,0.7112,0.6989,0.7015,0.6358,0.6091,0.6149,0.5834,0.5701,0.5707,0.5782,0.5771,0.5663,0.5323,0.5263,0.5378,0.518,0.5116,0.5124,0.4812,0.4356,0.3837,0.3233,0.2365,0.1338,0.0598,-0.0739,-0.2254,-0.3228,-0.5379,-0.7772,-0.8814,-0.9493,-1.0072,-1.0806,-1.1381,-1.17,-1.1252,-1.1623,-1.1776,-1.0492,-0.9675,-0.9267,-0.9519,-0.7787,-0.5966,-0.5188,-0.2704,-0.0377,0.0699,0.2177,0.3747,0.5289,0.6476,0.7695,0.9054,0.9258,0.9181,0.8904,0.7206,0.6088,0.6096,0.5845,0.5622,0.551,0.5406,0.522,0.4926,0.4977,0.4357,0.2966,0.2117,0.0811,-0.0977,-0.189,-0.2752,-0.357,-0.4042,-0.4224,1.3189,1.3554,1.4041,1.4086,1.4246,1.4386,1.4331,1.4033,1.374,1.3666,1.284,1.2251,1.254,1.235,1.1988,1.1567,1.1673,1.1256,0.9614,0.9098,0.8421,0.7315,0.6912,0.6598,0.644,0.6598,0.661,0.638,0.6483,0.6788,0.7291,0.7346,0.7419,0.7482,0.7505,0.7576,0.7557,0.712,0.6915,0.7002,0.6714,0.6625,0.6634,0.6768,0.6754,0.6572,0.6415,0.6186,0.5907,0.5717,0.5617,0.5569,0.5284,0.5331,0.5397,0.3866,0.3652,0.3874,0.2014,0.1162,0.0589,-0.1306,-0.3341,-0.5508,-0.7992,-0.9681,-1.081,-1.1153,-1.1297,-1.1443,-1.1807,-1.1837,-1.1399,-0.9885,-0.9244,-0.9028,-0.9201,-0.6915,-0.4648,-0.4084,-0.0524,0.2642,0.3339,0.546,0.7257,0.79,0.8684,0.9401,0.996,1.0038,0.9967,0.977,0.8646,0.7828,0.7626,0.7298,0.7056,0.6914,0.6885,0.6784,0.6553,0.6521,0.5756,0.4096,0.3514,0.2046,-0.0327,-0.0817,-0.1613,-0.2693,-0.3031,-0.3189,1.4275,1.4516,1.49,1.4824,1.5007,1.5217,1.5261,1.5117,1.5037,1.5256,1.4551,1.4024,1.4398,1.3949,1.3363,1.296,1.2816,1.2218,1.0597,0.9817,0.8903,0.7522,0.6807,0.6339,0.6128,0.6164,0.6206,0.6158,0.6395,0.6627,0.6947,0.7107,0.7338,0.7704,0.7905,0.8002,0.799,0.7729,0.7666,0.7624,0.7511,0.7476,0.7565,0.7663,0.7703,0.767,0.7485,0.7115,0.6662,0.642,0.6246,0.6097,0.5792,0.6037,0.6402,0.4908,0.5034,0.5707,0.395,0.3311,0.2958,0.0984,-0.1035,-0.3218,-0.5796,-0.8241,-1.0174,-1.0274,-0.9515,-0.8678,-0.8578,-0.8268,-0.7675,-0.662,-0.6663,-0.6927,-0.6887,-0.4467,-0.2132,-0.155,0.2234,0.5533,0.6196,0.8079,0.952,0.9602,0.9937,1.0172,1.0202,1.0195,1.0131,0.9976,0.952,0.9081,0.8697,0.8351,0.8143,0.8099,0.8053,0.7988,0.7901,0.7707,0.6815,0.515,0.4746,0.3329,0.0849,0.0413,-0.0375,-0.1497,-0.1937,-0.2242,1.5879,1.5723,1.5816,1.633,1.6785,1.7112,1.7236,1.7263,1.7216,1.7012,1.6707,1.6279,1.5697,1.471,1.4104,1.4411,1.2872,1.1529,1.1221,0.9906,0.8554,0.7241,0.6276,0.5758,0.5813,0.5521,0.5403,0.5618,0.5606,0.5795,0.6218,0.655,0.7154,0.8156,0.8221,0.8221,0.8221,0.8197,0.8105,0.8004,0.8146,0.8263,0.8373,0.8373,0.8618,0.895,0.8498,0.808,0.7737,0.7433,0.713,0.685,0.6438,0.6393,0.6538,0.6775,0.6524,0.6186,0.6734,0.5817,0.4289,0.372,0.1531,-0.1061,-0.1825,-0.458,-0.7482,-0.7678,-0.5586,-0.2678,-0.0026,0.0519,0.036,0.0313,-0.1066,-0.2277,-0.1941,0.013,0.2235,0.3226,0.5872,0.8314,0.9445,0.9677,0.9796,1.005,1.009,1.0135,1.0189,1.0201,1.0178,1.0116,1.0037,0.9795,0.9327,0.8984,0.8855,0.8988,0.8744,0.866,0.8779,0.8345,0.7462,0.6106,0.5766,0.4691,0.2873,0.1874,0.0961,0.0153,-0.0853,-0.1562,1.6655,1.6874,1.7129,1.6527,1.6772,1.7223,1.7405,1.7547,1.7759,1.8154,1.7081,1.622,1.6687,1.5203,1.3735,1.3147,1.2197,1.1136,1.0003,0.9043,0.8228,0.7627,0.6648,0.5823,0.5483,0.5183,0.5124,0.5352,0.5675,0.599,0.6327,0.6908,0.7329,0.7563,0.7777,0.7996,0.8321,0.8436,0.8397,0.82,0.8468,0.8497,0.825,0.8488,0.8591,0.8506,0.8511,0.8091,0.745,0.7429,0.7288,0.6999,0.6711,0.6896,0.7328,0.682,0.6881,0.7093,0.6414,0.5779,0.514,0.4132,0.2489,0.083,0.0662,-0.229,-0.5343,-0.4352,-0.3066,-0.1528,0.0371,0.0513,0.0278,0.0765,0.0512,0.0209,0.0416,0.253,0.4629,0.5465,0.7721,0.963,1.0051,1.0271,1.0305,1.0078,1.0027,1.0056,1.0128,1.0121,1.0112,1.0094,1.0032,0.9881,0.9592,0.9393,0.9298,0.934,0.9128,0.8985,0.8928,0.8665,0.7881,0.6539,0.6309,0.5358,0.3656,0.3014,0.2043,0.0811,0.021,-0.0355,1.7593,1.7873,1.8041,1.7577,1.7825,1.8163,1.8039,1.8136,1.821,1.8228,1.7169,1.6306,1.653,1.5011,1.3476,1.2797,1.1722,1.0578,0.9572,0.8626,0.7787,0.7061,0.6272,0.56,0.5098,0.5091,0.511,0.523,0.568,0.6119,0.6403,0.6956,0.7287,0.7399,0.7715,0.8049,0.8321,0.8586,0.8602,0.851,0.8674,0.8671,0.8522,0.8511,0.852,0.8587,0.8626,0.8351,0.0,0.7844,0.7652,0.734,0.7026,0.7235,0.7562,0.6831,0.6905,0.7221,0.6411,0.6024,0.5715,0.4933,0.3922,0.3022,0.3007,0.0663,-0.1577,0.0509,0.1589,0.2556,0.4529,0.4472,0.4035,0.462,0.431,0.3956,0.4237,0.5559,0.6823,0.721,0.8859,1.0124,0.9864,1.0196,1.0376,0.9944,0.9882,0.9905,0.9982,1.0006,1.002,0.9948,0.9961,0.9904,0.9782,0.9682,0.9632,0.9682,0.9503,0.9359,0.9313,0.9054,0.841,0.7329,0.7099,0.625,0.4745,0.4017,0.3078,0.1919,0.1549,0.1103,0.0,1.8627,1.8574,1.9129,1.9507,1.9576,1.9047,1.883,0.0,1.7492,1.6881,1.6246,1.5244,1.3971,1.2986,1.2753,1.0984,0.9598,0.9494,0.8444,0.7148,0.5829,0.5539,0.5232,0.4702,0.5126,0.5331,0.5212,0.5664,0.6069,0.6375,0.6722,0.7071,0.7547,0.7985,0.8218,0.8193,0.8566,0.8826,0.8834,0.8702,0.8715,0.8957,0.8445,0.8495,0.8977,0.8846,0.8714,0.8543,0.8404,0.8137,0.7702,0.7391,0.733,0.7329,0.6882,0.6698,0.6673,0.6673,0.6413,0.6068,0.6021,0.5674,0.5269,0.5217,0.4032,0.328,0.6188,0.7503,0.8607,1.1198,1.1123,1.0468,1.0775,0.9555,0.8453,0.8959,0.8955,0.8798,0.8626,0.9514,1.0065,0.9282,0.9778,1.0157,0.9802,0.9759,0.9774,0.9782,0.9887,0.9888,0.9701,0.9788,0.9867,0.9878,0.9842,0.9861,0.9998,0.982,0.9724,0.9781,0.9485,0.9018,0.8343,0.7968,0.7207,0.6048,0.4934,0.4051,0.3405,0.3044,0.2643,1.7753,0.0,1.861,1.8263,1.8475,1.8896,0.0,0.0,0.0,0.0,0.0,1.3641,1.2088,1.059,0.9263,0.8325,0.7031,0.6278,0.6558,0.6413,0.6227,0.6132,0.5936,0.5608,0.5225,0.5238,0.527,0.5331,0.5783,0.6181,0.6547,0.7026,0.7384,0.7504,0.7985,0.8234,0.8257,0.8472,0.8545,0.8457,0.858,0.8628,0.8553,0.8534,0.8598,0.8711,0.8816,0.8573,0.8079,0.8046,0.7722,0.7265,0.7135,0.7146,0.7217,0.7059,0.682,0.6534,0.6494,0.6171,0.5819,0.5959,0.6044,0.6244,0.6883,0.6347,0.5877,0.7575,0.8595,0.9536,1.105,1.1275,1.1164,1.1182,1.0864,1.0579,1.0708,1.05,1.0328,1.0375,1.0955,1.1259,1.0689,1.0839,1.0882,1.038,1.0358,1.0211,0.9713,1.0149,1.0253,0.9623,0.9565,0.964,0.9732,0.9868,0.9974,0.9998,0.9864,0.9729,0.9654,0.9522,0.9213,0.8693,0.79,0.7179,0.6544,0.5707,0.5038,0.452,0.4017,0.3625,1.7195,1.7081,1.6813,1.6495,1.6938,1.7241,1.6461,0.0,0.0,0.0,0.0,1.1143,0.9517,0.8255,0.7141,0.631,0.5575,0.5288,0.5636,0.5773,0.5973,0.6199,0.5992,0.5785,0.5751,0.5679,0.5679,0.5743,0.6212,0.6567,0.6755,0.726,0.7633,0.7752,0.8129,0.8265,0.8184,0.835,0.8484,0.8488,0.8462,0.8497,0.8642,0.8461,0.8459,0.8618,0.8633,0.8425,0.7982,0.7967,0.7757,0.7433,0.7198,0.7138,0.7197,0.6965,0.6764,0.6565,0.6367,0.6149,0.6059,0.6631,0.6906,0.7118,0.7753,0.7873,0.7957,0.8876,0.9664,1.0395,1.1042,1.1196,1.121,1.1178,1.1155,1.1192,1.1239,1.1085,1.0934,1.0997,1.149,1.1671,1.0989,1.1309,1.1343,1.0407,1.0756,1.0683,0.952,1.0094,1.0273,0.9403,0.9368,0.9455,0.9563,0.9713,0.985,0.9952,0.9919,0.9839,0.9745,0.9712,0.9453,0.8939,0.8269,0.7655,0.716,0.663,0.6253,0.6031,0.5361,0.5293,1.6848,1.5512,1.4237,1.4656,1.5104,1.4929,1.2986,0.0,0.0,0.0,0.0,0.0,0.7386,0.6538,0.5889,0.5379,0.5215,0.5236,0.5537,0.5687,0.583,0.6121,0.5948,0.5891,0.6148,0.6211,0.6274,0.6274,0.6642,0.6881,0.6946,0.7405,0.7727,0.7922,0.8252,0.8318,0.8023,0.8283,0.8486,0.872,0.8293,0.841,0.8919,0.838,0.8317,0.8634,0.8497,0.8349,0.8149,0.8082,0.7983,0.7839,0.7356,0.7259,0.7329,0.6897,0.6811,0.6841,0.6508,0.6413,0.6591,0.7512,0.7783,0.782,0.8227,0.8833,0.9461,0.9945,1.0458,1.0897,1.0991,1.0968,1.092,1.0968,1.0968,1.1015,1.1132,1.1155,1.1107,1.0992,1.1556,1.1783,1.0945,1.1513,1.1683,1.0504,1.1182,1.1194,0.947,1.0048,1.0238,0.9192,0.9179,0.9285,0.9386,0.9483,0.9629,0.9815,0.9908,0.9935,0.9897,0.99,0.9696,0.922,0.8821,0.8398,0.7887,0.7605,0.7474,0.7467,0.6859,0.7141,1.6989,1.4517,1.2456,1.4203,1.3336,1.2088,1.2219,0.0,0.0,0.0,0.0,0.0,0.5586,0.5058,0.4601,0.3736,0.3958,0.433,0.4654,0.4886,0.5276,0.6014,0.6086,0.6018,0.5962,0.6337,0.6593,0.6472,0.6711,0.6946,0.7138,0.7396,0.7526,0.7587,0.7917,0.8086,0.8014,0.8267,0.8529,0.8673,0.8407,0.8595,0.9133,0.8639,0.858,0.8848,0.8776,0.8636,0.8443,0.8307,0.8046,0.7681,0.728,0.7324,0.7631,0.7558,0.7606,0.7676,0.7384,0.7196,0.7153,0.7712,0.7886,0.8029,0.88,0.9328,0.9762,1.0286,1.0323,1.0298,1.0534,1.0597,1.0632,1.0849,1.092,1.0944,1.1015,1.121,1.1256,1.0907,1.1646,1.2195,1.176,1.1827,1.1925,1.1866,1.2116,1.1723,1.0154,1.0672,1.0633,0.9161,0.9033,0.9126,0.9301,0.9321,0.9394,0.9476,0.9636,0.9792,0.9903,0.9959,0.99,0.9699,0.9411,0.9082,0.8719,0.8394,0.8093,0.7827,0.8164,0.8402,1.7403,1.48,1.2304,1.2793,1.159,1.0021,0.0,0.0,0.0,0.0,0.0,0.611,0.5132,0.4529,0.4053,0.3658,0.4071,0.4616,0.5005,0.5312,0.5734,0.6341,0.64,0.6457,0.6561,0.6806,0.6874,0.675,0.7024,0.7134,0.6937,0.7265,0.7396,0.7204,0.7596,0.7857,0.7857,0.8276,0.8538,0.8764,0.8393,0.86,0.9176,0.8891,0.8888,0.9038,0.9048,0.8841,0.8532,0.8452,0.8343,0.8222,0.7939,0.7978,0.816,0.8097,0.8214,0.8404,0.8648,0.8343,0.7977,0.8746,0.8704,0.8518,0.9193,0.9526,0.9736,1.0199,1.0299,1.0311,1.0534,1.0632,1.0681,1.0825,1.1001,1.1187,1.1256,1.1542,1.1761,1.1741,1.2234,1.2606,1.2411,1.2537,1.249,1.1958,1.2521,1.2391,1.0734,1.1332,1.1439,1.0267,0.9851,0.968,0.9782,0.9855,0.9775,0.9473,0.9565,0.971,0.9886,0.9958,0.9959,0.9849,0.9742,0.9493,0.916,0.8969,0.9082,0.9465,0.9382,0.9857,1.7344,1.5099,1.2669,1.1716,0.0,0.0,0.0,0.0,0.0,0.0,0.0,0.5558,0.5207,0.461,0.4177,0.4296,0.4702,0.5227,0.5674,0.6037,0.6347,0.6674,0.6794,0.6963,0.7087,0.7227,0.7199,0.7012,0.7204,0.7199,0.6741,0.7134,0.7199,0.6881,0.7274,0.7536,0.7661,0.8122,0.8478,0.885,0.854,0.8733,0.9326,0.9134,0.915,0.9368,0.9351,0.9138,0.8857,0.8777,0.8791,0.886,0.8725,0.8715,0.8763,0.87,0.8867,0.9177,0.9722,0.9433,0.8985,0.9862,0.9618,0.9135,0.9653,0.9715,0.9696,1.011,1.0324,1.0474,1.0656,1.0777,1.0849,1.0897,1.1187,1.1445,1.1534,1.1852,1.2245,1.2482,1.2762,1.2924,1.2885,1.3051,1.2887,1.2045,1.2738,1.2823,1.1356,1.1857,1.1999,1.118,1.0544,1.0178,1.0208,1.0488,1.0468,1.0032,0.9734,0.9761,1.017,1.0067,1.0183,1.0542,1.0153,0.9905,0.9818,0.9554,0.9889,1.0757,1.049,1.1168,1.6283,1.4819,1.3199,1.1768,1.0128,0.0,0.6342,0.6538,0.0,0.5535,0.0,0.5535,0.5561,0.5431,0.5271,0.523,0.5557,0.5909,0.6053,0.6466,0.6717,0.6648,0.7091,0.7287,0.6937,0.7242,0.7391,0.7204,0.7012,0.6946,0.6881,0.6946,0.6946,0.6881,0.6946,0.7138,0.7521,0.7661,0.8172,0.8988,0.8924,0.9163,0.9739,0.9349,0.9446,0.9829,0.9709,0.9631,0.9644,0.9523,0.9466,0.9347,0.92,0.9237,0.935,0.9389,0.9658,1.004,1.0186,1.0223,1.0228,1.068,1.0329,0.9805,1.0278,1.0022,0.9696,1.0148,1.0399,1.0548,1.0729,1.0897,1.1015,1.1215,1.137,1.1534,1.1659,1.1999,1.2353,1.2635,1.2889,1.3084,1.3084,1.2942,1.2836,1.2801,1.2887,1.2715,1.209,1.2088,1.187,1.1172,1.0505,1.0156,1.0285,1.0988,1.1426,1.1447,1.0237,0.9966,1.0967,1.0366,1.0787,1.2472,1.0917,1.0418,1.1064,1.0192,1.0094,1.0727,1.1358,1.2067,1.5469,1.3986,1.2478,1.1453,1.0417,0.0,0.0,0.6406,0.6124,0.5317,0.5378,0.5723,0.6121,0.64,0.6537,0.6542,0.6703,0.6845,0.699,0.7253,0.7484,0.7525,0.7753,0.7829,0.7626,0.7688,0.7569,0.7224,0.6984,0.6785,0.6451,0.6547,0.6548,0.6478,0.6675,0.6876,0.7138,0.7661,0.8177,0.8683,0.8828,0.9199,0.9688,0.976,0.9905,1.0013,0.9952,0.996,0.9919,0.9693,0.9857,1.0158,0.9923,0.9846,0.986,0.9591,0.9952,1.0611,1.0687,1.0662,1.0675,1.108,1.0881,1.0491,1.055,1.0417,1.0393,1.0847,1.0878,1.0777,1.0897,1.1224,1.1505,1.1593,1.1903,1.222,1.2296,1.2575,1.2857,1.3037,1.3192,1.3261,1.3174,1.3069,1.2942,1.2848,1.2869,1.2844,1.2687,1.2723,1.2723,1.2549,1.204,1.1776,1.1912,1.1741,1.1871,1.2423,1.0991,1.0584,1.1618,1.0988,1.0981,1.1743,1.1205,1.1033,1.1257,1.0904,1.1314,1.2447,1.2725,1.3229,1.4749,1.3317,1.1897,1.1222,0.0,0.0,0.7758,0.6978,0.6409,0.5426,0.5533,0.6088,0.6768,0.7138,0.7421,0.7526,0.7629,0.7746,0.7755,0.809,0.8273,0.8295,0.837,0.8344,0.8198,0.798,0.7588,0.7158,0.6904,0.6561,0.6077,0.6177,0.6221,0.6097,0.6364,0.6606,0.6749,0.74,0.7917,0.8361,0.8713,0.9202,0.9767,1.0076,1.0269,1.0297,1.0277,1.0236,1.0221,0.9955,1.0136,1.0548,1.0348,1.0268,1.0238,0.9833,1.0186,1.0916,1.1019,1.1088,1.1186,1.1595,1.1484,1.1192,1.1166,1.1107,1.1099,1.1559,1.1639,1.1587,1.1773,1.1849,1.1869,1.1955,1.2296,1.2649,1.2759,1.298,1.321,1.3345,1.3412,1.3379,1.3227,1.3104,1.2977,1.2776,1.2776,1.2832,1.2942,1.3069,1.3143,1.3137,1.3075,1.2983,1.2908,1.2581,1.2664,1.328,1.2002,1.1567,1.236,1.1733,1.1681,1.2319,1.171,1.1471,1.1705,1.1197,1.1599,1.2802,1.2832,1.3198,1.3987,1.2829,1.1631,1.1025,0.0,0.0,0.8625,0.8309,0.7564,0.5767,0.5964,0.6651,0.7373,0.7674,0.787,0.8061,0.8416,0.8551,0.8178,0.8789,0.9165,0.878,0.8891,0.8836,0.8479,0.8073,0.7522,0.6952,0.6742,0.6456,0.6022,0.6022,0.5951,0.579,0.6,0.6196,0.6424,0.6942,0.7461,0.7987,0.8694,0.9344,0.9983,1.0238,1.0491,1.0773,1.0637,1.0587,1.0593,1.0386,1.0314,1.0301,1.0429,1.0478,1.0373,1.0202,1.0428,1.0916,1.1142,1.1479,1.1859,1.2258,1.2175,1.1959,1.2307,1.2064,1.1789,1.2208,1.265,1.3088,1.3472,1.2822,1.207,1.2277,1.2522,1.2792,1.2975,1.3174,1.3345,1.3479,1.3512,1.3429,1.3244,1.3034,1.2834,1.263,1.26,1.2655,1.2871,1.2961,1.2907,1.2635,1.3263,1.3491,1.2948,1.351,1.3938,1.3998,1.3249,1.2923,1.3194,1.2567,1.3027,1.473,1.2507,1.1746,1.2572,1.0993,1.0593,1.1311,1.1378,1.1774,1.2635,1.1397,1.0142,0.9961,0.0,0.0,0.0,0.8265,0.0,0.7084,0.7228,0.7607,0.8103,0.8697,0.9108,0.918,0.9271,0.9316,0.9392,0.9468,0.9544,0.9539,0.9482,0.9295,0.9075,0.8632,0.8216,0.7547,0.7134,0.6649,0.6104,0.595,0.5806,0.5589,0.5996,0.6245,0.6331,0.707,0.7591,0.7987,0.8571,0.9145,0.9652,1.0238,1.0618,1.0773,1.0637,1.0709,1.0891,1.0862,1.0714,1.0446,1.0612,1.0609,1.0539,1.0321,1.0505,1.0954,1.1292,1.1538,1.1808,1.2294,1.2483,1.2442,1.2431,1.2437,1.2546,1.2907,1.2937,1.2953,1.3315,1.3366,1.3451,1.3892,1.417,1.436,1.4508,1.4274,1.4054,1.4247,1.4264,1.4076,1.3447,1.3592,1.359,1.2899,1.2738,1.2719,1.2871,1.3157,1.3361,1.3372,1.3649,1.3832,1.3828,1.3912,1.3998,1.4072,1.3796,1.3708,1.3833,1.3186,1.2841,1.2899,1.2964,1.2554,1.168,1.1816,1.1994,1.2216,1.2236,1.2377,1.1567,1.0218,0.8959,0.8896,0.8357,0.7995,0.8537,0.8292,0.803,0.8069,0.8193,0.8446,0.9051,0.9552,0.9862,0.9954,0.9992,0.9997,0.9992,0.9992,0.9997,1.0143,0.9916,0.962,0.9473,0.8937,0.8291,0.761,0.7202,0.6699,0.6029,0.5933,0.5796,0.5589,0.6055,0.6371,0.6439,0.7122,0.7657,0.7857,0.8447,0.8894,0.9332,1.0104,1.0618,1.0899,1.0821,1.0812,1.0877,1.0902,1.0764,1.0511,1.0734,1.0746,1.0599,1.0564,1.0694,1.0954,1.1207,1.1452,1.1734,1.2222,1.2473,1.2637,1.2675,1.2862,1.3142,1.3425,1.353,1.3613,1.3912,1.4121,1.4156,1.3832,1.4401,1.4999,1.485,1.4813,1.4887,1.4979,1.5032,1.486,1.4345,1.4249,1.4032,1.3434,1.3029,1.3046,1.3768,1.3881,1.3956,1.4071,1.4246,1.4259,1.4104,1.4072,1.4026,1.4009,1.4009,1.4023,1.406,1.375,1.3391,1.2973,1.3424,1.3176,1.222,1.2152,1.2127,1.2125,1.1806,1.1677,1.0709,0.9292,0.8179,0.8081,0.8037,0.8239,0.8874,0.8607,0.8372,0.8976,0.9081,0.933,1.0153,1.0302,1.0428,1.0548,1.0588,1.0513,1.0368,1.0519,1.0588,1.0588,1.0218,0.9922,0.9695,0.8937,0.8179,0.7335,0.708,0.6621,0.5953,0.5935,0.595,0.5797,0.6131,0.6414,0.67,0.7288,0.762,0.7761,0.8304,0.8772,0.915,0.9874,1.0541,1.1051,1.1019,1.0898,1.0694,1.0749,1.0664,1.0578,1.0863,1.0831,1.0658,1.0801,1.0875,1.0853,1.0954,1.1234,1.1616,1.2018,1.2318,1.2544,1.2955,1.3254,1.3547,1.3676,1.4163,1.4704,1.4809,1.4847,1.4453,1.2833,1.3818,1.4983,1.447,1.509,1.5739,1.5666,1.5744,1.5744,1.5553,1.497,1.4419,1.4123,1.353,1.3637,1.5006,1.4785,1.4515,1.4572,1.476,1.4578,1.3959,1.3987,1.4012,1.3891,1.3938,1.397,1.397,1.4162,1.421,1.4064,1.3812,1.3591,1.3361,1.2127,1.1472,1.1376,1.0571,1.0203,1.023,0.9061,0.8111,0.8251,0.8562,0.902,0.994,1.0049,1.0061,1.0478,1.0386,1.0504,1.1254,1.1398,1.1448,1.144,1.1409,1.1409,1.1409,1.126,1.126,1.1409,1.0962,1.0443,1.0143,0.9468,0.877,0.7969,0.7597,0.7139,0.6535,0.6201,0.5912,0.579,0.6299,0.6555,0.6615,0.7499,0.8043,0.8173,0.8759,0.933,0.9804,0.9866,1.024,1.0863,1.1152,1.1047,1.0709,1.0961,1.1034,1.0972,1.0871,1.0939,1.1031,1.0695,1.0603,1.0591,1.0722,1.0905,1.1132,1.1763,1.2174,1.2484,1.2768,1.3151,1.3424,1.3181,1.373,1.4259,1.3728,1.4496,1.5099,1.3864,1.4553,1.5479,1.5459,1.5829,1.6187,1.6218,1.6407,1.6376,1.5753,1.5947,1.5871,1.4939,1.4829,1.4708,1.4344,1.441,1.4294,1.3735,1.3718,1.3765,1.3811,1.3702,1.3686,1.3806,1.3791,1.3759,1.3759,1.4009,1.3541,1.2287,1.3705,1.3502,1.1558,1.2091,1.2029,1.1378,1.0579,1.0209,1.03,0.9228,0.8533,0.8794,0.9243,0.9759,1.0361,1.0789,1.1099,1.1384,1.1397,1.143,1.1975,1.2148,1.2196,1.2064,1.2058,1.2077,1.1855,1.1781,1.1706,1.1706,1.126,1.0812,1.0368,0.9695,0.8974,0.8191,0.7716,0.7216,0.6606,0.6455,0.6384,0.6203,0.6618,0.6923,0.7015,0.7783,0.8243,0.831,0.888,0.9425,0.9793,1.0186,1.0538,1.08,1.1076,1.1032,1.0839,1.095,1.1044,1.1108,1.0905,1.1011,1.1172,1.0849,1.0659,1.0539,1.0685,1.0792,1.0905,1.1616,1.1957,1.2186,1.2627,1.2978,1.3213,1.3187,1.3722,1.4278,1.4053,1.46,1.5039,1.4539,1.5314,1.6051,1.5815,1.6272,1.6752,1.6851,1.7076,1.7084,1.6644,1.6584,1.6423,1.5856,1.5566,1.5354,1.5263,1.5048,1.4658,1.3901,1.3904,1.3837,1.3625,1.3575,1.3592,1.3704,1.3702,1.37,1.3652,1.3759,1.3299,1.2196,1.3712,1.3489,1.1423,1.209,1.2015,1.1237,1.0462,1.0114,1.0861,0.9894,0.9466,0.9584,1.0015,1.0504,1.0742,1.122,1.1766,1.2025,1.2084,1.2152,1.2511,1.2767,1.281,1.2707,1.2797,1.2725,1.2304,1.2198,1.2117,1.1793,1.1428,1.1019,1.053,0.9863,0.905,0.83,0.7837,0.7292,0.667,0.6768,0.6825,0.6639,0.7011,0.7306,0.7518,0.8053,0.8386,0.8427,0.9071,0.9416,0.9599,1.0489,1.0817,1.0793,1.0963,1.1027,1.1069,1.0894,1.0921,1.1107,1.0947,1.098,1.1133,1.0967,1.0758,1.0596,1.0675,1.0714,1.0828,1.1501,1.1737,1.192,1.2449,1.2803,1.3057,1.3264,1.3848,1.442,1.4718,1.4877,1.4998,1.5202,1.5999,1.6505,1.583,1.6451,1.7216,1.7361,1.7549,1.7664,1.7542,1.7053,1.6675,1.673,1.6163,1.592,1.6457,1.5967,1.5245,1.4341,1.4336,1.4106,1.3362,1.3395,1.3478,1.3512,1.3544,1.3559,1.3542,1.3492,1.3194,1.261,1.3541,1.3238,1.1662,1.1865,1.1666,1.1065,1.032,1.0025,1.2745,1.1866,1.1143,1.0985,1.0999,1.1129,1.1646,1.1948,1.2135,1.2437,1.2375,1.2465,1.3195,1.3423,1.3582,1.3825,1.3882,1.3663,1.3104,1.3021,1.2769,1.1943,1.1912,1.1464,1.0507,1.0053,0.9538,0.8944,0.816,0.7651,0.7451,0.711,0.6865,0.6717,0.7026,0.7313,0.7473,0.8295,0.8705,0.8892,0.9707,0.9849,0.9542,1.0102,1.0476,1.0618,1.1073,1.1243,1.1278,1.1249,1.1194,1.1157,1.0848,1.0787,1.0906,1.0645,1.0707,1.0798,1.0481,1.0571,1.0924,1.1193,1.1542,1.1945,1.221,1.2779,1.3255,1.2838,1.3613,1.4547,1.4486,1.5147,1.5887,1.615,1.6465,1.6505,1.5772,1.6369,1.7093,1.7272,1.7509,1.7687,1.7681,1.7442,1.7276,1.7299,1.7146,1.6868,1.6318,1.626,1.5664,1.4136,1.4028,1.3733,1.2957,1.2889,1.298,1.3158,1.307,1.3105,1.3329,1.3329,1.299,1.2271,1.2634,1.2121,1.0691,1.0895,1.1004,1.0998,1.0256,0.9957,1.311,1.2381,1.1864,1.1594,1.1663,1.1847,1.2115,1.2352,1.256,1.2683,1.2797,1.2935,1.3155,1.3348,1.3531,1.3897,1.3941,1.3869,1.3765,1.3541,1.3165,1.2522,1.229,1.1883,1.1022,1.0501,0.9958,0.9377,0.867,0.8121,0.7764,0.7547,0.7275,0.7016,0.7225,0.7433,0.7469,0.816,0.8734,0.917,0.9497,0.9574,0.9348,0.9678,0.9985,1.0334,1.0621,1.0753,1.0876,1.0857,1.0857,1.0817,1.0554,1.0585,1.0753,1.0647,1.0753,1.088,1.0792,1.0851,1.0993,1.1291,1.1616,1.1945,1.2282,1.2814,1.3281,1.337,1.3979,1.4682,1.5052,1.5656,1.6246,1.6501,1.6747,1.6846,1.6564,1.6824,1.7166,1.7281,1.7448,1.7582,1.7526,1.7432,1.7368,1.7439,1.7337,1.6846,1.5714,1.5605,1.4967,1.3299,1.3099,1.2951,1.261,1.2575,1.2668,1.2873,1.2852,1.2942,1.3173,1.3121,1.2789,1.2169,1.2848,1.2521,1.111,1.122,1.1109,1.0811,1.0076,0.9799,1.3794,1.3287,1.2984,1.2458,1.2536,1.2666,1.2544,1.2663,1.2849,1.291,1.3067,1.3169,1.3059,1.3277,1.3582,1.3925,1.395,1.3915,1.3933,1.3686,1.3309,1.2778,1.2608,1.2198,1.1464,1.0941,1.0375,0.969,0.9055,0.8496,0.8018,0.7875,0.7643,0.731,0.7417,0.7522,0.7596,0.8153,0.8707,0.9251,0.9246,0.9236,0.9143,0.9214,0.9391,0.9805,1.007,1.0302,1.0506,1.0414,1.043,1.0497,1.0285,1.0332,1.0624,1.0624,1.0806,1.0998,1.1159,1.1219,1.1244,1.1576,1.179,1.2054,1.2437,1.2953,1.3454,1.3888,1.4406,1.4968,1.5594,1.605,1.6463,1.6738,1.6977,1.7175,1.724,1.7273,1.7314,1.7353,1.7417,1.7465,1.7401,1.7288,1.7288,1.7432,1.7281,1.6767,1.5735,1.5375,1.4621,1.3125,1.2758,1.2529,1.2316,1.23,1.24,1.263,1.2646,1.2776,1.3066,1.2959,1.2748,1.2439,1.3221,1.2953,1.1546,1.1594,1.1308,1.0664,1.0156,0.9898,1.5417,1.5361,1.5196,1.4145,1.3743,1.3571,1.3329,1.3059,1.2988,1.3296,1.3102,1.2893,1.3113,1.3655,1.4158,1.4476,1.428,1.3975,1.3646,1.3525,1.3218,1.2387,1.2789,1.2635,1.1416,1.1175,1.0706,0.9976,0.9145,0.8571,0.8406,0.7968,0.7733,0.7477,0.7496,0.7582,0.779,0.8355,0.8775,0.9022,0.9008,0.9003,0.8993,0.8784,0.8785,0.9023,0.9688,1.0225,1.0481,1.0217,1.0243,1.0435,1.0006,1.0022,1.0316,1.047,1.0863,1.129,1.1533,1.1669,1.18,1.209,1.2155,1.2246,1.2591,1.3242,1.3901,1.4052,1.4752,1.5536,1.5809,1.6243,1.6675,1.6991,1.7183,1.732,1.7384,1.7496,1.7566,1.7486,1.7502,1.7455,1.7329,1.7216,1.7158,1.7306,1.7149,1.6991,1.701,1.6273,1.5376,1.4421,1.3619,1.2858,1.2079,1.2033,1.2149,1.2498,1.2392,1.2526,1.2995,1.2942,1.3035,1.3328,1.3445,1.2822,1.1408,1.1594,1.1312,1.0617,1.0758,1.0429,1.5321,1.5098,1.4803,1.4907,1.4401,1.4017,1.4155,1.3698,1.3266,1.3386,1.3433,1.344,1.344,1.3618,1.3923,1.4303,1.419,1.4067,1.412,1.3765,1.3384,1.3014,1.2895,1.2485,1.1592,1.124,1.0722,0.9917,0.9385,0.8966,0.859,0.8218,0.789,0.768,0.7585,0.7538,0.7614,0.7914,0.8178,0.8246,0.8322,0.8556,0.877,0.8413,0.8503,0.9109,0.9041,0.928,0.9767,0.9831,0.9953,1.0043,1.0107,1.0217,1.0316,1.0624,1.1124,1.1531,1.1482,1.1689,1.2003,1.1953,1.2141,1.2473,1.285,1.3391,1.3947,1.431,1.4907,1.5536,1.5966,1.6378,1.6763,1.7183,1.7432,1.7572,1.7635,1.7635,1.7566,1.7455,1.7432,1.7361,1.7216,1.7083,1.7048,1.7032,1.6863,1.6584,1.6173,1.5294,1.4388,1.352,1.2599,1.1948,1.1704,1.2149,1.2372,1.22,1.2707,1.2962,1.2883,1.2852,1.2964,1.3261,1.3429,1.3363,1.3084,1.2631,1.2304,1.2038,1.1139,1.0576,1.5323,1.5191,1.4889,1.5279,1.5036,1.4629,1.4508,1.4038,1.359,1.3546,1.3652,1.3711,1.3546,1.3679,1.383,1.3962,1.3879,1.3864,1.4059,1.3745,1.3502,1.3363,1.3013,1.2551,1.1932,1.1451,1.0816,0.999,0.9536,0.917,0.8784,0.8408,0.8106,0.7804,0.7565,0.7484,0.7565,0.7642,0.7795,0.7863,0.7949,0.8178,0.8618,0.8121,0.8322,0.9014,0.8633,0.8777,0.9332,0.9636,0.9813,0.991,1.0165,1.0327,1.0525,1.0818,1.1326,1.1828,1.1656,1.19,1.2215,1.2097,1.2277,1.2662,1.3082,1.356,1.4059,1.4564,1.5074,1.5595,1.612,1.6754,1.7397,1.8013,1.81,1.8051,1.8137,1.7912,1.7641,1.7519,1.7432,1.7329,1.7117,1.7023,1.6946,1.6905,1.6785,1.6491,1.5991,1.4863,1.3894,1.3301,1.2329,1.1786,1.1915,1.2615,1.2869,1.2507,1.3028,1.3194,1.2789,1.2815,1.2946,1.3158,1.3345,1.3542,1.3791,1.3356,1.2869,1.2361,1.1399,1.0693,0.0,0.0,0.0,1.5311,1.552,1.5469,1.439,1.4061,1.3982,1.3811,1.3716,1.3589,1.3426,1.3834,1.4033,1.3641,1.3486,1.3442,1.3442,1.3369,1.3389,1.3478,1.321,1.2828,1.2325,1.1774,1.1031,1.0282,0.9614,0.9175,0.9022,0.8637,0.8178,0.7804,0.7415,0.7415,0.7804,0.7565,0.7714,0.8106,0.7872,0.8021,0.8389,0.7961,0.8157,0.8646,0.8443,0.866,0.932,0.9501,0.9816,1.0114,1.0136,1.0431,1.0939,1.0951,1.1418,1.212,1.211,1.2272,1.2531,1.258,1.2628,1.278,1.3254,1.3735,1.4214,1.4752,1.5239,1.5726,1.6262,1.7359,1.8562,1.9439,1.9177,1.8717,1.879,1.8318,1.7839,1.7635,1.7519,1.7353,1.7158,1.6981,1.6905,1.6905,1.6853,1.6743,1.6623,1.5214,1.4163,1.394,1.3031,1.2551,1.2805,1.3396,1.3627,1.3418,1.3365,1.3136,1.2716,1.2815,1.2962,1.3089,1.321,1.3312,1.3362,1.3648,1.2998,1.1468,1.1551,1.0804,1.2585,0.0,0.0,0.0,0.0,0.0,1.4884,1.4605,1.4137,1.3785,1.3993,1.3928,1.3108,1.3395,1.3676,1.3371,1.3834,1.4119,1.3873,1.3791,1.3704,1.3381,1.3196,1.2892,1.2151,1.1834,1.1181,1.0188,0.96,0.917,0.8784,0.8255,0.7876,0.7804,0.7565,0.7411,0.7338,0.7484,0.7488,0.7411,0.7509,0.7816,0.8184,0.7907,0.8089,0.8641,0.8518,0.8793,0.9314,0.9364,0.9858,1.0587,1.0528,1.0871,1.1419,1.1566,1.1927,1.2376,1.2102,1.2315,1.2654,1.2332,1.2483,1.2873,1.3323,1.3735,1.413,1.4686,1.5179,1.5682,1.6382,1.7743,1.8898,1.868,1.8641,1.8709,1.8717,1.8272,1.7861,1.7687,1.7595,1.7472,1.7208,1.7117,1.7007,1.6837,1.6717,1.6623,1.6528,1.5485,1.4729,1.4615,1.3771,1.326,1.3446,1.413,1.4212,1.3377,1.3895,1.3747,1.2664,1.27,1.2778,1.2799,1.2855,1.282,1.2764,1.3261,1.3318,1.289,1.1857,1.0828,1.0498,1.101,1.1359,1.2788,0.0,0.0,1.4336,1.4406,1.4245,1.3929,1.418,1.4223,1.3563,1.3644,1.3788,1.3806,1.4167,1.442,1.4234,1.407,1.3897,1.371,1.3451,1.2976,1.2227,1.1886,1.1273,1.0313,0.9697,0.9133,0.8758,0.8225,0.8032,0.8032,0.7634,0.7438,0.7446,0.7447,0.7488,0.7492,0.7685,0.7891,0.8111,0.807,0.8327,0.8737,0.8801,0.9203,0.9734,0.9718,1.0228,1.1027,1.1084,1.142,1.1888,1.1882,1.2113,1.2358,1.2083,1.2257,1.2524,1.2293,1.2484,1.2873,1.3459,1.3815,1.413,1.4669,1.5472,1.6337,1.7218,1.825,1.9006,1.8779,1.8647,1.8618,1.8684,1.8502,1.8212,1.7817,1.7641,1.7479,1.724,1.715,1.7032,1.6879,1.6785,1.6691,1.6554,1.576,1.5016,1.4524,1.3979,1.3585,1.3336,1.4096,1.4209,1.3355,1.3727,1.3461,1.2308,1.2291,1.2296,1.22,1.2249,1.2269,1.2245,1.2857,1.3042,1.279,1.161,1.0842,0.8729,0.9489,1.0067,1.1165,1.2206,0.0,1.3351,1.3923,1.433,1.4225,1.4471,1.4612,1.437,1.4225,1.4325,1.4719,1.4616,1.4504,1.4592,1.4273,1.4072,1.4179,1.3745,1.3112,1.2494,1.2038,1.1422,1.0703,0.9829,0.9097,0.8736,0.8427,0.8271,0.8271,0.7761,0.7589,0.784,0.7651,0.7642,0.7804,0.8008,0.8134,0.812,0.8364,0.8606,0.8931,0.913,0.9616,1.0422,1.0388,1.08,1.1425,1.1626,1.1975,1.2341,1.2055,1.2098,1.2283,1.2101,1.2163,1.2318,1.2334,1.252,1.2838,1.3573,1.3894,1.4163,1.4763,1.5947,1.7212,1.8124,1.8641,1.8968,1.9214,1.8868,1.8518,1.866,1.8723,1.8549,1.7907,1.7725,1.7562,1.7281,1.7175,1.7083,1.6956,1.693,1.6837,1.6649,1.605,1.5236,1.4248,1.4071,1.3769,1.3118,1.3676,1.3874,1.3317,1.3166,1.2681,1.1798,1.1783,1.1681,1.1468,1.1578,1.173,1.1888,1.2471,1.2488,1.1958,1.1189,1.0953,0.586,0.6731,0.7652,0.9462,1.0246,0.0,1.3618,1.4166,1.4311,1.4865,1.5373,1.5424,1.4453,1.4544,1.4846,1.5133,1.5163,1.5126,1.516,1.4992,1.4668,1.4123,1.403,1.36,1.2531,1.2271,1.1958,1.1354,1.0063,0.9147,0.8706,0.8328,0.8102,0.8271,0.8091,0.7991,0.8074,0.7966,0.8025,0.8025,0.8244,0.8365,0.8332,0.8734,0.8969,0.9211,0.9491,0.9902,1.0435,1.0925,1.1494,1.2081,1.1752,1.2078,1.2678,1.2572,1.2628,1.2732,1.2443,1.2552,1.2759,1.2301,1.2473,1.2978,1.348,1.3881,1.4319,1.5025,1.6084,1.6968,1.6797,1.7858,1.886,1.8443,1.8402,1.8433,1.8518,1.8176,1.7803,1.7669,1.8128,1.8322,1.7562,1.7386,1.7281,1.7158,1.7117,1.6991,1.6805,1.6548,1.6213,1.5783,1.5224,1.4842,1.4745,1.4297,1.3763,1.3175,1.3054,1.2569,1.1608,1.1557,1.1437,1.1178,1.121,1.1415,1.1811,1.2266,1.2463,1.237,1.1839,1.1646,0.4158,0.4865,0.5814,0.7731,0.876,0.0,0.0,1.352,1.4032,1.3878,1.4876,1.5395,1.4207,1.4474,1.5078,1.5748,1.5866,1.5998,1.648,1.569,1.4899,1.4505,1.4432,1.3916,1.2646,1.259,1.2183,1.0993,1.0019,0.9322,0.8993,0.8746,0.8713,0.8802,0.8522,0.8375,0.8375,0.8325,0.8327,0.8399,0.8604,0.8723,0.8695,0.9099,0.9327,0.9416,0.9765,1.0238,1.083,1.1241,1.1766,1.2218,1.2025,1.2344,1.2905,1.2682,1.259,1.2508,1.2348,1.2373,1.2462,1.2293,1.2508,1.3027,1.3835,1.4486,1.5096,1.5732,1.6321,1.6804,1.6763,1.7483,1.813,1.7674,1.7704,1.7881,1.7996,1.8076,1.8031,1.7708,1.8269,1.849,1.7595,1.741,1.7346,1.7216,1.7207,1.7133,1.6873,1.6753,1.6428,1.5783,1.5083,1.447,1.4035,1.3325,1.2735,1.2343,1.2208,1.1901,1.1316,1.1118,1.093,1.0801,1.0801,1.1015,1.1452,1.1811,1.2149,1.2435,1.2218,1.2223,0.323,0.3761,0.4626,0.6569,0.7734,0.9001,0.0,0.0,0.0,1.2858,1.4068,1.4905,1.3898,1.431,1.5125,1.6137,1.6308,1.6649,1.765,1.6256,1.5123,1.505,1.4925,1.4313,1.2916,1.2875,1.226,1.06,1.0128,0.9747,0.937,0.9347,0.9262,0.9262,0.9003,0.8821,0.8821,0.8742,0.8688,0.8837,0.9037,0.915,0.9122,0.9536,0.9685,0.9617,1.0061,1.0579,1.1152,1.1367,1.173,1.2155,1.227,1.2529,1.2797,1.2604,1.2359,1.2239,1.2256,1.2152,1.2087,1.2313,1.2663,1.3156,1.418,1.4979,1.5637,1.6101,1.6334,1.6502,1.6876,1.7153,1.7239,1.7033,1.7092,1.7289,1.7455,1.8017,1.8298,1.7759,1.8128,1.8315,1.7548,1.741,1.7371,1.7273,1.7257,1.7183,1.6956,1.6847,1.6412,1.5526,1.481,1.401,1.3103,1.2396,1.1837,1.1527,1.1362,1.1239,1.1062,1.0656,1.046,1.0523,1.046,1.0681,1.1132,1.1392,1.179,1.2282,1.2363,1.2565,0.3193,0.3648,0.4543,0.7062,0.7536,0.8251,1.1611,0.0,1.2553,1.3396,0.0,1.413,1.3789,0.0,0.0,1.5751,1.5978,1.6474,1.7648,1.6557,1.5589,1.5444,1.565,1.5045,1.3117,1.294,1.2414,1.1239,1.1039,1.0557,0.9648,0.9419,0.9262,0.9262,0.9393,0.9442,0.9194,0.9436,0.9453,0.9213,0.9412,0.9533,0.9583,0.9981,1.0068,1.0018,1.0353,1.064,1.0935,1.1062,1.1458,1.2038,1.2214,1.2201,1.2114,1.2401,1.2393,1.2299,1.2434,1.2355,1.2204,1.2344,1.2889,1.3594,1.3947,1.4465,1.4969,1.5248,1.5521,1.5801,1.6146,1.637,1.6584,1.6857,1.6968,1.7109,1.7434,1.7572,1.7595,1.7552,1.7602,1.7595,1.7505,1.7489,1.7465,1.7401,1.7265,1.7158,1.7009,1.6763,1.6538,1.6273,1.5509,1.4704,1.3919,1.3094,1.2281,1.1555,1.1376,1.1192,1.092,1.0496,1.0348,1.0583,1.0348,1.0581,1.1285,1.1262,1.1474,1.1891,1.2241,1.2542,0.2769,0.3099,0.388,0.6137,0.6858,0.7743,1.0527,1.1633,1.2078,1.1978,0.0,0.0,0.0,0.0,0.0,0.0,1.6099,1.6576,1.7074,1.7037,1.6598,1.5743,1.5507,1.5015,1.4175,1.3697,1.3111,1.2314,1.1718,1.0984,1.0193,0.9864,0.9689,0.9689,0.9752,0.9817,0.9733,0.9712,0.965,0.9566,0.9576,0.962,0.9625,0.9992,1.0159,1.013,1.0301,1.0647,1.1066,1.0965,1.1196,1.1702,1.1677,1.1826,1.2114,1.2072,1.2026,1.2061,1.2025,1.1924,1.179,1.2169,1.3011,1.3903,1.4027,1.4583,1.5161,1.5186,1.5344,1.5551,1.5811,1.6052,1.6301,1.6607,1.6789,1.6942,1.7208,1.7305,1.7353,1.7394,1.7353,1.7329,1.7386,1.7427,1.7427,1.7345,1.7199,1.7009,1.6866,1.6659,1.649,1.6289,1.5499,1.4837,1.4498,1.3623,1.2785,1.2014,1.1353,1.0873,1.0572,1.0323,1.0273,1.0424,1.0273,1.0472,1.1015,1.1062,1.1201,1.1407,1.197,1.2302,0.2794,0.2965,0.3607,0.5571,0.6514,0.7488,0.9646,1.087,1.1456,1.0982,1.2009,0.0,0.0,0.0,1.3879,1.4759,0.0,1.5992,1.5825,1.6306,1.6492,1.5848,1.5568,1.5523,1.5935,1.5144,1.4253,1.3412,1.2457,1.1595,1.0629,1.0299,1.0129,1.0041,1.0181,1.0154,0.9984,0.9943,0.9882,0.9662,0.9591,0.9606,0.9625,0.9992,1.0051,0.9967,1.0201,1.0541,1.0893,1.0746,1.099,1.1386,1.1115,1.1374,1.1882,1.1601,1.1528,1.1584,1.1526,1.15,1.1473,1.1888,1.283,1.3783,1.3819,1.4426,1.5043,1.4997,1.5072,1.5269,1.5463,1.5696,1.5968,1.6243,1.6485,1.6712,1.6935,1.7052,1.7117,1.7208,1.7142,1.7109,1.715,1.7216,1.7281,1.7216,1.7009,1.6841,1.667,1.6501,1.6355,1.6194,1.5573,1.5046,1.477,1.4121,1.3307,1.2309,1.1364,1.0681,1.0324,1.0286,1.0286,1.0349,1.0261,1.0398,1.0777,1.0825,1.092,1.1038,1.146,1.1703,0.3541,0.3673,0.4189,0.6032,0.6733,0.7494,0.9458,1.0084,1.0476,1.1219,1.1434,1.1647,1.2295,1.3049,1.3436,1.2962,1.3785,0.0,0.0,1.374,1.4393,1.5654,1.61,1.6931,1.8429,1.7392,1.5972,1.4468,1.3566,1.2365,1.0691,1.0622,1.0532,1.0263,1.0577,1.0458,1.0028,1.0403,1.0269,0.9572,0.9587,0.9601,0.962,0.9846,0.9742,0.9589,1.0188,1.0294,1.0034,1.035,1.0816,1.116,1.0695,1.0816,1.1191,1.0978,1.0871,1.0769,1.1006,1.13,1.1519,1.161,1.2174,1.2885,1.316,1.3682,1.4262,1.43,1.4525,1.4763,1.4982,1.5165,1.5404,1.5737,1.6034,1.6313,1.6644,1.6763,1.6841,1.6993,1.6892,1.6815,1.6815,1.6917,1.6993,1.6926,1.6738,1.6596,1.6528,1.6328,1.6179,1.6095,1.5955,1.5542,1.4691,1.4589,1.3855,1.2201,1.1353,1.0753,1.0399,1.0399,1.0424,1.0498,1.0299,1.0374,1.0705,1.0597,1.0621,1.0811,1.0627,1.0617,0.322,0.3431,0.3931,0.5159,0.6014,0.6991,0.8438,0.9379,1.0149,1.0912,1.1168,1.1528,1.2381,1.2449,1.2469,1.2697,1.3157,1.3288,0.0,1.3576,1.4925,1.6852,1.7037,1.7255,1.788,1.7655,1.6598,1.4372,1.3572,1.2439,1.0649,1.0411,1.0236,1.006,1.0338,1.0381,1.0207,1.0169,0.9942,0.9623,0.9426,0.9375,0.9374,0.9611,0.9675,0.973,0.9915,1.0054,1.0282,1.0369,1.0643,1.1019,1.0709,1.0662,1.0741,1.0453,1.0345,1.0377,1.0189,1.0418,1.0891,1.1079,1.1616,1.2306,1.2849,1.3378,1.3828,1.4007,1.4235,1.4447,1.4564,1.4814,1.509,1.5285,1.5623,1.5909,1.6074,1.6188,1.6313,1.6432,1.6297,1.6203,1.6421,1.6463,1.6517,1.6686,1.657,1.6463,1.6436,1.6262,1.6095,1.6039,1.5841,1.5443,1.4788,1.3768,1.2838,1.2133,1.1231,1.0597,1.0324,1.0236,1.0198,1.0173,1.0199,1.0287,1.0449,1.0474,1.0523,1.0594,0.994,1.0039,0.3011,0.3243,0.3711,0.464,0.5561,0.6607,0.8151,0.9111,1.005,1.1321,1.1509,1.1728,1.2682,1.2409,1.2057,1.2127,1.2279,1.2403,0.0,1.3524,1.5111,1.7342,1.7846,1.8427,1.9465,1.8667,1.7322,1.5418,1.3987,1.2342,1.0686,1.0423,1.0164,0.991,1.0102,1.0114,0.9951,0.9819,0.963,0.9381,0.9201,0.9162,0.9173,0.9421,0.9573,0.9634,0.9743,0.9977,1.023,1.0342,1.0636,1.1027,1.071,1.0653,1.0608,1.0028,0.9802,0.9811,0.958,0.9794,1.0286,1.0577,1.1132,1.1799,1.2461,1.3022,1.3467,1.3674,1.3908,1.4138,1.4176,1.442,1.4704,1.4797,1.515,1.5477,1.555,1.571,1.5883,1.6052,1.594,1.5807,1.5829,1.5783,1.5902,1.6416,1.6436,1.6355,1.6316,1.6179,1.6011,1.5854,1.5488,1.5002,1.4376,1.3136,1.2277,1.208,1.1182,1.0523,1.0299,1.0261,1.0248,1.0248,1.0386,1.0474,1.0548,1.0632,1.0548,1.0305,0.9898,0.9846]},{"header":{"parameterUnit":"m.s-1","parameterCategory":1,"la1":30.6,"la2":29.2853,"lo1":-89.7004,"lo2":-87.6739,"dy":0.0162,"dx":0.0183,"nx":112,"ny":82,"refTime":"2023-05-22T12:00:00:Z","depth":0,"parameterNumber":3,"parameterNumberName":"V-component_of_WINDS"},"data":[0.0,0.0,0.0,0.0,0.0,0.0,0.0,0.0,0.0,0.0,0.0,0.0,0.0,0.0,0.0,0.0,0.0,0.0,0.0,0.0,0.0,0.0,0.0,0.0,0.0,0.0,0.0,0.0,0.0,0.0,0.0,0.0,0.0,0.0,0.0,0.0,0.0,0.0,0.0,0.0,0.0,0.0,0.0,0.0,0.0,0.0,0.0,0.0,0.0,0.0,0.0,0.0,0.0,0.0,0.0,0.0,0.0,0.0,0.0,0.0,0.0,0.0,0.0,0.0,0.0,0.0,0.0,0.0,0.0,0.0,0.0,0.0,0.0,0.0,0.0,0.0,0.0,0.0,0.0,0.0,0.0,0.0,0.0,0.0,0.0,0.0,0.0,0.0,0.0,0.0,1.7983,1.765,1.3342,0.8221,0.2609,-0.1205,-0.5229,-0.9761,0.0,0.0,0.0,0.0,0.0,0.0,0.0,0.0,0.0,0.0,0.0,0.0,0.0,0.0,0.0,0.0,0.0,0.0,0.0,0.0,0.0,0.0,0.0,0.0,0.0,0.0,0.0,0.0,0.0,0.0,0.0,0.0,0.0,0.0,0.0,0.0,0.0,0.0,0.0,0.0,0.0,0.0,0.0,0.0,0.0,0.0,0.0,0.0,0.0,0.0,0.0,0.0,0.0,0.0,0.0,0.0,0.0,0.0,0.0,0.0,0.0,0.0,0.0,0.0,0.0,0.0,0.0,0.0,0.0,0.0,0.0,0.0,0.0,0.0,0.0,0.0,0.0,0.0,0.0,0.0,0.0,0.0,0.0,0.0,0.0,0.0,0.0,0.0,0.0,0.0,0.0,0.0,0.0,0.0,0.0,0.0,0.0,0.0,0.0,0.0,0.0,0.0,0.0,0.0,1.5957,1.3813,1.0352,0.6243,0.1368,-0.2775,-0.6432,-0.9566,0.0,0.0,0.0,0.0,0.0,0.0,0.0,0.0,0.0,0.0,0.0,0.0,0.0,0.0,0.0,0.0,0.0,0.0,0.0,0.0,0.0,0.0,0.0,0.0,0.0,0.0,0.0,0.0,0.0,0.0,0.0,0.0,0.0,0.0,0.0,0.0,0.0,0.0,0.0,0.0,0.0,0.0,0.0,0.0,0.0,0.0,0.0,0.0,0.0,0.0,0.0,0.0,0.0,0.0,0.0,0.0,0.0,0.0,0.0,0.0,0.0,0.0,0.0,0.0,0.0,0.0,0.0,0.0,0.0,0.0,0.0,0.0,0.0,0.0,0.0,0.0,0.0,0.0,0.0,0.0,0.0,0.0,0.0,0.0,0.0,0.0,0.0,0.0,0.0,0.0,0.0,0.0,0.0,0.0,0.0,0.0,0.0,0.0,0.0,0.0,0.0,0.0,0.0,1.5122,1.3912,1.2139,0.843,0.4683,0.1264,-0.358,-0.7438,-0.9817,-1.0053,0.0,0.0,0.0,0.0,0.0,0.0,0.0,0.0,0.0,0.0,0.0,0.0,0.0,0.0,0.0,0.0,0.0,0.0,0.0,0.0,0.0,0.0,0.0,0.0,0.0,0.0,0.0,0.0,0.0,0.0,0.0,0.0,0.0,0.0,0.0,0.0,0.0,0.0,0.0,0.0,0.0,0.0,0.0,0.0,0.0,0.0,0.0,0.0,0.0,0.0,0.0,0.0,0.0,0.0,0.0,0.0,0.0,0.0,0.0,0.0,0.0,0.0,0.0,0.0,0.0,0.0,0.0,0.0,0.0,0.0,0.0,0.0,0.0,0.0,0.0,0.0,0.0,0.0,0.0,0.0,0.0,0.0,0.0,0.0,0.0,0.0,0.0,0.0,0.0,0.0,0.0,0.0,0.0,0.0,0.0,0.0,0.0,0.0,0.0,0.0,0.0,0.0,1.328,1.1873,1.0876,0.6801,0.3237,0.0978,-0.4258,-0.8276,-1.0284,-1.1639,0.0,0.0,0.0,0.0,0.0,0.0,0.0,0.0,0.0,0.0,0.0,0.0,0.0,0.0,0.0,0.0,0.0,0.0,0.0,0.0,0.0,0.0,0.0,0.0,0.0,0.0,0.0,0.0,0.0,0.0,0.0,0.0,0.0,0.0,0.0,0.0,0.0,0.0,0.0,0.0,0.0,0.0,0.0,0.0,0.0,0.0,0.0,0.0,0.0,0.0,0.0,0.0,0.0,0.0,0.0,0.0,0.0,0.0,0.0,0.0,0.0,0.0,0.0,0.0,0.0,0.0,0.0,0.0,0.0,0.0,0.0,0.0,0.0,0.0,0.0,0.0,0.0,0.0,0.0,0.0,0.0,0.0,0.0,0.0,0.0,0.0,0.0,0.0,0.0,0.0,0.0,0.0,0.0,0.0,0.0,0.0,0.0,0.0,0.0,0.0,0.0,0.0,1.1826,0.9863,0.9233,0.5197,0.1749,-0.0306,-0.5117,-0.8893,-1.0901,-1.1843,0.0,0.0,0.0,0.0,0.0,0.0,0.0,0.0,0.0,0.0,0.0,0.0,0.0,0.0,0.0,0.0,0.0,0.0,0.0,0.0,0.0,0.0,0.0,0.0,0.0,0.0,0.0,0.0,0.0,0.0,0.0,0.0,0.0,0.0,0.0,0.0,0.0,0.0,0.0,0.0,0.0,0.0,0.0,0.0,0.0,0.0,0.0,0.0,0.0,0.0,0.0,0.0,0.0,0.0,0.0,0.0,0.0,0.0,0.0,0.0,0.0,0.0,0.0,0.0,0.0,0.0,0.0,0.0,0.0,0.0,0.0,0.0,0.0,0.0,0.0,0.0,0.0,0.0,0.0,0.0,0.0,0.0,0.0,0.0,0.0,0.0,0.0,0.0,0.0,0.0,0.0,0.0,0.0,0.0,0.0,0.0,0.0,0.0,0.0,0.0,0.0,0.0,1.1146,0.9293,0.8016,0.4216,0.1035,-0.0748,-0.5718,-0.9294,-1.0639,0.0,0.0,0.0,0.0,0.0,0.0,0.0,0.0,0.0,0.0,0.0,0.0,0.0,0.0,0.0,0.0,0.0,0.0,0.0,0.0,0.0,0.0,0.0,0.0,0.0,0.0,0.0,0.0,0.0,0.0,0.0,0.0,0.0,0.0,0.0,0.0,0.0,0.0,0.0,0.0,0.0,0.0,0.0,0.0,0.0,0.0,0.0,0.0,0.0,0.0,0.0,0.0,0.0,0.0,0.0,0.0,0.0,0.0,0.0,0.0,0.0,0.0,0.0,0.0,0.0,0.0,0.0,0.0,0.0,0.0,0.0,0.0,0.0,0.0,0.0,0.0,0.0,0.0,0.0,0.0,0.0,0.0,0.0,0.0,0.0,0.0,0.0,0.0,0.0,0.0,0.0,0.0,0.0,0.0,0.0,0.0,0.0,0.0,0.0,0.0,0.0,0.0,1.2881,1.0895,0.8804,0.6785,0.3217,0.0265,-0.1513,-0.6275,-0.965,-1.078,0.0,0.0,0.0,0.0,0.0,0.0,0.0,0.0,0.0,0.0,0.0,0.0,0.0,0.0,0.0,0.0,0.0,0.0,0.0,0.0,0.0,0.0,0.0,0.0,0.0,0.0,0.0,0.0,0.0,0.0,0.0,0.0,0.0,0.0,0.0,0.0,0.0,0.0,0.0,0.0,0.0,0.0,0.0,0.0,0.0,0.0,0.0,0.0,0.0,0.0,0.0,0.0,0.0,0.0,0.0,0.0,0.0,0.0,0.0,0.0,0.0,0.0,0.0,0.0,0.0,0.0,0.0,0.0,0.0,0.0,0.0,0.0,0.0,0.0,0.0,0.0,0.0,0.0,0.0,0.0,0.0,0.0,0.0,0.0,0.0,0.0,0.0,0.0,0.0,0.0,0.0,0.0,0.0,0.0,0.0,0.0,0.0,0.0,0.0,0.0,0.0,0.0,1.3428,1.1037,0.8268,0.5473,0.2139,-0.0705,-0.2726,-0.6828,-0.9951,0.0,0.0,0.0,0.0,0.0,0.0,0.0,0.0,0.0,0.0,0.0,0.0,0.0,0.0,0.0,0.0,0.0,0.0,0.0,0.0,0.0,0.0,0.0,0.0,0.0,0.0,0.0,0.0,0.0,0.0,0.0,0.0,0.0,0.0,0.0,0.0,0.0,0.0,0.0,0.0,0.0,0.0,0.0,0.0,0.0,0.0,0.0,0.0,0.0,0.0,0.0,0.0,0.0,0.0,0.0,0.0,0.0,0.0,0.0,0.0,0.0,0.0,0.0,0.0,0.0,0.0,0.0,0.0,0.0,0.0,0.0,0.0,0.0,0.0,0.0,0.0,0.0,0.0,0.0,0.0,0.0,0.0,0.0,0.0,0.0,0.0,0.0,0.0,0.0,0.0,0.0,0.0,0.0,0.0,0.0,0.0,0.0,0.0,0.0,0.0,0.0,0.0,0.0,1.2811,1.1321,0.8954,0.5102,0.2325,-0.0376,-0.3092,-0.6873,-0.9746,-1.1299,0.0,0.0,0.0,0.0,0.0,0.0,0.0,0.0,0.0,0.0,0.0,0.0,0.0,0.0,0.0,0.0,0.0,0.0,0.0,0.0,0.0,0.0,0.0,0.0,0.0,0.0,0.0,0.0,0.0,0.0,0.0,0.0,0.0,0.0,0.0,0.0,0.0,0.0,0.0,0.0,0.0,0.0,0.0,0.0,0.0,0.0,0.0,0.0,0.0,0.0,0.0,0.0,0.0,0.0,0.0,0.0,0.0,0.0,0.0,0.0,0.0,0.0,0.0,0.0,0.0,0.0,0.0,0.0,0.0,0.0,0.0,0.0,0.0,0.0,0.0,0.0,0.0,0.0,0.0,0.0,0.0,0.0,0.0,0.0,0.0,0.0,0.0,0.0,0.0,0.0,0.0,0.0,0.0,0.0,0.0,0.0,0.0,0.0,0.0,0.0,0.0,0.0,1.2507,1.1336,0.9262,0.5541,0.2607,-0.0326,-0.3401,-0.6631,-0.9205,-1.0918,0.0,0.0,0.0,0.0,0.0,0.0,0.0,0.0,0.0,0.0,0.0,0.0,0.0,0.0,0.0,0.0,0.0,0.0,0.0,0.0,0.0,0.0,0.0,0.0,0.0,0.0,0.0,0.0,0.0,0.0,0.0,0.0,0.0,0.0,0.0,0.0,0.0,0.0,0.0,0.0,0.0,0.0,0.0,0.0,0.0,0.0,0.0,0.0,0.0,0.0,0.0,0.0,0.0,0.0,0.0,0.0,0.0,0.0,0.0,0.0,0.0,0.0,0.0,0.0,0.0,0.0,0.0,0.0,0.0,0.0,0.0,0.0,0.0,0.0,0.0,0.0,0.0,0.0,0.0,0.0,0.0,0.0,0.0,0.0,0.0,0.0,0.0,0.0,0.0,0.0,0.0,0.0,0.0,0.0,0.0,0.0,0.0,0.0,0.0,0.0,0.0,0.0,1.2338,1.1225,0.9372,0.6259,0.2925,-0.0413,-0.3688,-0.6241,-0.8536,-1.061,0.0,0.0,0.0,0.0,0.0,0.0,0.0,0.0,0.0,0.0,0.0,0.0,0.0,0.0,0.0,0.0,0.0,0.0,0.0,0.0,0.0,0.0,0.0,0.0,0.0,0.0,0.0,0.0,0.0,0.0,0.0,0.0,0.0,0.0,0.0,0.0,0.0,0.0,0.0,0.0,0.0,0.0,0.0,0.0,0.0,0.0,0.0,0.0,0.0,0.0,0.0,0.0,0.0,0.0,0.0,0.0,0.0,0.0,0.0,0.0,-1.508,-1.6289,0.0,0.0,0.0,0.0,0.0,0.0,0.0,0.0,0.0,0.0,0.0,0.0,0.0,0.0,0.0,0.0,0.0,0.0,0.0,0.0,0.0,0.0,0.0,0.0,0.0,0.0,0.0,0.0,0.0,0.0,0.0,0.0,0.0,0.0,0.0,0.0,0.0,0.0,0.0,0.0,1.1471,1.1517,0.9919,0.5189,0.2919,0.0082,-0.402,-0.6232,-0.864,-1.1579,-1.3733,0.0,0.0,0.0,0.0,0.0,0.0,0.0,0.0,0.0,0.0,0.0,0.0,0.0,0.0,0.0,0.0,0.0,0.0,0.0,0.0,0.0,0.0,0.0,0.0,0.0,0.0,0.0,0.0,0.0,0.0,0.0,0.0,0.0,0.0,0.0,0.0,0.0,0.0,0.0,0.0,0.0,0.0,0.0,0.0,0.0,0.0,0.0,0.0,0.0,0.0,0.0,0.0,0.0,0.0,0.0,0.0,0.0,0.0,0.0,-1.4462,-1.6034,0.0,0.0,0.0,0.0,0.0,0.0,0.0,0.0,0.0,0.0,0.0,0.0,0.0,0.0,0.0,0.0,0.0,0.0,0.0,0.0,0.0,0.0,0.0,0.0,0.0,0.0,0.0,0.0,0.0,0.0,0.0,0.0,0.0,0.0,0.0,0.0,0.0,0.0,0.0,0.0,1.2971,1.1764,0.9097,0.4158,0.2414,-0.0419,-0.5466,-0.6914,-0.8993,-1.2413,-1.4091,0.0,0.0,0.0,0.0,0.0,0.0,0.0,0.0,0.0,0.0,0.0,0.0,0.0,0.0,0.0,0.0,0.0,0.0,0.0,0.0,0.0,0.0,0.0,0.0,0.0,0.0,0.0,0.0,0.0,0.0,0.0,0.0,0.0,0.0,0.0,0.0,0.0,0.0,0.0,0.0,0.0,0.0,0.0,0.0,0.0,0.0,0.0,0.0,0.0,0.0,0.0,0.0,0.0,-0.4726,-0.5828,-0.6754,-0.7196,-0.8814,-1.129,-1.2335,-1.4606,-1.7562,-1.7636,0.0,0.0,0.0,0.0,0.0,0.0,0.0,0.0,0.0,0.0,0.0,0.0,0.0,0.0,0.0,0.0,0.0,0.0,0.0,0.0,0.0,0.0,1.0053,0.8609,0.7982,0.7459,0.6309,0.0,0.0,0.0,0.0,0.0,0.0,0.0,0.0,0.0,0.0,0.0,1.4328,1.1736,0.814,0.381,0.2068,-0.0918,-0.6199,-0.7393,-0.9301,-1.2668,-1.3929,-1.4998,0.0,0.0,0.0,0.0,0.0,0.0,0.0,0.0,0.0,0.0,0.0,0.0,0.0,0.0,0.0,0.0,0.0,0.0,0.0,0.0,0.0,0.0,0.0,0.0,0.0,0.0,0.0,0.0,0.0,0.0,0.0,0.0,-0.0454,0.0833,0.0,0.0,0.0,0.0,0.0,0.0,0.0,0.0,0.0,0.0,0.0,0.0,0.0,0.3263,0.2097,-0.0225,-0.1549,-0.1909,-0.3822,-0.4801,-0.4975,-0.5594,-0.6574,-0.7891,-1.02,0.0,-1.7413,-1.8327,0.0,0.0,0.0,0.0,0.0,0.0,0.0,0.0,0.0,0.0,0.0,0.0,0.0,0.0,0.0,0.0,0.0,0.0,0.0,0.0,0.0,0.0,0.8768,0.8531,0.7648,0.662,0.5672,0.459,0.3452,0.2267,0.1864,0.1953,0.0,0.0,0.0,0.0,0.0,0.0,1.2022,1.0796,0.8605,0.5491,0.2832,-0.0058,-0.3377,-0.6419,-0.9146,-1.1484,-1.2604,-1.3885,-1.5517,-1.4945,0.0,0.0,0.0,0.0,0.0,0.0,0.0,0.0,0.0,0.0,0.0,0.0,0.0,0.0,0.0,0.0,0.0,0.0,0.0,0.0,0.0,0.0,0.0,0.0,0.0,0.0,0.0,0.0,0.0,-0.0077,0.1194,0.3517,0.4483,0.554,0.0,0.0,0.0,0.0,0.0,0.0,0.0,0.0,0.0,0.6699,0.559,0.4318,0.2935,0.1489,0.0427,-0.026,-0.1728,-0.2731,-0.3312,-0.3412,-0.4642,-0.6727,-0.8161,-1.085,-1.4412,-1.6273,-1.6813,-1.6378,0.0,0.0,0.0,0.0,-1.4115,-1.401,-1.3856,-1.425,-1.4684,-1.4112,0.0,0.0,0.0,0.0,0.0,0.0,0.0,0.6149,0.7563,0.8175,0.8466,0.8484,0.7792,0.6907,0.5971,0.5081,0.399,0.2438,0.2048,0.2112,0.2546,0.3701,0.0,0.0,0.0,0.9998,1.0051,0.8551,0.6653,0.4448,0.2031,-0.0478,-0.305,-0.6014,-0.8588,-1.0544,-1.179,-1.3112,-1.4543,-1.4778,-1.56,0.0,0.0,0.0,0.0,0.0,0.0,0.0,0.0,0.0,0.0,0.0,0.0,0.0,0.0,0.0,0.0,0.0,0.0,0.0,0.0,0.0,0.0,0.0,0.0,0.0,0.0,0.0,0.0,0.1442,0.2627,0.5377,0.5974,0.6699,0.0,0.0,0.0,0.0,0.0,0.0,1.0609,0.961,0.8636,0.7686,0.6537,0.5308,0.4032,0.3083,0.2122,0.118,0.0904,0.0097,-0.1141,-0.094,-0.2502,-0.5394,-0.6132,-0.8196,-1.1231,-1.387,-1.49,-1.4685,-1.3552,-1.2842,-1.2523,-1.3231,-1.3687,-1.4036,-1.4511,-1.4839,-1.5055,-1.4945,-1.4124,-1.2823,-1.0819,0.0,0.0,0.0,0.0,0.5393,0.6469,0.7325,0.7979,0.8048,0.7634,0.7008,0.6178,0.5419,0.4436,0.2887,0.247,0.2428,0.2588,0.3797,0.0,0.5033,0.7462,0.9053,0.8412,0.6952,0.5248,0.3393,0.1221,-0.0914,-0.2942,-0.5715,-0.803,-0.9625,-1.1178,-1.2597,-1.3868,-1.4794,-1.5879,-1.7223,0.0,0.0,0.0,0.0,0.0,0.0,0.0,0.0,0.0,0.0,0.0,0.0,0.0,0.0,0.0,0.0,0.0,0.0,0.0,0.0,0.0,0.0,0.0,0.0,0.0,0.0,0.0,0.0,0.0,0.4984,0.554,0.0,0.0,0.0,0.0,1.0937,1.1165,1.1159,1.0886,1.0351,0.9689,0.894,0.738,0.6271,0.5681,0.4011,0.2846,0.2239,0.3916,0.3754,0.1974,0.1793,0.0069,-0.2861,-0.4167,-0.622,-0.8904,-1.1972,-1.2673,-1.1806,-1.1582,-1.1154,-1.0793,-1.2163,-1.2963,-1.3498,-1.4539,-1.506,-1.5274,-1.5197,-1.3772,-1.1544,-0.866,-0.579,0.0,0.0,0.2607,0.4432,0.562,0.6343,0.6805,0.6926,0.6694,0.6337,0.59,0.5219,0.4435,0.3599,0.292,0.2556,0.2675,0.0,0.3581,0.5703,0.5985,0.6283,0.7242,0.6942,0.5759,0.3442,0.1054,-0.0916,-0.2243,-0.5342,-0.7632,-0.8618,-1.0652,-1.2457,-1.3931,-1.488,-1.6265,-1.8101,-1.9201,0.0,0.0,0.0,0.0,0.0,0.0,0.0,0.0,0.0,0.0,0.0,0.0,0.0,0.0,0.0,0.0,0.0,0.0,0.0,0.0,0.0,0.0,0.0,0.0,0.0,0.0,0.0,0.0,0.7301,0.7437,0.0,0.8797,0.9784,1.0467,1.0719,1.1132,1.122,1.086,1.0409,0.9698,0.87,0.7526,0.6637,0.6071,0.5149,0.4734,0.481,0.4327,0.3773,0.3166,0.3052,0.1279,-0.1748,-0.2564,-0.4137,-0.6157,-0.6603,-0.7796,-0.942,-1.0103,-1.0376,-1.0599,-1.2381,-1.3237,-1.3655,-1.4764,-1.521,-1.5156,-1.4265,-1.2697,-1.0678,-0.808,-0.542,-0.278,-0.0437,0.16,0.3379,0.4639,0.5453,0.5965,0.6318,0.6413,0.6391,0.6398,0.581,0.5004,0.4105,0.3412,0.291,0.2845,0.3269,0.3863,0.4683,0.5419,0.6041,0.6471,0.5988,0.4987,0.3365,0.1316,-0.0672,-0.2466,-0.5244,-0.7348,-0.8457,-1.068,-1.2152,-1.2691,-1.4737,-1.6291,-1.7227,-1.918,-2.0781,0.0,0.0,0.0,0.0,0.0,0.0,0.0,0.0,0.0,0.0,0.0,0.0,0.0,0.0,0.0,0.0,0.0,0.0,0.0,0.0,0.0,0.0,0.0,0.0,0.0,0.7425,0.759,0.8671,0.863,0.878,0.9462,1.0212,1.0643,1.0568,1.1059,1.1339,1.1307,1.0385,0.964,0.9162,0.8468,0.7839,0.7258,0.6406,0.6363,0.7101,0.6045,0.5529,0.5427,0.4697,0.2799,0.0036,-0.0205,-0.1405,-0.3161,-0.2881,-0.4309,-0.6824,-0.8195,-0.9287,-1.0292,-1.1642,-1.2649,-1.349,-1.4869,-1.5126,-1.4684,-1.3555,-1.1931,-1.0001,-0.7888,-0.5458,-0.302,-0.1222,0.0587,0.2258,0.3597,0.4416,0.5069,0.5582,0.5864,0.6058,0.616,0.5684,0.5024,0.4281,0.3677,0.3203,0.3031,0.3443,0.3761,0.3833,0.4751,0.5348,0.4997,0.4255,0.3412,0.2548,0.0719,-0.1213,-0.311,-0.5545,-0.7488,-0.8701,-1.0749,-1.2107,-1.2595,-1.4858,-1.6553,-1.7521,-1.9975,-2.1679,-2.2509,0.0,0.0,0.0,0.0,0.0,0.0,0.0,0.0,0.0,0.0,0.0,0.0,0.0,0.0,0.0,0.0,0.0,0.0,0.0,0.0,0.0,0.0,0.0,0.9822,0.9316,0.9073,0.8869,0.8894,0.9101,0.9562,1.0555,1.0971,1.0513,1.096,1.1527,1.218,1.0335,0.9593,1.0333,1.017,0.9812,0.9262,0.7717,0.7599,0.889,0.9218,0.921,0.8846,0.6853,0.4733,0.2629,0.2889,0.1881,-0.0,-0.1016,-0.239,-0.4054,-0.588,-0.7909,-0.9813,-0.9875,-1.1098,-1.2943,-1.4706,-1.472,-1.3832,-1.3146,-1.1496,-0.9499,-0.7944,-0.5833,-0.3672,-0.206,-0.0415,0.118,0.2456,0.3394,0.4207,0.4736,0.5054,0.5233,0.5108,0.4833,0.4462,0.4062,0.367,0.3341,0.3214,0.3143,0.3142,0.3231,0.3861,0.0,0.2823,0.1883,0.121,0.0982,-0.0758,-0.2537,-0.4108,-0.6261,-0.805,-0.9258,-1.0841,-1.2355,-1.3739,-1.5275,-1.7072,-1.9173,-2.1562,-2.3204,-2.4024,0.0,0.0,0.0,0.0,0.0,0.0,0.0,0.0,0.0,0.0,0.0,0.0,0.0,0.0,0.0,0.0,0.0,0.0,0.0,0.0,0.0,1.2773,1.2116,1.1286,1.0553,1.0046,0.983,0.9455,0.9326,0.9714,1.0063,1.0182,1.0012,1.0128,1.0235,1.0268,1.023,0.9997,0.9551,0.9381,0.9017,0.8431,0.8084,0.8086,0.8388,0.8731,0.9017,0.922,0.7779,0.644,0.5164,0.3505,0.2413,0.1958,0.3829,0.15,-0.3477,-0.5725,-0.7874,-0.9758,-1.0025,-1.125,-1.2831,-1.3295,-1.3203,-1.2736,-1.1609,-1.0475,-0.9152,-0.7266,-0.5581,-0.3946,-0.2286,-0.083,0.0541,0.1759,0.2627,0.3372,0.392,0.4288,0.4586,0.4642,0.4548,0.4317,0.3893,0.337,0.2986,0.2868,0.2766,0.2651,0.2406,0.2646,0.2746,0.2391,0.1769,0.1014,0.0087,-0.1099,-0.2751,-0.5012,-0.7071,-0.8761,-1.0019,-1.1787,-1.3088,-1.3772,-1.5198,-1.6947,-1.9098,-2.0034,-2.1197,0.0,0.0,0.0,0.0,0.0,0.0,0.0,0.0,0.0,0.0,0.0,0.0,0.0,0.0,0.0,0.0,0.0,0.0,0.0,0.0,0.0,0.0,1.3991,1.3235,1.2224,1.1228,1.0429,0.9998,0.9609,0.952,0.9853,0.9941,1.0194,1.0679,1.0247,1.0189,1.0692,1.1088,1.1139,1.072,1.0662,1.0295,0.9619,0.8968,0.8569,0.8464,0.8895,0.9028,0.8846,0.8157,0.7462,0.6696,0.5485,0.4809,0.4661,0.6025,0.387,-0.068,0.0,0.0,0.0,0.0,-1.1074,-1.225,-1.2207,-1.2016,-1.1618,-1.0558,-0.9436,-0.8177,-0.6565,-0.511,-0.3731,-0.2366,-0.1075,0.0129,0.1277,0.2146,0.281,0.3404,0.3863,0.4147,0.4136,0.4134,0.3998,0.3571,0.3008,0.0,0.243,0.2266,0.2037,0.1749,0.1662,0.1626,0.1572,0.1057,0.0279,-0.079,-0.1691,-0.335,-0.6154,-0.7387,0.0,0.0,0.0,-1.2997,-1.4327,-1.5867,0.0,0.0,0.0,-1.973,-2.082,-2.1036,0.0,0.0,-2.1881,-2.0871,0.0,0.0,0.0,0.0,0.0,0.0,0.0,0.0,0.0,0.0,0.0,0.0,0.0,0.0,0.0,0.0,1.5062,1.4389,1.2734,1.1575,1.0573,0.9717,0.9577,0.9662,0.9976,1.0183,1.0758,1.1895,1.1239,1.1296,1.2461,1.2441,0.0,0.0,0.0,1.2369,1.1631,1.0046,0.9182,0.9038,0.956,0.9368,0.8559,0.8447,0.8034,0.7473,0.7872,0.7878,0.7535,0.6796,0.5465,0.3241,-0.3299,-0.6025,-0.6575,-0.9052,-1.0479,-1.1145,-1.1042,0.0,0.0,-0.9596,-0.8325,-0.6901,-0.58,-0.4543,-0.3317,-0.2307,-0.1241,-0.012,0.0959,0.1742,0.2427,0.2991,0.3464,0.3678,0.3528,0.3539,0.3453,0.314,0.2512,0.1992,0.1854,0.159,0.1346,0.1208,0.0871,0.0599,0.0569,0.0065,-0.064,-0.1543,-0.2568,0.0,-0.7233,-0.7552,-0.862,-1.1005,-1.1472,-1.2671,-1.4936,-1.6572,-1.7317,-1.7124,-1.7896,-1.8493,-1.8885,-1.8943,-1.9266,-1.9803,-2.0464,-2.024,0.0,0.0,0.0,0.0,0.0,0.0,0.0,0.0,0.0,0.0,0.0,0.0,0.0,0.0,0.0,1.5147,1.4628,1.3761,1.2734,1.233,1.1544,0.9868,0.9775,0.9865,0.9991,1.088,1.1599,1.1908,1.3465,1.4064,1.3336,1.3062,1.2733,1.2244,1.187,1.1541,1.1222,1.0565,1.0286,1.0415,1.0429,0.0,1.1361,1.0083,0.8863,0.7799,0.7719,0.8099,0.8812,0.927,0.8197,0.5461,-0.2481,-0.5543,-0.5771,-0.7819,-0.8787,-0.8963,-0.8218,-0.839,-0.8735,-0.7524,-0.6865,-0.6312,-0.5029,-0.4152,0.0,-0.2049,-0.12,-0.0498,0.0466,0.1143,0.162,0.2019,0.246,0.2737,0.2653,0.2747,0.268,0.2324,0.1855,0.138,0.0874,0.0737,0.0652,0.0503,0.029,0.0036,-0.0234,-0.0237,-0.0651,-0.1799,-0.4045,-0.5982,-0.7225,-0.8604,-0.9833,-1.0887,-1.2799,-1.3895,-1.3918,-1.4715,-1.5227,-1.5387,-1.5675,-1.6217,-1.7036,-1.7363,-1.7627,-1.7893,-1.9094,-1.9276,0.0,0.0,0.0,0.0,0.0,0.0,0.0,0.0,0.0,0.0,0.0,1.3863,1.4407,0.0,1.4693,1.517,1.4861,1.4233,1.3335,1.3204,1.254,1.0713,1.0929,1.124,1.1344,1.1932,1.2508,1.2962,1.3677,1.4165,1.4335,1.3774,1.3384,1.3261,1.3014,1.2926,1.2959,1.2823,1.2666,1.2559,1.2491,1.2493,1.252,1.1472,1.0531,0.9686,0.939,0.9461,0.977,0.9505,0.8275,0.6116,0.1761,-0.1934,-0.4949,-0.6147,-0.711,-0.7527,-0.5659,-0.5895,-0.6886,-0.5914,-0.5507,-0.5192,-0.4037,-0.3296,-0.2634,-0.1676,-0.0999,-0.0434,0.0283,0.0743,0.1133,0.1469,0.1762,0.1945,0.1975,0.1954,0.1903,0.1745,0.1158,0.0629,0.0349,-0.0093,-0.0391,-0.0362,-0.0575,-0.0873,-0.1203,-0.1076,-0.1462,-0.2803,-0.3967,-0.5305,-0.6907,-0.865,-0.99,-1.051,-1.2254,-1.3168,-1.2962,-1.3571,-1.3987,-1.4162,-1.4295,-1.4755,-1.5532,-1.5676,-1.6056,-1.6596,-1.7379,-1.7776,0.0,0.0,0.0,0.0,0.0,0.0,0.0,1.5089,1.5068,1.5133,1.5149,1.5167,1.5219,1.5251,1.5286,1.5218,1.5186,1.4847,1.3908,1.4125,1.3785,1.2223,1.2343,1.2602,1.2717,1.2916,1.3334,1.4059,1.3607,1.3855,1.5128,1.4473,1.4249,1.4677,1.4628,1.4738,1.5105,1.5124,1.4946,1.4551,1.4546,1.4076,1.3135,1.277,1.2235,1.1623,1.1321,1.0905,1.0364,0.9256,0.8085,0.6911,0.6343,0.293,-0.1829,-0.3093,-0.4656,-0.5818,-0.3474,-0.3641,-0.4825,-0.4414,-0.4195,-0.3922,-0.3079,-0.2415,-0.1871,-0.1278,-0.0805,-0.0368,0.0077,0.0389,0.0671,0.0985,0.1127,0.1249,0.1316,0.1235,0.1122,0.1183,0.0484,-0.01,-0.0099,-0.0814,-0.1341,-0.1138,-0.1381,-0.1713,-0.1997,-0.1916,-0.2326,-0.3598,-0.3564,-0.4397,-0.67,-0.8378,-0.9484,-0.99,-1.1063,-1.1821,-1.2029,-1.2595,-1.3028,-1.3213,-1.332,-1.3748,-1.4452,-1.4357,-1.4783,-1.5694,-1.5762,-1.6353,-0.255,0.3906,1.024,1.1987,1.3219,1.4222,0.0,1.5192,1.5267,1.5277,1.5325,1.5341,1.531,1.5295,1.5282,1.5216,1.516,1.4788,1.3833,1.5046,1.5693,1.4782,1.3558,1.2761,1.2799,1.3503,1.4001,1.4082,1.4737,1.5136,1.5206,1.5038,1.5181,1.5721,1.5435,1.5558,1.6128,1.5852,1.5609,1.5449,1.5452,1.495,1.404,1.3994,1.3308,1.2133,1.2204,1.1473,1.023,1.0018,0.9848,0.9629,0.8459,0.7867,0.7187,0.3089,-0.0264,-0.2665,-0.204,-0.2086,-0.245,-0.2673,-0.2859,-0.2869,-0.2286,-0.1883,-0.154,-0.1008,-0.077,-0.0584,-0.022,-0.0114,-0.0039,0.0118,0.0314,0.0502,0.0445,0.0475,0.0503,0.0445,-0.0034,-0.0529,-0.0753,-0.1319,-0.17,-0.155,-0.1776,-0.2005,-0.2153,-0.2268,-0.2523,-0.3044,-0.3909,-0.5204,-0.708,-0.8297,-0.8952,-0.8962,-1.0152,-1.0899,-1.1043,-1.1424,-1.1937,-1.2608,-1.2567,-1.3007,-1.3988,-1.4013,-1.4361,-1.4915,-1.4891,-1.5671,0.1997,0.6282,1.0152,1.2641,1.4,1.4811,1.5138,1.5262,1.5308,1.5292,1.5286,1.5448,1.5949,1.5605,1.5407,1.5889,1.5478,1.4947,1.4528,1.5494,1.6143,1.5901,1.5738,1.5478,1.5043,1.5389,1.5403,1.4898,1.567,1.5882,1.529,1.5647,1.5932,1.6074,1.6329,1.6688,1.7156,1.7009,1.6972,1.7113,1.6725,1.6274,1.5797,1.519,1.4772,1.449,1.4084,1.3243,1.2148,1.1815,1.1657,1.1594,1.0939,1.0263,0.915,0.4946,0.2182,0.0495,0.0199,-0.0176,-0.0625,-0.1076,-0.1414,-0.156,-0.1173,-0.1068,-0.1029,-0.07,-0.065,-0.0666,-0.0543,-0.0543,-0.058,-0.0448,-0.0367,-0.0321,-0.021,-0.0243,-0.0311,-0.037,-0.0838,-0.1252,-0.1459,-0.1923,-0.2252,-0.2251,-0.2512,-0.2774,-0.2993,-0.293,-0.2985,-0.331,-0.4303,-0.5423,-0.6628,-0.7344,-0.8005,-0.8634,-0.9227,-0.9807,-1.0406,-1.0832,-1.1269,-1.1748,-1.2024,-1.2328,-1.2683,-1.3139,-1.3689,-1.4362,-1.4781,-1.5542,0.5658,0.7936,0.9687,1.2477,1.3695,1.4325,1.4783,1.4899,1.4937,1.5154,1.5342,1.568,1.6387,1.6174,1.6106,1.675,1.6069,1.5434,1.5395,1.6078,1.6632,1.674,1.7522,1.7843,1.7318,1.7118,1.6748,1.612,1.6639,1.6675,1.6002,1.6463,1.6688,1.6533,1.7194,1.7678,1.7909,1.8021,1.8181,1.8353,1.7871,1.7467,1.713,1.626,1.5987,1.6183,1.5635,1.4777,1.372,1.3299,1.2956,1.2683,1.2525,1.1573,0.9932,0.6805,0.4573,0.2987,0.2179,0.146,0.0813,0.0151,-0.0186,-0.0326,-0.0292,-0.0426,-0.0547,-0.0484,-0.0591,-0.0732,-0.0809,-0.0971,-0.109,-0.1079,-0.1155,-0.1148,-0.0924,-0.0916,-0.1007,-0.1071,-0.1473,-0.1803,-0.1913,-0.2274,-0.2595,-0.2644,-0.2891,-0.3149,-0.3386,-0.3264,-0.3334,-0.372,-0.4528,-0.5389,-0.6284,-0.665,-0.7281,-0.8278,-0.8414,-0.8825,-0.965,-1.0002,-1.0486,-1.1188,-1.1576,-1.1907,-1.2095,-1.2713,-1.3233,-1.374,-1.458,-1.5188,0.7196,0.8936,1.0278,1.1155,1.1405,1.1848,1.3478,1.3851,1.405,1.4762,1.5575,1.6195,1.6284,1.7028,1.7651,1.775,1.6977,1.6357,1.6363,1.7042,1.7588,1.7651,1.8434,1.8946,1.8923,1.8227,1.7754,1.7734,1.768,1.7658,1.7638,1.7645,1.7577,1.7369,1.8086,1.8357,1.8185,1.8767,1.8959,1.8771,1.8771,1.8342,1.7572,1.7198,1.6734,1.6199,1.6378,1.5556,1.4082,1.3997,1.3452,1.268,1.2613,1.1963,1.094,0.9916,0.7457,0.4494,0.3491,0.2626,0.1796,0.088,0.0693,0.0742,0.015,-0.0106,-0.0227,-0.0364,-0.0556,-0.0783,-0.1097,-0.1378,-0.1665,-0.1978,-0.2029,-0.194,-0.1795,-0.1601,-0.1507,-0.1573,-0.1811,-0.2007,-0.2006,-0.229,-0.2494,-0.2498,-0.2622,-0.2763,-0.2895,-0.303,-0.3376,-0.4101,-0.445,-0.512,-0.6391,-0.6624,-0.6993,-0.768,-0.7783,-0.8062,-0.8624,-0.8599,-0.9399,-1.1178,-1.123,-1.1777,-1.2871,-1.3075,-1.3131,-1.305,-1.3925,-1.4326,0.9686,1.0516,1.1031,1.1873,1.197,1.2087,1.3055,1.3131,1.3225,1.4017,1.4474,1.5178,1.6633,1.6849,1.7243,1.8464,1.7942,1.7353,1.7281,1.8452,1.9141,1.8687,1.9832,2.0473,1.9983,1.9163,1.8392,1.7783,1.8248,1.8301,1.7728,1.8171,1.8398,1.8327,1.9044,1.9348,1.9207,1.9396,1.9357,1.9064,1.9064,1.9054,1.9063,1.9041,1.8661,1.8073,1.8212,1.7662,1.6561,1.5964,1.5543,1.5216,1.4528,1.3365,1.2045,1.1596,0.9617,0.6927,0.5291,0.4107,0.3213,0.2543,0.1822,0.1168,0.0896,0.0459,0.0,-0.0255,-0.052,-0.0822,-0.1279,-0.1647,-0.1991,-0.2441,-0.2643,-0.2723,-0.2659,-0.2424,-0.2264,-0.233,-0.2291,-0.2259,-0.2273,-0.2544,-0.2826,-0.3,-0.2801,-0.2756,-0.3121,-0.3096,-0.3216,-0.3685,-0.3939,-0.4456,-0.5421,-0.6079,-0.6678,-0.7268,-0.7908,-0.8426,-0.8781,-0.8909,-0.9635,-1.1036,-1.1102,-1.1514,-1.2297,-1.282,-1.3029,-1.3034,-1.3664,-1.399,1.0809,1.1177,1.1351,1.1808,1.1706,1.1636,1.2221,1.2108,1.2131,1.2998,1.3634,1.4632,1.659,1.7366,1.8235,1.9816,1.9627,1.9257,1.9179,2.0092,2.0605,2.0119,2.0974,2.1411,2.0914,2.0074,1.9424,1.9076,1.928,1.9277,1.9046,1.9179,1.9125,1.8821,1.9582,1.9796,1.9371,1.9665,1.9695,1.9409,1.9387,1.9548,1.988,2.0002,1.9694,1.9051,1.9146,1.8728,1.7884,1.7313,1.688,1.6521,1.5854,1.4558,1.3012,1.2566,1.1112,0.9057,0.6942,0.5554,0.4568,0.3622,0.2683,0.1822,0.1265,0.0671,0.0096,-0.0379,-0.0753,-0.1139,-0.1794,-0.2273,-0.2677,-0.3135,-0.3392,-0.3505,-0.327,-0.3005,-0.2784,-0.2671,-0.2572,-0.2527,-0.2528,-0.264,-0.2795,-0.2984,-0.2697,-0.2638,-0.3161,-0.318,-0.323,-0.3477,-0.375,-0.4227,-0.504,-0.5617,-0.6326,-0.7235,-0.7798,-0.83,-0.8737,-0.8858,-0.9405,-1.0432,-1.0512,-1.0839,-1.1455,-1.19,-1.2092,-1.2087,-1.2649,-1.2902,1.0685,1.0912,1.1164,1.0886,1.0546,1.0429,1.0977,1.0761,1.0776,1.1813,1.3087,1.4551,1.6139,1.8431,2.0467,2.1542,2.1814,2.1869,2.1865,2.1894,2.1891,2.1814,2.1847,2.1806,2.1651,2.0914,2.0776,2.1498,2.0704,2.0535,2.1349,2.0614,1.9783,1.8945,1.9743,1.9762,1.8869,1.9602,1.9936,1.982,1.9744,1.9821,2.0019,2.015,1.9838,1.9176,1.9246,1.8826,1.8125,1.7958,1.7411,1.6654,1.6495,1.5403,1.3801,1.2925,1.1978,1.0772,0.8418,0.6915,0.5754,0.4129,0.3272,0.2625,0.133,0.0588,0.0063,-0.0681,-0.1187,-0.17,-0.2585,-0.322,-0.3681,-0.3968,-0.4221,-0.4245,-0.3605,-0.3333,-0.3113,-0.2692,-0.2671,-0.2737,-0.2831,-0.2613,-0.2462,-0.2519,-0.2353,-0.242,-0.3021,-0.3265,-0.3427,-0.352,-0.3884,-0.4426,-0.5194,-0.5308,-0.5946,-0.7411,-0.7425,-0.7709,-0.8452,-0.8427,-0.8762,-0.9527,-0.9529,-0.9868,-1.0543,-1.0527,-1.0479,-1.0429,-1.0988,-1.1212,1.0779,1.042,1.0169,0.9746,0.923,0.8952,0.946,0.9201,0.9284,1.069,1.2249,1.3769,1.5126,1.8,2.0307,2.0689,2.1893,2.2753,2.2708,2.3242,2.3199,2.1959,2.2337,2.2172,2.0852,2.1066,2.1596,2.2334,2.1578,2.1167,2.1388,2.1139,2.0899,2.0678,2.026,1.9945,1.9705,1.9793,1.9885,1.9945,1.9821,1.9933,2.0208,2.0255,2.0235,2.0138,2.0157,2.0057,1.9759,1.8431,1.7761,1.7435,1.6113,1.4966,1.3939,1.3002,1.2077,1.1028,0.9463,0.7726,0.6089,0.5254,0.3871,0.2391,0.1651,0.0911,0.0174,-0.0606,-0.1253,-0.1875,-0.2564,-0.3274,-0.3946,-0.4488,-0.4686,-0.4726,-0.4568,-0.4017,-0.345,-0.3058,-0.2956,-0.3005,-0.3271,-0.3011,-0.2821,-0.3004,-0.259,-0.2488,-0.3097,-0.3178,-0.3375,-0.3898,-0.4124,-0.442,-0.4824,-0.5453,-0.5941,-0.6238,-0.6847,-0.7488,-0.818,-0.8196,-0.8815,-1.014,-0.9963,-1.0246,-1.1014,-1.0779,-1.0639,-1.0623,-1.0638,-1.0515,1.0543,1.0112,0.9765,0.9215,0.8547,0.8157,0.8607,0.824,0.8308,1.0057,1.1386,1.2771,1.4538,1.7747,2.0262,2.0752,2.2703,2.4149,2.4101,2.4524,2.4471,2.3533,2.3467,2.3086,2.2075,2.1698,2.1666,2.2048,2.201,2.2106,2.2446,2.2073,2.1678,2.1282,2.0831,2.0432,2.0049,1.9969,1.9939,2.0,1.9981,2.0079,2.0269,2.0315,2.0391,2.0461,2.0499,2.0477,2.0351,1.8984,1.8203,1.7715,1.6386,1.5155,1.3983,1.3083,1.2151,1.1134,0.9754,0.8065,0.6438,0.5895,0.4438,0.2698,0.1728,0.0813,-0.0064,-0.1078,-0.1913,-0.2657,-0.3361,-0.4153,-0.4918,-0.5429,-0.5457,-0.5295,-0.503,-0.4523,-0.3938,-0.341,-0.339,-0.3564,-0.3963,-0.3829,-0.3671,-0.3602,-0.3649,-0.3741,-0.3846,-0.3783,-0.4098,-0.5092,-0.5051,-0.5024,-0.5219,-0.5379,-0.5603,-0.5919,-0.6362,-0.6938,-0.7637,-0.7598,-0.797,-0.8842,-0.8947,-0.9219,-0.9701,-0.9772,-0.9814,-0.9814,-0.9656,-0.9464,1.021,0.9872,0.9604,0.8855,0.8115,0.7651,0.7993,0.7625,0.7774,0.9705,1.0753,1.2006,1.4274,1.7644,2.037,2.1204,2.3645,2.5449,2.5464,2.5465,2.5425,2.5309,2.4574,2.401,2.382,2.2536,2.1627,2.1458,2.2293,2.298,2.3434,2.3001,2.2323,2.1396,2.1242,2.0948,2.0413,2.0203,2.0125,2.0164,2.0174,2.0188,2.0205,2.0328,2.039,2.0398,2.0464,2.0386,2.0146,1.9275,1.8395,1.7528,1.6711,1.5454,1.3982,1.3105,1.219,1.1167,0.9642,0.8162,0.6809,0.618,0.4773,0.3064,0.1658,0.0535,-0.051,-0.1749,-0.2756,-0.3628,-0.4435,-0.5326,-0.6074,-0.6385,-0.6259,-0.5876,-0.5229,-0.4766,-0.429,-0.3724,-0.3888,-0.4247,-0.4725,-0.4866,-0.4764,-0.43,-0.4861,-0.521,-0.4818,-0.4774,-0.5263,-0.6544,-0.624,-0.5975,-0.6052,-0.5364,-0.5268,-0.6042,-0.6049,-0.635,-0.712,-0.7138,-0.7127,-0.7136,-0.7548,-0.7794,-0.7843,-0.8331,-0.8625,-0.8705,-0.8587,-0.8501,1.0144,0.9516,0.8882,0.7692,0.7093,0.6794,0.6824,0.7046,0.7736,0.9365,1.1158,1.286,1.4264,1.7849,2.0672,2.0942,2.3343,2.5213,2.5321,2.5332,2.5059,2.4345,2.4062,2.3629,2.2836,2.3091,2.2962,2.2187,2.2892,2.2848,2.1632,2.2804,2.3113,2.223,2.0819,2.0717,2.2076,2.0717,2.037,2.107,2.0413,2.0144,2.02,2.0292,2.0347,2.0408,2.041,1.9968,1.9177,1.8308,1.7426,1.6561,1.5705,1.4818,1.3917,1.3042,1.2098,1.1057,0.9729,0.8506,0.7365,0.6201,0.4294,0.2299,0.1647,0.0519,-0.076,-0.1803,-0.2846,-0.3828,-0.464,-0.5659,-0.6457,-0.636,-0.6281,-0.604,-0.5269,-0.4408,-0.378,-0.3765,-0.4256,-0.4809,-0.5281,-0.5783,-0.5821,-0.4977,-0.4691,-0.4713,-0.5077,-0.5715,-0.6389,-0.7034,-0.6868,-0.6768,-0.688,-0.6104,-0.573,-0.5999,-0.6059,-0.6485,-0.7399,-0.7987,-0.8304,-0.8296,-0.8177,-0.8091,-0.8045,-0.7931,-0.8193,-0.8781,-0.8757,-0.864,0.9538,0.8672,0.7838,0.6815,0.6236,0.6044,0.6449,0.6798,0.7586,0.9516,1.0888,1.2143,1.3383,1.6457,1.9044,1.974,2.2093,2.4085,2.4916,2.4953,2.4815,2.4594,2.4476,2.4239,2.3777,2.3634,2.3361,2.2961,2.2801,2.2445,2.177,2.2448,2.272,2.2363,2.1499,2.148,2.2388,2.1228,2.0816,2.118,2.0429,2.006,2.0088,2.0169,2.0192,2.0185,2.0227,1.9704,1.8774,1.7938,1.7068,1.6155,1.4845,1.385,1.3061,1.2187,1.1289,1.0344,0.9487,0.8726,0.7943,0.687,0.4883,0.2782,0.2045,0.0832,-0.0624,-0.2213,-0.3128,-0.3934,-0.5365,-0.601,-0.6377,-0.6748,-0.6401,-0.5749,-0.4881,-0.4449,-0.4297,-0.4497,-0.4932,-0.5515,-0.6312,-0.6499,-0.6147,-0.4921,-0.4492,-0.429,-0.426,-0.5266,-0.6317,-0.7207,-0.706,-0.6961,-0.7138,-0.6515,-0.6159,-0.6296,-0.6282,-0.6499,-0.7057,-0.7361,-0.74,-0.7145,-0.736,-0.7473,-0.7475,-0.7734,-0.82,-0.8857,-0.8925,-0.8897,0.9012,0.8058,0.7127,0.6275,0.5703,0.5515,0.6259,0.6618,0.7406,0.9451,1.0325,1.1154,1.2503,1.4759,1.6971,1.8628,2.0717,2.2701,2.4381,2.4535,2.4618,2.4987,2.494,2.487,2.487,2.4155,2.3649,2.3535,2.2428,2.2006,2.2497,2.2241,2.2297,2.2783,2.2393,2.2389,2.2819,2.1714,2.1224,2.135,2.0388,1.9928,1.9945,1.9972,1.9954,1.9906,1.9783,1.9211,1.8297,1.7473,1.6611,1.5666,1.4114,1.3149,1.2503,1.1367,1.0557,0.9912,0.9236,0.8796,0.8415,0.767,0.5792,0.3614,0.2608,0.1301,-0.0268,-0.2429,-0.3291,-0.3995,-0.597,-0.636,-0.6382,-0.6815,-0.6178,-0.5178,-0.4104,-0.3882,-0.4015,-0.4432,-0.4683,-0.519,-0.6366,-0.6431,-0.5824,-0.4369,-0.3991,-0.3696,-0.3169,-0.4053,-0.5196,-0.6412,-0.6706,-0.6943,-0.7242,-0.6749,-0.6477,-0.6587,-0.6527,-0.6554,-0.6741,-0.6851,-0.6607,-0.5989,-0.6523,-0.6864,-0.6974,-0.754,-0.8223,-0.9005,-0.9099,-0.9154,0.9099,0.8227,0.7453,0.6289,0.5727,0.5554,0.5813,0.6392,0.7262,0.8566,0.9591,1.0746,1.2246,1.3479,1.5304,1.8403,1.9868,2.1409,2.375,2.4278,2.4519,2.4794,2.4808,2.4808,2.4808,2.4727,2.4373,2.3644,2.2036,2.1709,2.3129,2.2455,2.275,2.4335,2.2906,2.2862,2.4463,2.2173,2.1416,2.2171,2.0515,1.972,1.9738,1.9676,1.9638,1.9588,1.8873,1.8057,1.7186,1.6306,1.5403,1.4471,1.3587,1.3309,1.3163,1.1183,1.0559,1.0521,0.9121,0.866,0.8637,0.8301,0.6526,0.4308,0.3252,0.1931,0.0352,-0.193,-0.3103,-0.4114,-0.592,-0.6744,-0.6868,-0.5967,-0.5226,-0.4297,-0.2797,-0.1691,-0.1241,-0.2122,-0.2122,-0.2452,-0.3962,-0.4696,-0.4606,-0.3257,-0.2934,-0.2668,-0.2195,-0.218,-0.2633,-0.3665,-0.543,-0.6792,-0.7428,-0.6874,-0.6525,-0.6595,-0.6706,-0.6802,-0.6874,-0.7737,-0.7701,-0.6547,-0.6766,-0.6984,-0.718,-0.7177,-0.7935,-0.9362,-0.9296,-0.9322,0.9626,0.8677,0.7663,0.6345,0.572,0.5414,0.5394,0.5777,0.6444,0.7614,0.8378,0.9316,1.0998,1.1926,1.349,1.6674,1.7804,1.9301,2.2378,2.295,2.3456,2.4498,2.4716,2.4842,2.4903,2.4842,2.4454,2.3606,2.3376,2.3289,2.33,2.2442,2.25,2.3731,2.3622,2.3845,2.4526,2.3108,2.2271,2.2039,2.0819,1.9944,1.9405,1.938,1.9074,1.8558,1.8241,1.7348,1.612,1.5815,1.5123,1.4138,1.2757,1.2484,1.2562,1.0273,1.0102,1.079,0.9476,0.946,0.9983,0.9757,0.876,0.7343,0.5544,0.4184,0.2972,0.1617,-0.0518,-0.2616,-0.3666,-0.5055,-0.5934,-0.5036,-0.3711,-0.2377,-0.1334,-0.0514,-0.0081,-0.0375,-0.0777,-0.1397,-0.2448,-0.2919,-0.284,-0.1897,-0.122,-0.0781,-0.0631,-0.09,-0.1356,-0.1943,-0.3917,-0.5506,-0.6286,-0.64,-0.6466,-0.6532,-0.6591,-0.6667,-0.6786,-0.7243,-0.7076,-0.6189,-0.6934,-0.7256,-0.7141,-0.777,-0.86,-0.963,-0.9612,-0.9889,1.0324,0.9203,0.7922,0.6561,0.576,0.524,0.4922,0.4985,0.5399,0.6397,0.7058,0.7935,0.953,1.0274,1.1719,1.4975,1.6185,1.7861,2.1255,2.2311,2.3194,2.4414,2.4968,2.5191,2.5042,2.4953,2.4661,2.4028,2.4289,2.4308,2.3832,2.2887,2.2752,2.3537,2.4149,2.4446,2.4409,2.3611,2.2747,2.1832,2.0919,1.9996,1.9082,1.9086,1.8711,1.8068,1.785,1.6967,1.5695,1.55,1.4896,1.394,1.2492,1.231,1.2565,1.0232,1.0322,1.1384,1.0157,1.0342,1.1137,1.0972,1.0751,1.0208,0.8553,0.7101,0.5815,0.4818,0.2197,-0.0474,-0.1129,-0.2196,-0.3004,-0.2591,-0.113,0.0302,0.08,0.1419,0.1805,0.1543,0.1078,0.0387,-0.0651,-0.0867,-0.077,-0.0377,0.0304,0.0689,0.0512,0.0089,-0.0332,-0.0698,-0.2176,-0.3646,-0.4896,-0.5606,-0.5971,-0.5965,-0.6124,-0.6241,-0.6257,-0.6524,-0.6467,-0.603,-0.6905,-0.739,-0.7452,-0.8232,-0.9035,-0.9868,-0.985,-1.0326,1.117,0.9777,0.8277,0.7016,0.5903,0.4947,0.4417,0.4145,0.4173,0.4798,0.5712,0.6785,0.7998,0.8622,1.006,1.3556,1.5409,1.7501,2.0666,2.2783,2.4155,2.4642,2.5649,2.5971,2.5178,2.5163,2.5149,2.5082,2.4283,2.4138,2.494,2.4025,2.3771,2.4375,2.4394,2.4394,2.4394,2.3473,2.2573,2.1696,2.068,1.9705,1.8806,1.8806,1.8695,1.8452,1.7716,1.6941,1.6131,1.5324,1.4537,1.3739,1.2984,1.318,1.363,1.1559,1.1591,1.2476,1.1152,1.1174,1.1783,1.1708,1.2032,1.2435,1.2208,1.0596,0.8532,0.6913,0.4523,0.2247,0.1308,0.1781,0.2375,0.1869,0.2813,0.3827,0.3768,0.4588,0.4991,0.3794,0.3832,0.3508,0.1772,0.1576,0.1573,0.1323,0.1463,0.1424,0.0959,0.0825,0.06,0.0132,-0.0219,-0.1311,-0.3441,-0.4479,-0.4934,-0.4729,-0.528,-0.5491,-0.5223,-0.5789,-0.6178,-0.6295,-0.6633,-0.7293,-0.8285,-0.8367,-0.8952,-0.9999,-1.0003,-1.045,1.1662,1.0442,0.9012,0.7488,0.5939,0.4696,0.4139,0.349,0.3211,0.4108,0.4697,0.5625,0.7561,0.8427,1.0397,1.5124,1.6559,1.8442,2.2335,2.3558,2.4413,2.5342,2.5939,2.5996,2.5251,2.5195,2.5187,2.518,2.4828,2.4714,2.4912,2.4494,2.4351,2.4545,2.4478,2.4428,2.4339,2.3989,2.307,2.1643,2.1225,2.0263,1.8861,1.8733,1.832,1.7733,1.7449,1.6589,1.5359,1.5065,1.4459,1.3663,1.2823,1.2902,1.3289,1.1578,1.1859,1.2928,1.163,1.1784,1.2563,1.2622,1.2807,1.3099,1.3773,1.2666,1.043,0.6931,0.5446,0.4286,0.1638,0.1803,0.2701,0.2808,0.4247,0.5641,0.5766,0.6811,0.7517,0.6809,0.6507,0.5815,0.4112,0.3587,0.3101,0.2188,0.1949,0.1796,0.1604,0.1648,0.1579,0.1284,0.0966,-0.0172,-0.2458,-0.3257,-0.3733,-0.3989,-0.4452,-0.4777,-0.4923,-0.5336,-0.57,-0.6018,-0.6855,-0.7478,-0.7885,-0.8691,-0.941,-1.0026,-1.0701,-1.0834,1.1316,1.0371,0.8946,0.7326,0.5878,0.4655,0.3999,0.332,0.3129,0.3958,0.452,0.5495,0.7577,0.8842,1.1011,1.5319,1.7136,1.9281,2.2968,2.4192,2.5273,2.682,2.6635,2.6345,2.6228,2.5891,2.5688,2.5704,2.5888,2.5988,2.592,2.5737,2.5625,2.5592,2.4845,2.441,2.4339,2.4247,2.3474,2.2026,2.1605,2.0677,1.9253,1.8894,1.8375,1.7803,1.7784,1.7027,0.0,1.5818,1.5347,1.4563,1.3715,1.3606,1.3784,1.2515,1.2652,1.337,1.2582,1.2772,1.3382,1.3461,1.3566,1.3774,1.4456,1.3793,1.2183,0.897,0.7988,0.732,0.4857,0.4988,0.571,0.5506,0.6864,0.811,0.7723,0.8359,0.8772,0.8042,0.7701,0.6958,0.5162,0.4754,0.4192,0.2875,0.251,0.2332,0.2259,0.2241,0.2267,0.232,0.1981,0.1063,-0.0663,-0.1664,-0.2379,-0.2799,-0.3295,-0.3686,-0.3953,-0.4514,-0.5078,-0.5624,-0.6591,-0.735,-0.7858,-0.8815,-0.9473,-0.9874,-1.0847,-1.1196,0.0,0.9645,0.8367,0.6774,0.5732,0.4881,0.4049,0.3746,0.0,0.4361,0.5242,0.6399,0.8191,1.0011,1.2163,1.4998,1.7664,2.035,2.3064,2.4875,2.6676,2.8651,2.7534,2.6918,2.7729,2.6998,2.65,2.6504,2.723,2.7662,2.7613,2.7471,2.7343,2.7215,2.5518,2.456,2.4486,2.4358,2.3765,2.2718,2.1951,2.104,2.0,1.9308,1.8858,1.8612,1.8545,1.8067,1.7324,1.7327,1.687,1.6148,1.5409,1.5113,1.5027,1.4267,1.3965,1.3912,1.3912,1.3991,1.4123,1.41,1.4222,1.4378,1.4334,1.4062,1.3534,1.2344,1.1499,1.0773,0.9951,1.0237,1.0468,0.9367,1.0157,1.082,0.9565,0.9354,0.9071,0.7904,0.7773,0.7213,0.5251,0.5199,0.4927,0.3447,0.3147,0.3035,0.2874,0.2719,0.2789,0.3199,0.2853,0.2323,0.1675,0.0172,-0.0906,-0.1272,-0.1887,-0.2334,-0.2507,-0.3406,-0.4277,-0.5113,-0.5977,-0.696,-0.8062,-0.8721,-0.9207,-0.9548,-1.0444,-1.1337,0.7904,0.0,0.814,0.7194,0.6092,0.524,0.0,0.0,0.0,0.0,0.0,0.9115,1.1322,1.3313,1.5964,1.9975,2.2133,2.4058,2.6304,2.7504,2.8088,2.7948,2.7631,2.7261,2.688,2.6638,2.6493,2.65,2.7205,2.7597,2.7533,2.7415,2.732,2.7288,2.6743,2.6115,2.5411,2.5319,2.4469,2.2923,2.2648,2.2044,2.1169,2.0227,1.9774,1.9682,1.8905,1.8177,1.7524,1.7453,1.7043,1.6413,1.6215,1.6145,1.6114,1.5949,1.5499,1.5028,1.5024,1.4716,1.4312,1.4211,1.4154,1.4024,1.3656,1.3159,1.2603,1.224,1.1303,1.0362,1.0259,1.0332,1.0365,1.0202,1.04,1.0579,1.0251,1.0409,1.0194,0.8783,0.8911,0.8523,0.6328,0.5947,0.5574,0.4487,0.4185,0.392,0.3464,0.3694,0.3808,0.3598,0.3529,0.3319,0.2906,0.1497,0.037,-0.0218,-0.0603,-0.1044,-0.1594,-0.2418,-0.3353,-0.4406,-0.5873,-0.6933,-0.7561,-0.8188,-0.8638,-0.892,-0.9349,-0.9696,0.66,0.8331,0.9707,0.8956,0.8399,0.8131,0.8478,0.0,0.0,0.0,0.0,1.164,1.3912,1.6377,1.9099,2.2187,2.415,2.5991,2.8013,2.9021,2.9359,2.8853,2.8498,2.8122,2.765,2.7605,2.7605,2.7612,2.8311,2.8732,2.8688,2.8585,2.8487,2.8435,2.835,2.7679,2.6356,2.6284,2.5542,2.4137,2.3732,2.3033,2.208,2.1207,2.0807,2.0678,1.9737,1.9146,1.8806,1.8323,1.7946,1.7617,1.7271,1.7127,1.7059,1.6712,1.633,1.5948,1.5564,1.4936,1.4275,1.4385,1.4081,1.3601,1.3227,1.2722,1.2252,1.1995,1.1215,1.0486,1.0524,1.0532,1.0545,1.0608,1.0632,1.0621,1.0572,1.0705,1.0467,0.9105,0.9305,0.9077,0.7069,0.6661,0.6287,0.5302,0.4987,0.4673,0.4164,0.4363,0.444,0.4187,0.4073,0.3917,0.3647,0.2831,0.1937,0.098,0.0672,0.0301,-0.017,-0.1021,-0.2291,-0.398,-0.5268,-0.6282,-0.7036,-0.746,-0.8003,-0.8653,-0.858,-0.9122,0.6467,0.9599,1.2321,1.0894,1.1176,1.1822,1.1847,0.0,0.0,0.0,0.0,0.0,1.6787,1.9541,2.1979,2.3534,2.5348,2.7255,2.9166,2.9953,3.0343,3.0425,2.9564,2.8957,2.8924,2.8911,2.8897,2.8897,2.9656,3.0102,3.0087,2.9978,2.9876,2.9825,2.9756,2.9007,2.7526,2.7306,2.6712,2.5689,2.4967,2.4082,2.3083,2.2264,2.1808,2.1642,2.077,2.0409,2.0427,1.9632,1.9272,1.9162,1.8556,1.8195,1.7914,1.7288,1.6965,1.6721,1.5908,1.5016,1.4296,1.4585,1.4042,1.321,1.2914,1.2556,1.2164,1.1695,1.1265,1.0897,1.0801,1.0825,1.0873,1.0825,1.0825,1.0777,1.0656,1.0632,1.0312,0.9142,0.9316,0.9123,0.7523,0.7264,0.695,0.6064,0.5759,0.543,0.4903,0.4928,0.4938,0.476,0.4527,0.4305,0.4081,0.3952,0.341,0.2288,0.1948,0.1574,0.1128,0.0194,-0.132,-0.3447,-0.4326,-0.5247,-0.6274,-0.6553,-0.7218,-0.8257,-0.796,-0.8819,0.8517,1.2564,1.5246,1.1197,1.1955,1.3663,1.3571,0.0,0.0,0.0,0.0,0.0,2.1796,2.3545,2.5129,2.7008,2.8161,2.9409,3.1138,3.0846,3.0702,3.1302,2.9914,2.8931,2.8983,2.8883,2.8846,2.8893,2.966,3.0087,3.0022,2.994,2.9907,2.9872,2.9806,2.966,2.9396,2.8595,2.7681,2.6693,2.5875,2.5319,2.4922,2.3418,2.2648,2.2461,2.1585,2.1241,2.1298,2.1225,2.0824,2.0273,2.0276,1.9719,1.8888,1.8707,1.8138,1.7342,1.6488,1.5609,1.483,1.4658,1.3939,1.3039,1.2626,1.2266,1.1949,1.1474,1.1415,1.1437,1.1247,1.1215,1.1155,1.0944,1.0873,1.0849,1.0777,1.0545,1.0091,0.9152,0.914,0.8901,0.7747,0.7535,0.7416,0.7024,0.6785,0.6365,0.5571,0.5764,0.5713,0.5026,0.4853,0.4675,0.4362,0.4273,0.406,0.3709,0.3271,0.2464,0.1238,0.0174,-0.091,-0.1995,-0.3081,-0.3996,-0.4734,-0.5399,-0.6071,-0.6744,-0.7191,-0.7598,0.9696,1.3741,1.7013,1.5246,1.6323,1.7893,0.0,0.0,0.0,0.0,0.0,2.1309,2.3888,2.6015,2.795,2.9796,3.0412,3.0887,3.1598,3.1746,3.1712,3.1517,3.0767,3.0056,2.9594,2.9478,2.9483,2.9531,2.9829,3.0003,3.0049,2.9972,2.994,3.0007,2.991,2.9842,2.9842,2.9344,2.8596,2.7587,2.6823,2.608,2.5384,2.4595,2.393,2.3393,2.297,2.2589,2.2227,2.1735,2.1316,2.1007,2.1094,2.0515,1.9579,1.9075,1.8235,1.7327,1.7251,1.6113,1.4693,1.4773,1.393,1.2748,1.2368,1.2138,1.197,1.1578,1.1489,1.1452,1.1247,1.1155,1.1108,1.0968,1.0763,1.057,1.0496,1.0122,0.9652,0.905,0.8847,0.8623,0.8214,0.791,0.7691,0.7692,0.7412,0.6975,0.6291,0.6346,0.6275,0.5809,0.5433,0.5174,0.5065,0.4833,0.4455,0.3924,0.3696,0.3108,0.2056,0.1113,0.0174,-0.0818,-0.1982,-0.3016,-0.3864,-0.4423,-0.5323,-0.6505,-0.6418,-0.6966,1.0943,1.4392,1.7761,1.9026,0.0,0.0,0.0,0.0,0.0,0.0,0.0,2.3151,2.531,2.7923,3.0201,3.1564,3.1941,3.2097,3.2179,3.257,3.2651,3.2087,3.1622,3.1085,3.0396,3.0102,2.9988,3.0072,3.0007,2.9988,3.0094,3.0003,2.9988,3.0102,3.001,2.9945,2.9893,2.9792,2.9326,2.8501,2.7718,2.6878,2.5974,2.5794,2.5311,2.4563,2.4361,2.3961,2.3378,2.2425,2.1895,2.1656,2.1732,2.104,1.9915,1.898,1.8079,1.7351,1.7813,1.6588,1.488,1.5114,1.4126,1.2748,1.2411,1.2213,1.2027,1.1682,1.1466,1.133,1.1132,1.1015,1.0944,1.0897,1.057,1.026,1.016,0.9727,0.9227,0.8903,0.8568,0.8393,0.8488,0.8195,0.8014,0.8163,0.7921,0.7516,0.6925,0.6846,0.6754,0.6455,0.5875,0.5526,0.5514,0.5315,0.4909,0.4258,0.3958,0.3505,0.2868,0.2048,0.1205,0.0322,-0.0933,-0.206,-0.3025,-0.3501,-0.4533,-0.6055,-0.5607,-0.6319,1.2722,1.4819,1.7124,2.0179,2.1719,0.0,2.2299,2.1896,0.0,2.3277,0.0,2.446,2.7031,2.9663,3.1496,3.168,3.2338,3.309,3.3897,3.3264,3.3015,3.3806,3.2317,3.1251,3.1291,3.0459,2.9921,3.0007,3.0072,3.0087,3.0102,3.0087,3.0087,3.0102,3.0087,3.0022,2.9888,2.9893,2.9717,2.9399,2.8519,2.7992,2.7693,2.696,2.6491,2.6289,2.5458,2.509,2.496,2.4021,2.3138,2.2427,2.2488,2.137,1.9603,1.8627,1.8069,1.7837,1.7822,1.7099,1.6132,1.5908,1.4751,1.3372,1.3037,1.2543,1.2027,1.1623,1.1399,1.1262,1.1062,1.0897,1.0777,1.0597,1.0373,1.016,1.0046,0.9544,0.9016,0.8684,0.841,0.8215,0.8215,0.8365,0.8456,0.8473,0.8449,0.814,0.7372,0.7299,0.7132,0.6548,0.5944,0.5486,0.524,0.5538,0.5666,0.549,0.4425,0.3627,0.3275,0.2417,0.1805,0.1476,0.0119,-0.1026,-0.1926,-0.2636,-0.35,-0.4471,-0.4734,-0.531,1.4051,1.6667,1.9214,2.0984,2.2726,0.0,0.0,2.37,2.3896,2.4488,2.5034,2.6358,2.9429,3.0767,3.1776,3.2891,3.3317,3.3647,3.3976,3.412,3.411,3.3941,3.3249,3.2609,3.2074,3.1718,3.1526,3.1607,3.118,3.0924,3.1016,3.0476,3.0157,3.0152,3.0109,3.0083,3.0022,2.9893,2.9736,2.9551,2.8651,2.8103,2.7938,2.7561,2.7031,2.6428,2.6096,2.5612,2.502,2.4142,2.3505,2.295,2.19,2.0643,1.9352,1.8523,1.7954,1.7572,1.7526,1.6898,1.6052,1.5751,1.4908,1.386,1.3145,1.275,1.2441,1.2047,1.1514,1.1015,1.0897,1.0559,1.0223,1.0122,0.9725,0.9292,0.9224,0.8805,0.8389,0.8107,0.7927,0.785,0.7994,0.8166,0.8365,0.8544,0.8477,0.8301,0.7966,0.7797,0.757,0.7209,0.6436,0.5839,0.565,0.56,0.5599,0.5662,0.4894,0.4357,0.4171,0.3203,0.2535,0.223,0.1005,-0.0217,-0.1432,-0.2045,-0.2979,-0.4165,-0.4258,-0.4652,1.5542,1.8329,2.1028,2.2143,0.0,0.0,2.5179,2.5163,2.5234,2.5803,2.6599,2.8038,3.0848,3.1546,3.2143,3.3601,3.4058,3.4232,3.427,3.4694,3.4792,3.4224,3.3884,3.3468,3.288,3.2612,3.2545,3.2622,3.2138,3.1891,3.2006,3.141,3.0923,3.0649,3.0595,3.0424,3.0132,2.9959,2.9806,2.9644,2.8952,2.8533,2.8365,2.8257,2.7834,2.7177,2.6599,2.5986,2.5298,2.4183,2.345,2.2881,2.1334,2.0152,1.9154,1.8396,1.7822,1.7384,1.7296,1.6832,1.6201,1.5886,1.524,1.4455,1.3727,1.3295,1.2995,1.2614,1.1948,1.1337,1.1172,1.0483,0.9828,0.9724,0.9224,0.8734,0.8606,0.8269,0.7898,0.7666,0.7588,0.7647,0.7869,0.8109,0.8347,0.8617,0.8617,0.8533,0.8365,0.8166,0.7819,0.732,0.6734,0.6262,0.5916,0.5833,0.5838,0.5947,0.5501,0.5089,0.4807,0.3897,0.3267,0.2986,0.1724,0.0551,-0.0562,-0.1276,-0.2255,-0.346,-0.3348,-0.3567,1.7349,1.9568,2.2107,2.3779,0.0,0.0,2.6544,2.6153,2.5951,2.7427,2.8364,2.9394,3.101,3.1963,3.2779,3.3577,3.4395,3.4945,3.5075,3.4927,3.481,3.4889,3.4074,3.3563,3.3695,3.2991,3.258,3.2707,3.2771,3.2828,3.2891,3.2891,3.2506,3.1623,3.1603,3.1148,3.0223,3.0068,2.9924,2.9808,2.9589,2.9411,2.92,2.9112,2.9021,2.8814,2.7004,2.6204,2.6054,2.432,2.303,2.2091,2.1033,2.0022,1.9104,1.8217,1.7704,1.7384,1.724,1.7018,1.6779,1.649,1.5867,1.5169,1.4863,1.4251,1.3561,1.3265,1.2816,1.2312,1.1919,1.0759,0.9644,0.9378,0.9015,0.8628,0.8386,0.7994,0.7666,0.7549,0.749,0.7598,0.784,0.8184,0.8495,0.8761,0.8905,0.8861,0.8439,0.8336,0.7832,0.6648,0.6794,0.669,0.5969,0.6336,0.6573,0.649,0.6249,0.5788,0.5032,0.4358,0.3952,0.3809,0.229,0.1286,0.0796,-0.0264,-0.123,-0.2096,-0.1827,-0.1944,1.7713,2.0144,2.2914,2.361,0.0,0.0,0.0,2.7679,0.0,2.9794,2.982,3.0229,3.2501,3.3034,3.3409,3.426,3.46,3.4769,3.4749,3.4728,3.4708,3.4689,3.4482,3.4391,3.447,3.4302,3.4223,3.4397,3.3926,3.3427,3.2935,3.2904,3.2513,3.1698,3.1584,3.1397,3.112,3.0319,2.9891,2.9808,2.9645,2.9453,2.927,2.9112,2.8975,2.8814,2.7004,2.6175,2.5973,2.4112,2.2847,2.2023,2.0941,1.9952,1.9013,1.815,1.7658,1.7361,1.7142,1.7025,1.6863,1.6463,1.6123,1.5783,1.5014,1.4498,1.4118,1.3841,1.3164,1.2454,1.2095,1.1416,1.0699,1.0186,0.983,0.955,0.9287,0.8704,0.8196,0.7897,0.7907,0.7883,0.7725,0.8248,0.8658,0.8538,0.8673,0.8701,0.8439,0.8023,0.7521,0.6924,0.6768,0.6523,0.6012,0.6303,0.649,0.6376,0.6323,0.6139,0.5801,0.5161,0.4579,0.4036,0.3142,0.2016,0.0663,0.0052,-0.0655,-0.1473,-0.1475,-0.1602,2.0654,2.3222,2.5834,2.6021,2.7549,2.9077,2.9289,2.9156,2.9452,3.12,3.0844,3.0979,3.3486,3.359,3.3561,3.443,3.4561,3.458,3.4561,3.4561,3.458,3.4517,3.4583,3.4687,3.4747,3.4869,3.4868,3.4683,3.4251,3.3676,3.2929,3.3224,3.2872,3.1698,3.1891,3.167,3.0958,3.0247,2.9874,2.9842,2.9701,2.955,2.9373,2.9138,2.8975,2.8766,2.6952,2.5942,2.547,2.3922,2.2823,2.2036,2.1295,2.0211,1.9024,1.8483,1.7887,1.7361,1.7175,1.7059,1.6914,1.6517,1.6328,1.6102,1.5445,1.506,1.479,1.4587,1.395,1.3261,1.2917,1.2275,1.1412,1.0235,0.9944,0.9787,0.9369,0.8945,0.8552,0.8389,0.8333,0.8322,0.824,0.8519,0.8725,0.8683,0.8624,0.8635,0.8814,0.8259,0.7736,0.7442,0.7103,0.6763,0.6353,0.6376,0.6429,0.6421,0.6421,0.639,0.626,0.5695,0.5174,0.4786,0.3849,0.2831,0.1745,0.093,0.0238,-0.0317,-0.049,-0.0714,2.4926,2.7372,2.9492,2.9641,2.9734,2.9962,3.0696,3.0265,3.0189,3.1825,3.1409,3.1499,3.4005,3.3695,3.3328,3.4232,3.4363,3.4386,3.445,3.4404,3.4363,3.4363,3.4495,3.4602,3.4666,3.4869,3.4734,3.4143,3.4037,3.3671,3.2923,3.366,3.332,3.1661,3.2294,3.1881,3.0223,3.0067,3.0004,3.0009,2.9944,2.9851,2.9696,2.9299,2.8962,2.8603,2.6935,2.5673,2.4741,2.3862,2.3,2.2177,2.1908,2.0807,1.9326,1.909,1.837,1.7538,1.7361,1.7134,1.6901,1.6617,1.6421,1.6274,1.5998,1.5726,1.5448,1.5256,1.4859,1.4324,1.3931,1.3136,1.1914,0.9937,0.972,0.9777,0.913,0.8978,0.895,0.8999,0.8862,0.8862,0.9116,0.895,0.8879,0.9128,0.8787,0.8729,0.9377,0.884,0.8296,0.7995,0.7643,0.7268,0.6846,0.656,0.646,0.6626,0.6573,0.6551,0.6551,0.5975,0.5705,0.5754,0.4388,0.361,0.3487,0.2084,0.1282,0.107,0.0855,0.049,2.4852,2.6316,2.7826,2.8538,2.9139,2.9736,3.0368,2.9817,2.9854,3.2247,3.1496,3.1168,3.3636,3.334,3.3013,3.3944,3.4099,3.4099,3.4099,3.4148,3.4148,3.4099,3.4245,3.4427,3.4517,3.4728,3.4851,3.4863,3.4266,3.3586,3.2852,3.3056,3.2692,3.1623,3.1665,3.1513,3.1121,3.094,3.0823,3.0769,3.1318,3.1499,3.1334,2.9919,2.8717,2.7755,2.726,2.6183,2.4777,2.4474,2.3797,2.2876,2.2165,2.1586,2.0967,1.9596,1.8932,1.8625,1.7756,1.7368,1.7224,1.6799,1.6528,1.6344,1.6123,1.5812,1.5374,1.4703,1.4596,1.4384,1.2971,1.2825,1.2725,1.1277,1.0967,1.0889,1.0575,1.0231,0.9919,0.9793,0.9473,0.9171,0.9004,0.9254,0.9536,0.9701,0.9402,0.9191,0.9182,0.8744,0.8211,0.7731,0.7643,0.7435,0.6924,0.7095,0.7125,0.6846,0.6876,0.6897,0.6897,0.6421,0.5888,0.5343,0.4652,0.4,0.3341,0.2487,0.1959,0.17,0.1346,0.0714,2.6486,2.7579,2.8353,2.8764,2.9094,2.9379,2.9669,2.9245,2.9296,3.1066,3.0686,3.057,3.2243,3.2491,3.2619,3.3146,3.3584,3.3868,3.3947,3.3972,3.3998,3.3998,3.4148,3.4293,3.445,3.4666,3.4698,3.445,3.4099,3.3589,3.2838,3.3207,3.2842,3.1544,3.1819,3.1554,3.0693,3.093,3.1033,3.1015,3.175,3.1817,3.1297,3.0224,2.915,2.8135,2.7586,2.6634,2.538,2.4885,2.4093,2.3157,2.2735,2.2205,2.1576,2.0731,1.9837,1.9013,1.8414,1.7873,1.7368,1.6901,1.6686,1.6543,1.6234,1.5955,1.5607,1.5037,1.4844,1.453,1.3394,1.2974,1.2675,1.1932,1.1645,1.1502,1.1125,1.0873,1.0673,1.0479,1.0109,0.9863,0.9804,0.9866,0.9868,0.986,0.9586,0.9409,0.9445,0.9086,0.8634,0.8148,0.7987,0.7749,0.7283,0.7294,0.7303,0.7134,0.7095,0.7056,0.7107,0.6897,0.6415,0.5687,0.5264,0.4678,0.3961,0.3325,0.2829,0.2465,0.1963,0.1287,2.8111,2.9148,2.9351,2.9498,2.9292,2.9058,2.9117,2.8852,2.876,2.9393,2.9538,2.989,3.0966,3.16,3.2109,3.2465,3.3121,3.3588,3.3578,3.3742,3.375,3.3534,3.3907,3.4165,3.4176,3.4395,3.4375,3.3921,3.361,3.3233,3.2785,3.3264,3.2813,3.1236,3.1955,3.1648,3.0151,3.0861,3.1298,3.1449,3.2163,3.2044,3.1152,3.0678,2.9921,2.8868,2.8009,2.7121,2.6237,2.5356,2.4385,2.3417,2.3342,2.2764,2.1969,2.1877,2.0888,1.9516,1.916,1.8464,1.7669,1.705,1.6841,1.6712,1.6371,1.6095,1.5839,1.5461,1.5047,1.461,1.4028,1.3162,1.2419,1.2201,1.2001,1.1773,1.1239,1.1201,1.118,1.0954,1.0649,1.0457,1.0697,1.045,1.0169,1.0003,0.9808,0.9756,0.9888,0.9642,0.9251,0.8745,0.8487,0.8185,0.7793,0.7579,0.7471,0.749,0.7392,0.7324,0.7314,0.7364,0.7053,0.6356,0.5888,0.5348,0.4712,0.4115,0.3594,0.3147,0.2525,0.1858,2.7331,2.8296,2.884,2.9777,2.9417,2.8992,2.9566,2.9024,2.8416,2.8434,2.8461,2.9188,3.1466,3.1242,3.1237,3.2769,3.3105,3.2985,3.2433,3.3055,3.3049,3.1733,3.2952,3.3771,3.3324,3.3403,3.3817,3.4585,3.2728,3.1868,3.2597,3.2073,3.1287,3.0299,3.1051,3.1366,3.1127,3.1787,3.2487,3.3185,3.3851,3.3789,3.3004,3.2039,3.0641,2.8975,2.8658,2.8003,2.706,2.6182,2.529,2.4342,2.3667,2.3265,2.2994,2.2318,2.1832,2.1307,1.9711,1.8973,1.8545,1.7486,1.6952,1.667,1.6501,1.6065,1.552,1.49,1.4598,1.4233,1.3216,1.288,1.2751,1.2448,1.2128,1.1773,1.1354,1.1355,1.1367,1.1057,1.0677,1.0418,1.0467,1.0636,1.0795,1.0757,1.0818,1.0746,1.0446,1.021,0.9836,0.918,0.9023,0.8833,0.8414,0.841,0.8269,0.7945,0.8127,0.807,0.7734,0.7734,0.7462,0.6908,0.6265,0.5524,0.4704,0.4155,0.3735,0.3441,0.27,0.2003,2.7179,2.8139,2.8466,2.9062,2.8866,2.8601,2.8891,2.8578,2.8209,2.8154,2.8081,2.8383,2.9547,2.9804,3.0214,3.1398,3.2061,3.2475,3.2625,3.3099,3.3208,3.2621,3.3313,3.3792,3.3672,3.3817,3.4164,3.4693,3.3828,3.3502,3.3968,3.3696,3.3157,3.2313,3.2588,3.2521,3.2031,3.2728,3.3469,3.4222,3.4538,3.4233,3.3424,3.2414,3.1195,2.9802,2.9182,2.8383,2.7434,2.7042,2.6051,2.473,2.4418,2.3914,2.3324,2.2964,2.2418,2.1703,2.0297,1.9375,1.8663,1.747,1.6901,1.667,1.6448,1.6037,1.555,1.4979,1.4602,1.4178,1.3258,1.2849,1.2579,1.221,1.1836,1.1524,1.1278,1.1348,1.1362,1.1115,1.085,1.0669,1.0687,1.084,1.0905,1.0791,1.0992,1.0888,1.0156,1.0038,0.9766,0.9098,0.9045,0.8984,0.8789,0.8805,0.8706,0.84,0.8467,0.8365,0.8033,0.8119,0.7876,0.724,0.6831,0.6141,0.5151,0.4908,0.4517,0.3988,0.3371,0.2671,2.6926,2.7701,2.7844,2.8147,2.8156,2.8119,2.8174,2.7949,2.7713,2.7685,2.7395,2.7151,2.7225,2.8311,2.9461,3.0206,3.0968,3.1625,3.2043,3.2637,3.294,3.2647,3.3278,3.3742,3.3771,3.3924,3.4203,3.4647,3.4394,3.4396,3.4731,3.4804,3.4475,3.3669,3.3805,3.3582,3.2904,3.3635,3.4283,3.4827,3.4809,3.4468,3.3825,3.2671,3.1705,3.0863,2.9665,2.8695,2.7913,2.7488,2.6477,2.5185,2.4829,2.4195,2.3448,2.3448,2.2912,2.2059,2.0987,1.993,1.89,1.7657,1.6995,1.6591,1.6355,1.5924,1.5477,1.509,1.4596,1.4019,1.3319,1.2766,1.2294,1.1884,1.1505,1.1207,1.1142,1.1164,1.1136,1.1002,1.0937,1.086,1.0926,1.1067,1.1067,1.084,1.1115,1.1045,1.0268,1.0176,1.0002,0.9448,0.9355,0.9271,0.9197,0.9185,0.905,0.8761,0.8773,0.8617,0.8244,0.8375,0.8161,0.7474,0.7291,0.6671,0.56,0.5499,0.5094,0.4417,0.3899,0.3288,2.6303,2.6607,2.6723,2.7317,2.7565,2.7672,2.7789,2.7225,2.663,2.6522,2.5854,2.5303,2.519,2.7238,2.9189,3.0011,3.0278,3.014,2.9432,3.0921,3.152,3.0089,3.2055,3.3351,3.2921,3.2921,3.3445,3.4505,3.3258,3.2845,3.3714,3.384,3.3494,3.2711,3.3468,3.3849,3.3741,3.4471,3.487,3.4887,3.4831,3.4812,3.4774,3.3072,3.2222,3.1994,3.0039,2.9075,2.8796,2.7145,2.634,2.5991,2.4458,2.3754,2.3585,2.3517,2.3295,2.2895,2.1806,2.073,1.9638,1.8441,1.7359,1.6474,1.6262,1.5711,1.5104,1.4937,1.4246,1.3446,1.3032,1.252,1.2004,1.1623,1.1266,1.0981,1.0916,1.0774,1.0659,1.0715,1.0725,1.0802,1.104,1.1287,1.141,1.1185,1.1459,1.1623,1.142,1.1184,1.0968,1.072,1.0356,1.0,0.9694,0.9658,0.9449,0.8915,0.9128,0.8976,0.8319,0.8365,0.8145,0.7618,0.753,0.6962,0.5875,0.5499,0.5037,0.4479,0.4076,0.3667,2.4282,2.4398,2.4395,2.5561,2.5715,2.5682,2.6207,2.5897,2.5484,2.5443,2.5131,2.4883,2.4883,2.616,2.7474,2.8223,2.8934,2.9493,2.977,3.0558,3.1153,3.1225,3.2117,3.2739,3.2735,3.3352,3.3748,3.3749,3.384,3.4054,3.4453,3.4564,3.452,3.4287,3.4568,3.4718,3.4702,3.4975,3.5075,3.5019,3.5001,3.4964,3.4851,3.3128,3.2298,3.2031,3.028,2.9431,2.9191,2.855,2.7533,2.6334,2.5659,2.4667,2.3585,2.3448,2.3193,2.2753,2.1146,2.0247,1.9491,1.7805,1.6865,1.6328,1.6083,1.561,1.5088,1.469,1.4084,1.3446,1.2871,1.2342,1.1847,1.1266,1.084,1.0611,1.0544,1.0544,1.0659,1.0802,1.084,1.0954,1.1287,1.1522,1.1608,1.1597,1.1808,1.183,1.143,1.1214,1.0991,1.0706,1.0478,1.025,1.0085,1.0285,1.0108,0.9446,0.9619,0.9374,0.8527,0.8467,0.8259,0.7811,0.7559,0.7068,0.6276,0.5957,0.564,0.5328,0.47,0.4166,2.2505,2.2735,2.2818,2.4216,2.4298,2.4227,2.5002,2.4686,2.4266,2.4313,2.4007,2.3748,2.382,2.4552,2.5472,2.6398,2.7387,2.8268,2.8825,2.9644,3.0505,3.148,3.2007,3.2484,3.3007,3.3734,3.4046,3.3727,3.4386,3.4829,3.4908,3.502,3.5111,3.52,3.5212,3.5209,3.5212,3.5196,3.5162,3.5107,3.5127,3.5075,3.4889,3.3502,3.2768,3.2504,3.0866,2.987,2.9373,2.9008,2.8101,2.6863,2.614,2.5086,2.392,2.3466,2.3095,2.26,2.1028,2.0101,1.9359,1.7684,1.6743,1.6207,1.587,1.5463,1.5011,1.4438,1.3934,1.3378,1.2708,1.2229,1.179,1.142,1.0983,1.0686,1.0577,1.0498,1.0495,1.0736,1.084,1.104,1.1437,1.1645,1.1756,1.1782,1.1918,1.1926,1.1618,1.1302,1.1052,1.0916,1.0765,1.0612,1.0496,1.0822,1.0703,0.9815,0.9907,0.9586,0.8667,0.8523,0.8287,0.7945,0.7666,0.7314,0.6876,0.6478,0.6138,0.5797,0.5225,0.4649,0.0,0.0,0.0,2.3242,2.3338,2.3372,2.4188,2.3634,2.2929,2.31,2.2382,2.1748,2.1803,2.2355,2.324,2.4484,2.5633,2.6382,2.6382,2.8029,2.955,3.0451,3.1502,3.2565,3.3633,3.3954,3.4203,3.4435,3.4668,3.4848,3.4887,3.4965,3.5075,3.52,3.5264,3.5264,3.52,3.5212,3.516,3.5111,3.5145,3.5091,3.4944,3.4143,3.3654,3.3431,3.1788,3.0453,2.9336,2.8394,2.7914,2.76,2.5732,2.4874,2.4569,2.362,2.3028,2.2556,2.1513,2.0425,1.9296,1.8134,1.7066,1.6139,1.5726,1.5255,1.4783,1.4246,1.3782,1.3254,1.2591,1.2155,1.1939,1.2088,1.1694,1.1246,1.1124,1.0576,1.0196,1.0544,1.0736,1.1002,1.141,1.1671,1.1782,1.1782,1.1856,1.1943,1.2077,1.1517,1.1216,1.1492,1.1327,1.1104,1.084,1.1291,1.1134,0.9974,0.998,0.9632,0.8739,0.8523,0.8298,0.8021,0.7898,0.7763,0.7637,0.7029,0.641,0.5843,0.5634,0.5067,1.7725,0.0,0.0,0.0,0.0,0.0,2.1456,2.1151,2.0666,2.0926,2.0552,2.017,1.9992,2.0528,2.116,2.1608,2.4083,2.6004,2.6092,2.7213,2.8411,2.9532,3.0532,3.1317,3.1863,3.3188,3.3907,3.3586,3.4327,3.4829,3.4908,3.5057,3.5164,3.52,3.5212,3.5245,3.528,3.5209,3.5229,3.5245,3.4585,3.4196,3.409,3.3253,3.2444,3.1695,3.1242,3.0415,2.9318,2.8398,2.7837,2.7401,2.5574,2.4706,2.435,2.3325,2.279,2.2327,2.0752,1.9804,1.9028,1.7449,1.6565,1.6039,1.5668,1.5255,1.489,1.4369,1.3848,1.3276,1.2401,1.2424,1.2568,1.2189,1.1705,1.1297,1.1246,1.0656,1.0157,1.0418,1.0572,1.0812,1.1228,1.1437,1.1634,1.1844,1.1979,1.2077,1.2174,1.1936,1.1822,1.1994,1.1814,1.1629,1.1383,1.1752,1.1406,1.0126,1.0282,0.9988,0.895,0.8728,0.8578,0.8512,0.8428,0.8445,0.8529,0.7695,0.7194,0.6999,0.6238,0.5637,1.64,1.6556,1.684,1.8012,0.0,0.0,1.9641,1.9468,1.9077,1.926,1.9076,1.8874,1.8754,1.9128,1.9601,1.9994,2.2238,2.4238,2.5159,2.6186,2.7422,2.8906,3.0036,3.0944,3.1646,3.3107,3.3938,3.3732,3.4381,3.5,3.5458,3.5986,3.623,3.623,3.5916,3.5758,3.5796,3.5417,3.5229,3.5248,3.4666,3.4179,3.3786,3.3615,3.2787,3.1506,3.1468,3.0823,2.9736,2.8424,2.7912,2.7816,2.5955,2.5059,2.4646,2.3319,2.2426,2.1732,2.031,1.9332,1.848,1.6997,1.6344,1.6039,1.5551,1.5209,1.489,1.4415,1.3931,1.3467,1.2916,1.2958,1.3001,1.2429,1.1879,1.1409,1.1338,1.0844,1.0409,1.039,1.0495,1.0764,1.1142,1.1351,1.1597,1.1819,1.1918,1.2016,1.2138,1.193,1.1838,1.192,1.1781,1.1551,1.124,1.1517,1.1252,1.0155,1.0344,1.0144,0.9402,0.9262,0.9224,0.9319,0.9189,0.9162,0.9227,0.8389,0.7798,0.7534,0.6805,0.626,1.6417,1.6353,1.6509,1.7781,1.7514,0.0,1.8377,1.8145,1.7775,1.7884,1.7711,1.7569,1.7667,1.7884,1.8253,1.901,2.021,2.1809,2.3929,2.5227,2.6605,2.8439,2.9816,3.1078,3.2129,3.3301,3.4136,3.447,3.4851,3.5493,3.6388,3.7242,3.7697,3.7697,3.6908,3.6485,3.6491,3.5613,3.5196,3.52,3.5034,3.4543,3.3824,3.4508,3.3885,3.2202,3.2106,3.1453,3.0268,2.8539,2.8135,2.8456,2.6422,2.5535,2.5164,2.3406,2.2167,2.1167,2.014,1.9092,1.8006,1.6822,1.6316,1.6067,1.5477,1.5163,1.4859,1.4319,1.3985,1.3752,1.3595,1.3419,1.3159,1.2657,1.2078,1.1571,1.1379,1.1084,1.0763,1.0391,1.0545,1.0815,1.1115,1.1314,1.1522,1.1708,1.1745,1.1844,1.2041,1.1768,1.1586,1.1641,1.1548,1.13,1.0862,1.1075,1.0889,1.0172,1.024,1.0223,0.9944,0.9931,1.0021,1.0235,1.0021,0.9843,0.9713,0.9019,0.8344,0.7729,0.7336,0.6944,1.678,1.6555,1.6409,1.6639,1.6005,0.0,1.6668,1.6153,1.555,1.5941,1.5644,1.529,1.523,1.5733,1.6488,1.7408,1.8558,2.0442,2.3457,2.4828,2.6058,2.757,2.9251,3.0547,3.1211,3.282,3.4242,3.5206,3.6287,3.7031,3.7338,3.7564,3.7714,3.7697,3.6877,3.6419,3.642,3.5564,3.511,3.511,3.4337,3.3865,3.3732,3.3772,3.3184,3.2123,3.2042,3.1406,3.0305,2.9028,2.8449,2.812,2.5638,2.4901,2.5018,2.3155,2.232,2.1832,2.0206,1.9329,1.8651,1.7087,1.6328,1.5955,1.5507,1.5149,1.4763,1.4072,1.3798,1.3557,1.2889,1.3035,1.3144,1.244,1.2007,1.1743,1.1571,1.1084,1.0644,1.0564,1.0785,1.0955,1.0815,1.1023,1.1223,1.1303,1.1437,1.1623,1.1822,1.1913,1.2107,1.2442,1.211,1.1806,1.1676,1.1424,1.0997,1.0293,1.0383,1.0361,1.0135,1.0135,1.0298,1.0608,1.0545,1.0323,0.9867,0.9328,0.8931,0.8621,0.791,0.7491,1.6677,1.6036,1.555,1.5591,1.4946,0.0,0.0,1.4498,1.4032,1.4184,1.4117,1.4046,1.4022,1.4474,1.5277,1.6451,1.7621,1.9236,2.1574,2.3482,2.5293,2.6994,2.8945,3.0361,3.0912,3.3013,3.4887,3.624,3.7392,3.8095,3.8194,3.8652,3.8899,3.8899,3.7661,3.7013,3.7013,3.5702,3.502,3.4982,3.451,3.4037,3.362,3.3958,3.3349,3.2044,3.1939,3.1277,3.0165,2.9095,2.8232,2.7442,2.5641,2.5032,2.4923,2.3117,2.2139,2.1556,2.015,1.9235,1.8475,1.6997,1.6301,1.6015,1.5845,1.5467,1.49,1.4227,1.4001,1.3791,1.3155,1.3115,1.2992,1.2147,1.1718,1.1446,1.119,1.1023,1.0834,1.0535,1.0815,1.1055,1.0835,1.0985,1.1158,1.1287,1.1335,1.1448,1.176,1.1895,1.2046,1.222,1.1784,1.1458,1.1314,1.0887,1.0498,1.0266,1.0427,1.0483,1.046,1.0643,1.0835,1.0991,1.0991,1.0777,1.0311,0.9867,0.9449,0.9035,0.8635,0.8283,1.7219,1.613,1.5251,1.5289,1.4469,1.3599,0.0,0.0,0.0,1.2691,1.2835,1.3071,1.3189,1.3521,1.4166,1.5313,1.6451,1.7776,1.9431,2.167,2.3968,2.62,2.8518,3.0176,3.08,3.3322,3.5605,3.7272,3.8131,3.8734,3.9028,3.9696,4.0117,4.0117,3.8613,3.7833,3.7833,3.6065,3.5173,3.5116,3.4944,3.445,3.375,3.4386,3.3776,3.2208,3.1908,3.1164,3.0027,2.8857,2.7803,2.6828,2.587,2.5267,2.4715,2.3093,2.2068,2.1305,2.0298,1.9353,1.8349,1.7103,1.6354,1.596,1.5958,1.5511,1.4904,1.4371,1.4136,1.3909,1.3484,1.3162,1.2756,1.1871,1.1474,1.1174,1.0802,1.0933,1.0995,1.0565,1.0785,1.1005,1.0912,1.0985,1.112,1.1271,1.126,1.1373,1.1708,1.1796,1.1869,1.1914,1.1467,1.1094,1.0849,1.0355,1.011,1.0198,1.0411,1.0572,1.0729,1.1132,1.1316,1.1285,1.1316,1.1108,1.0656,1.0348,0.9893,0.9339,0.9232,0.8921,1.9882,1.8551,1.7102,1.6841,1.5033,1.3269,1.3067,0.0,1.1654,1.18,0.0,1.1752,1.2092,0.0,0.0,1.3042,1.395,1.5497,1.8037,1.9558,2.1555,2.4596,2.7521,2.9687,3.0715,3.3276,3.5799,3.7941,3.8182,3.8723,3.9804,4.0,4.0117,4.0117,3.9123,3.8588,3.8668,3.6818,3.5905,3.5947,3.5128,3.467,3.4555,3.4524,3.3989,3.3026,3.2102,3.1122,3.0044,2.8264,2.7324,2.6881,2.5897,2.5015,2.4165,2.2959,2.2473,2.2302,2.1214,2.0261,1.9343,1.813,1.6722,1.5433,1.5221,1.4784,1.433,1.4033,1.3672,1.3317,1.2959,1.2675,1.2328,1.1748,1.1553,1.1378,1.0947,1.0874,1.0835,1.0756,1.0787,1.0835,1.0833,1.0822,1.086,1.0926,1.1212,1.141,1.1527,1.1847,1.2126,1.2319,1.2063,1.1696,1.1271,1.089,1.0582,1.0313,1.0424,1.0621,1.0873,1.1256,1.1392,1.1201,1.1392,1.115,1.0523,1.0548,1.0286,0.9802,0.9393,0.8987,1.9393,1.8769,1.7685,1.5782,1.4624,1.3616,1.238,1.1735,1.1362,1.1268,0.0,0.0,0.0,0.0,0.0,0.0,1.4752,1.573,1.7149,1.9427,2.1926,2.4475,2.659,2.9153,3.2406,3.39,3.5779,3.8468,3.8327,3.8625,3.9769,3.9933,3.9975,3.9975,3.9115,3.8656,3.8677,3.6887,3.6015,3.6017,3.5124,3.4687,3.4706,3.4561,3.4023,3.3134,3.218,3.114,2.9996,2.8197,2.7031,2.6282,2.5329,2.4654,2.4034,2.3067,2.2738,2.2565,2.1583,2.0653,1.9621,1.7706,1.6653,1.5993,1.5174,1.497,1.4834,1.41,1.3695,1.3399,1.3091,1.2826,1.2508,1.2066,1.1811,1.159,1.1228,1.1078,1.1002,1.0975,1.1002,1.104,1.1023,1.0995,1.0995,1.105,1.1276,1.1527,1.17,1.1993,1.2258,1.2556,1.2329,1.2123,1.1951,1.1687,1.1311,1.0913,1.0821,1.092,1.1239,1.1415,1.146,1.1376,1.146,1.1279,1.0777,1.0729,1.0583,1.0361,0.9736,0.9313,1.9567,1.9265,1.834,1.5411,1.4545,1.3936,1.2018,1.1708,1.1607,1.0839,1.086,0.0,0.0,0.0,1.2226,1.3584,0.0,1.4782,1.6104,1.8924,2.1688,2.4058,2.6168,2.9041,3.3037,3.3815,3.5276,3.814,3.8339,3.8833,4.0019,4.0185,4.0249,4.0271,3.9369,3.8912,3.8956,3.7432,3.6559,3.6375,3.5484,3.4934,3.4706,3.4561,3.3933,3.2857,3.211,3.1053,2.9727,2.8177,2.7031,2.6186,2.5111,2.4672,2.4497,2.3395,2.2995,2.2857,2.2141,2.107,1.9672,1.7378,1.657,1.6353,1.5416,1.5202,1.5175,1.4357,1.3993,1.3749,1.3501,1.3229,1.2931,1.252,1.2198,1.192,1.1531,1.1394,1.133,1.1228,1.1292,1.1378,1.1351,1.1287,1.1223,1.1287,1.1527,1.1737,1.1945,1.221,1.2437,1.2709,1.2611,1.2514,1.2449,1.2275,1.1929,1.1429,1.1119,1.1108,1.1466,1.1474,1.1474,1.1444,1.1497,1.1347,1.1015,1.0968,1.0873,1.0753,0.9918,0.9477,2.1745,2.0831,1.9497,1.6801,1.5303,1.4021,1.2216,1.2342,1.232,1.0508,0.9679,0.939,0.9736,1.0853,1.1425,1.059,1.02,0.0,0.0,1.7197,1.972,2.2776,2.6532,2.9624,3.1601,3.2538,3.4058,3.6495,3.8044,3.9517,4.0972,4.1071,4.1094,4.1162,4.0174,3.9721,3.9851,3.8826,3.7992,3.7348,3.6415,3.5522,3.4687,3.4623,3.3698,3.2115,3.1827,3.0765,2.9141,2.8054,2.7458,2.7109,2.5505,2.5326,2.5739,2.3951,2.3313,2.336,2.3206,2.1707,1.9555,1.7541,1.6528,1.6055,1.5754,1.5329,1.4899,1.4808,1.4588,1.4319,1.4032,1.3835,1.3568,1.3088,1.2754,1.2461,1.1982,1.1847,1.1737,1.1516,1.1664,1.1774,1.1774,1.1627,1.1516,1.1579,1.1884,1.2113,1.2174,1.2473,1.2697,1.2803,1.2978,1.2926,1.2602,1.2571,1.2312,1.1629,1.1157,1.1038,1.1399,1.1399,1.1376,1.1307,1.1489,1.1421,1.1085,1.1215,1.1192,1.0954,0.991,0.9311,2.2209,2.1664,2.0704,1.7843,1.6413,1.5251,1.3635,1.327,1.299,1.1856,1.1315,1.0892,1.0343,1.0353,1.0602,1.1086,1.1539,1.3173,0.0,2.0032,2.2443,2.3845,2.636,2.8436,2.961,3.1526,3.3844,3.6721,3.7544,3.8571,4.0094,4.0257,4.0302,4.0347,3.9974,3.9781,3.9826,3.8968,3.8442,3.8241,3.678,3.5926,3.5603,3.4953,3.4022,3.2847,3.2179,3.1173,2.9861,2.8297,2.7547,2.7272,2.6175,2.5899,2.593,2.4185,2.3934,2.4154,2.2358,2.1126,1.9956,1.7904,1.6901,1.6405,1.6009,1.5595,1.5224,1.5086,1.4871,1.4637,1.4438,1.4181,1.3888,1.3643,1.3285,1.2941,1.2672,1.2591,1.2461,1.227,1.2449,1.2603,1.2318,1.2294,1.2222,1.1957,1.215,1.2294,1.233,1.2591,1.2803,1.2873,1.3116,1.3074,1.2519,1.1968,1.1661,1.1615,1.128,1.1215,1.1466,1.1519,1.1527,1.1549,1.1578,1.1526,1.1353,1.133,1.1285,1.1164,0.9725,0.9079,2.2869,2.2364,2.1597,1.861,1.7374,1.6352,1.4261,1.3831,1.3459,1.1982,1.161,1.1276,1.0408,0.9782,0.9939,1.1508,1.2715,1.5113,0.0,2.2178,2.3605,2.4312,2.5605,2.6937,2.819,3.0914,3.3633,3.6103,3.7912,3.9442,4.0589,4.1041,4.1146,4.0886,4.0517,4.0192,3.9911,3.938,3.8984,3.8703,3.7601,3.6746,3.6119,3.5469,3.4517,3.3323,3.2374,3.1402,3.0354,2.8805,2.8072,2.7816,2.7017,2.6872,2.6931,2.4976,2.4414,2.4284,2.1903,2.0884,2.0296,1.8228,1.7224,1.6773,1.6313,1.5868,1.5492,1.5388,1.5178,1.4963,1.4873,1.461,1.4324,1.4227,1.3822,1.3454,1.334,1.3182,1.3035,1.2826,1.2965,1.2973,1.2479,1.2442,1.248,1.2259,1.233,1.2437,1.252,1.2697,1.2908,1.3069,1.3112,1.2869,1.2279,1.1622,1.1349,1.1615,1.1329,1.1285,1.1489,1.1497,1.1482,1.1482,1.1384,1.133,1.1262,1.1155,1.1019,1.0765,0.96,0.8826]}]]